GFSCGP_500_spd_000.txt.gz
Wind_Speed
21 21 16 18 17 15 13 12 15 9 14 25 17 16 11 14 11 9 4 2 1 3 5 7 7 4 4 5 7 9 10 10 12 12 14 16 18 19 20 20 20 20 19 19
25 21 17 15 17 19 13 16 13 13 18 14 20 20 13 9 16 19 10 6 3 2 5 5 5 8 9 8 9 10 11 11 13 14 15 16 19 21 24 25 24 23 22 23
19 19 21 19 20 21 22 20 16 13 17 22 17 33 21 13 14 21 18 13 7 5 2 5 7 7 7 7 8 10 12 14 15 15 16 17 19 21 23 25 26 26 26 26
22 20 23 23 21 20 19 21 20 19 20 16 20 13 25 14 25 24 33 17 11 7 5 4 7 8 9 9 9 10 12 14 15 16 19 18 19 21 23 26 27 27 28 27
21 23 24 25 24 24 22 15 19 20 22 19 19 22 30 21 25 25 16 24 14 10 9 8 9 12 13 13 12 12 13 15 18 20 20 20 21 24 25 28 29 28 28 29
23 21 22 22 20 22 18 17 19 21 20 22 22 20 28 31 16 18 25 12 12 16 16 14 14 13 16 16 16 16 17 18 20 21 22 24 24 26 27 28 29 29 29 30
26 18 23 25 22 19 19 17 17 17 17 17 16 22 21 24 18 11 21 26 25 25 24 21 22 20 20 22 21 23 22 21 22 23 23 25 25 26 28 30 31 32 32 33
29 25 25 24 22 20 25 19 16 11 7 11 14 18 12 20 17 25 9 16 28 21 21 18 21 22 20 26 29 28 28 26 25 25 25 27 29 29 30 31 34 34 35 36
27 22 25 22 23 27 24 25 18 16 14 13 15 15 15 20 18 24 35 36 33 26 25 21 27 30 25 24 30 29 28 27 27 26 27 27 29 31 34 35 35 36 37 37
21 18 23 26 25 27 21 11 20 20 19 17 14 18 20 22 24 28 22 24 19 23 27 21 24 29 21 23 28 26 26 26 29 29 29 29 30 32 33 35 35 36 37 37
23 16 19 23 29 26 22 23 21 15 15 11 11 24 22 24 26 23 21 24 22 19 23 20 21 27 19 19 22 25 28 29 32 32 33 33 34 36 37 35 35 36 36 38
32 27 25 30 25 23 22 26 20 20 22 22 19 13 17 22 25 24 29 30 25 20 23 24 24 28 23 23 26 26 29 31 33 34 35 35 36 38 39 38 37 37 37 38
34 32 30 26 26 28 30 27 23 19 17 21 19 21 32 30 29 28 32 32 34 36 26 23 25 28 27 26 28 28 30 32 33 36 36 37 38 38 38 37 37 38 39 40
31 33 34 28 26 24 27 25 27 27 29 24 25 24 25 21 27 36 40 31 29 32 39 38 31 35 32 29 27 28 29 32 34 35 37 38 37 37 36 38 40 40 41 44
42 36 31 31 32 28 29 25 28 28 35 31 24 38 31 40 26 32 44 30 28 37 44 42 37 34 36 30 28 29 30 33 36 37 40 37 37 36 39 40 40 42 44 47
42 40 36 28 25 31 28 28 32 27 25 24 31 27 34 33 42 36 45 32 41 42 36 35 38 33 35 33 29 30 30 33 38 39 39 40 39 38 41 42 43 46 48 50
49 46 36 29 28 26 29 27 28 29 29 32 29 28 36 44 44 45 49 43 40 39 34 34 33 35 37 37 32 32 33 36 37 40 40 40 40 41 44 45 46 50 51 53
39 42 44 35 22 29 26 21 24 32 28 25 24 34 40 48 50 49 51 46 45 30 26 24 27 28 34 32 32 31 33 34 36 38 40 41 42 43 44 48 51 52 52 52
38 32 35 35 32 26 24 27 34 31 33 31 37 45 45 57 45 44 47 54 41 26 25 24 24 25 29 28 30 29 30 33 35 38 40 41 44 45 47 50 52 53 52 54
32 24 28 18 29 30 26 32 41 48 55 35 35 36 43 57 37 50 43 37 33 31 28 28 29 29 29 30 32 31 31 33 36 40 41 43 46 48 51 53 55 53 52 52
34 34 40 39 39 35 29 43 43 45 41 46 37 40 45 43 40 34 40 39 33 32 33 31 30 32 32 33 33 31 33 36 39 41 44 47 49 51 53 53 53 52 48 46
54 48 51 45 38 36 36 42 43 41 27 15 35 41 52 43 37 40 40 43 44 33 32 33 35 35 36 36 36 34 36 38 41 43 47 50 52 53 54 53 52 51 47 45
40 41 47 29 37 48 49 54 55 39 34 42 43 45 36 41 47 50 40 39 49 47 37 39 38 39 38 38 40 38 38 38 41 44 49 51 51 52 52 53 52 49 44 43
49 52 50 47 52 47 15 50 54 53 50 50 49 49 44 43 46 47 44 40 46 45 41 38 41 40 42 46 45 39 41 36 40 39 44 53 51 52 54 54 56 48 43 43
36 48 42 44 50 36 48 37 46 51 50 48 50 49 53 51 51 50 46 44 43 41 40 41 41 42 42 64 40 41 24 42 40 44 49 48 52 54 58 53 48 39 46 43
24 33 12 32 39 52 44 38 49 48 45 49 53 53 55 56 55 51 48 45 43 39 38 40 43 41 37 37 36 60 53 46 54 52 57 56 59 59 58 49 41 48 46 42

GFSCGP_500_spd_003.txt.gz
Wind_Speed
21 24 19 15 16 17 8 7 8 14 17 14 19 19 14 9 11 13 9 9 1 3 3 2 4 4 4 4 5 7 10 9 10 11 11 12 13 15 16 18 18 19 18 16
25 24 20 22 23 20 15 18 16 12 17 21 15 17 22 27 13 2 7 10 11 4 4 4 2 3 2 4 5 6 6 8 9 11 13 14 14 17 20 22 23 22 21 19
22 20 25 25 30 24 22 20 15 19 17 24 13 20 24 13 20 13 12 16 16 12 6 4 3 1 1 3 5 7 8 9 11 12 14 15 14 15 17 20 22 24 25 24
26 25 29 25 22 22 27 19 25 13 29 22 22 24 22 16 22 15 18 7 9 9 10 7 4 3 4 5 7 8 9 10 11 12 13 14 15 15 17 19 20 22 23 25
27 30 31 28 28 24 26 28 29 27 18 22 22 24 29 27 29 26 11 12 16 13 14 13 9 7 8 9 10 11 12 14 15 17 18 19 19 20 21 23 25 26 27 27
32 30 32 25 26 29 23 29 27 33 29 30 35 30 29 31 21 21 25 19 17 11 15 18 15 13 12 13 14 15 16 17 18 20 20 22 22 23 24 24 25 28 28 27
34 33 28 26 26 29 29 26 24 25 28 31 15 27 28 31 27 24 20 20 17 16 19 15 21 21 20 21 21 22 25 25 24 23 21 20 22 24 27 28 28 29 30 30
37 36 30 19 23 23 25 28 28 31 25 6 9 17 23 26 26 29 27 23 25 32 32 21 14 14 15 19 22 24 22 23 23 22 22 22 24 25 27 28 29 31 32 31
36 32 25 23 29 29 18 27 28 19 10 16 18 20 16 23 21 20 20 18 20 22 23 19 18 16 18 19 20 21 26 23 23 22 22 23 24 27 28 29 31 32 31 31
32 16 25 20 22 24 23 28 28 30 28 24 16 18 23 21 20 22 22 23 23 23 24 23 20 15 16 18 19 19 23 24 23 24 24 25 25 25 27 29 30 30 31 32
32 27 25 27 36 32 29 34 25 26 31 20 16 24 23 24 25 23 27 25 20 21 20 28 28 20 19 18 17 20 23 25 26 26 27 28 29 26 26 27 29 29 29 30
36 30 27 30 25 22 24 37 25 23 25 23 23 24 24 22 19 26 30 29 25 20 20 25 30 30 27 21 19 23 25 28 30 28 28 30 30 28 28 29 32 32 31 32
39 37 33 33 31 30 28 24 22 28 26 30 29 27 25 25 27 26 23 30 26 28 28 24 26 27 30 31 31 29 29 29 30 28 28 30 31 31 31 30 33 33 32 33
45 40 36 36 25 38 29 24 28 35 32 27 25 24 28 32 32 37 39 26 29 31 23 33 36 39 34 31 31 29 28 28 29 29 29 31 33 33 32 32 33 34 33 36
45 38 38 36 38 32 31 33 33 35 33 28 25 25 37 38 38 44 30 33 32 28 28 32 39 41 42 35 30 26 27 28 29 30 31 33 33 33 33 34 35 35 36 40
28 38 35 40 39 39 30 19 23 24 25 31 25 40 42 40 33 38 39 32 30 25 29 40 42 45 41 38 34 31 32 34 30 31 31 33 33 32 34 35 36 38 41 44
42 41 46 45 46 46 39 36 27 24 27 31 32 23 34 41 43 49 46 40 37 37 38 41 42 48 46 39 32 28 36 30 29 31 32 33 35 35 36 36 38 41 45 47
46 48 48 47 43 47 49 39 29 26 30 32 33 29 29 36 40 40 41 41 48 40 43 47 47 43 42 32 25 24 28 31 34 33 34 34 35 36 36 38 40 44 48 50
42 50 44 48 44 42 42 40 35 31 33 37 41 36 41 36 45 42 47 44 46 44 41 47 45 41 36 28 27 30 32 31 32 33 34 35 37 37 38 41 43 46 50 53
42 42 49 50 49 48 37 27 33 39 38 42 36 38 35 34 38 44 43 47 45 44 32 37 38 37 33 29 28 29 31 32 31 33 36 38 38 38 41 43 46 49 49 50
41 42 49 41 48 48 43 31 44 45 50 50 39 48 42 37 38 47 50 52 54 54 51 39 34 34 34 33 32 32 36 34 35 36 38 37 38 40 40 41 46 48 50 49
30 40 46 48 40 39 35 36 38 38 44 39 42 51 53 51 51 56 53 52 51 49 49 43 29 29 34 33 34 37 39 39 41 42 38 38 45 39 38 37 47 48 49 49
52 41 40 38 41 48 36 30 46 56 61 54 49 46 46 42 55 54 48 48 45 36 44 50 42 33 39 37 37 39 43 48 54 46 44 50 50 43 37 48 45 48 49 47
39 37 35 34 37 43 46 49 48 50 57 64 50 47 44 30 37 44 45 44 43 40 44 47 46 38 39 41 39 47 43 46 50 23 35 24 29 32 37 39 45 46 45 46
58 50 49 52 47 55 55 56 47 50 52 58 30 39 42 46 49 48 50 46 44 47 44 43 41 43 42 43 45 46 46 44 44 56 56 53 38 56 58 46 46 45 46 47
49 42 40 52 43 49 46 41 46 53 53 58 41 37 46 53 54 53 53 52 48 46 48 45 46 45 45 44 44 44 50 47 44 53 59 61 56 64 59 53 50 50 50 48

GFSCGP_500_spd_006.txt.gz
Wind_Speed
29 30 25 19 18 21 22 15 4 8 12 12 11 11 9 9 16 9 7 6 3 2 1 2 4 5 5 4 5 5 5 5 5 6 7 7 6 8 9 11 12 11 12 12
30 31 23 19 23 29 26 21 13 5 12 20 19 14 10 10 9 3 2 4 3 3 3 2 3 4 5 4 3 3 3 4 4 5 6 7 9 10 12 13 14 13 13 13
26 23 29 27 32 31 26 23 21 5 16 23 22 21 17 13 7 4 9 10 12 7 8 7 7 6 5 4 1 2 4 5 5 6 7 8 10 12 14 15 16 17 17 17
29 32 37 34 30 32 31 21 11 14 24 30 21 22 25 19 13 7 10 20 20 6 9 12 10 7 5 4 4 5 8 8 9 10 11 12 13 14 15 15 17 18 19 21
29 36 35 37 31 36 29 22 15 20 22 22 25 27 19 21 18 11 16 11 11 15 13 12 12 11 9 9 9 11 12 13 13 14 16 18 18 19 19 18 19 20 20 22
35 36 37 34 34 40 34 26 27 24 25 28 26 23 26 27 27 19 20 17 14 12 9 11 13 12 13 13 15 17 18 18 19 19 19 22 24 22 20 21 23 26 26 26
42 43 40 36 40 42 42 32 34 38 36 34 25 29 27 30 31 23 23 18 16 15 11 15 17 16 17 21 20 21 23 23 24 22 21 20 22 22 21 24 26 27 27 27
45 46 44 41 42 37 38 35 35 39 48 45 34 39 15 14 17 19 26 19 15 13 7 10 11 14 12 17 21 23 23 22 20 19 17 19 19 19 23 26 28 29 29 29
48 46 42 42 40 34 37 42 34 33 35 23 26 22 15 20 17 18 21 19 15 15 14 13 9 12 15 16 23 22 22 22 21 20 21 19 20 19 21 25 28 29 29 29
44 43 40 34 32 29 30 24 30 36 31 30 29 23 23 15 18 16 17 17 18 23 18 20 10 7 8 12 17 22 24 23 24 23 25 25 24 24 23 24 27 31 30 28
41 40 40 39 38 31 27 31 28 28 28 36 26 23 21 19 22 17 17 16 22 25 19 15 11 10 11 12 15 22 24 24 26 28 28 30 27 27 27 23 27 29 28 27
42 41 43 44 34 30 24 32 34 35 38 32 33 26 27 23 24 17 14 18 23 28 23 14 11 17 18 23 21 22 24 27 30 34 32 32 29 30 29 27 26 28 29 30
34 44 42 42 39 30 27 32 35 33 36 34 35 34 30 28 27 25 21 25 26 25 28 30 18 20 21 23 26 26 23 27 31 34 33 31 31 31 31 30 29 30 32 34
13 46 45 46 39 33 34 31 28 29 36 34 34 32 35 32 26 27 30 34 29 29 24 19 23 21 25 26 26 33 30 27 30 32 29 31 32 32 33 33 30 32 34 36
27 44 45 44 33 31 37 38 30 31 33 31 25 28 38 34 28 29 33 29 32 32 35 27 24 28 33 33 31 32 33 31 33 33 32 33 34 34 34 35 33 34 37 38
39 26 47 48 39 25 31 39 39 27 28 28 34 31 32 32 28 29 35 38 42 35 33 36 35 37 36 34 34 36 33 32 36 36 37 37 36 35 36 38 35 36 38 39
41 35 48 48 39 33 38 46 41 39 44 34 40 32 30 33 34 37 43 45 45 44 44 44 36 35 37 44 42 41 34 33 35 37 36 35 37 39 37 39 38 39 40 41
41 40 32 48 41 42 38 39 32 27 29 29 24 22 27 30 31 32 37 43 44 48 44 42 41 42 41 44 44 42 34 34 37 38 36 37 37 40 38 39 41 41 42 40
38 45 41 42 46 43 44 40 33 35 35 33 34 35 29 37 37 42 40 41 49 47 47 44 41 39 38 38 39 42 37 39 40 37 34 38 39 40 39 41 42 43 42 37
37 36 46 50 46 46 49 50 49 41 38 38 38 37 35 34 38 42 47 51 49 44 45 44 38 43 47 43 49 47 41 43 43 40 39 41 40 40 42 42 44 42 39 34
41 43 38 40 48 49 48 52 52 50 52 49 42 39 35 41 34 41 45 43 43 43 45 41 40 37 44 41 41 42 43 42 43 42 43 44 45 42 46 46 45 43 35 37
50 48 44 44 40 46 48 50 53 56 52 52 50 44 45 36 39 47 47 51 52 44 41 40 40 41 34 37 36 39 40 39 40 41 42 46 58 56 52 52 44 39 33 39
45 47 51 53 50 50 48 48 49 53 50 48 53 36 42 46 42 39 42 42 46 39 46 45 44 48 47 38 38 38 38 40 40 43 48 48 51 46 30 38 37 41 37 47
50 53 47 49 55 50 52 49 49 50 52 52 38 36 38 42 45 56 54 54 43 32 37 45 46 42 48 49 42 39 38 36 41 40 45 44 45 51 49 34 28 37 45 46
46 41 42 25 47 51 42 40 47 50 43 51 42 35 37 36 41 46 54 52 51 34 39 45 45 48 48 46 45 41 40 40 44 43 45 51 55 52 54 49 45 48 46 45
43 40 37 40 35 32 31 26 26 32 35 39 41 39 45 52 41 43 49 44 38 45 49 45 47 47 44 43 42 44 43 42 42 46 48 53 57 53 60 58 53 47 45 47

GFSCGP_500_spd_009.txt.gz
Wind_Speed
35 34 31 29 28 26 19 17 17 5 4 4 7 6 4 11 6 3 2 4 3 4 4 3 5 5 6 5 5 5 5 5 3 2 1 1 2 4 5 5 6 6 6 7
35 31 29 32 32 32 26 21 16 13 5 6 5 9 5 7 10 3 4 3 2 4 6 7 6 5 6 7 6 3 3 2 2 2 3 5 6 7 8 9 10 11 11 11
29 26 37 34 29 36 29 23 20 8 11 15 14 15 5 7 11 6 12 8 9 7 10 10 7 6 6 7 7 6 4 3 4 7 9 10 10 11 12 12 14 15 15 15
33 34 41 40 31 33 33 27 20 21 20 17 20 20 10 6 12 5 8 8 6 6 5 11 10 9 10 10 9 8 7 7 8 11 14 14 14 15 17 18 18 19 20 20
37 34 40 41 33 31 34 27 26 24 20 19 23 26 15 16 15 9 6 5 10 13 9 10 13 14 15 15 13 12 12 12 14 16 18 20 20 20 20 22 21 22 22 23
42 38 43 45 35 38 34 35 34 28 26 30 26 25 22 17 8 14 12 11 12 10 14 13 12 14 16 19 17 14 16 17 20 22 23 24 28 24 24 25 24 22 23 24
48 47 48 48 45 46 44 41 39 38 36 34 30 31 20 6 9 11 10 12 8 10 9 13 16 13 15 19 25 25 22 23 22 23 22 20 20 20 23 25 24 23 24 25
52 52 51 52 49 49 47 47 45 38 32 31 34 38 13 11 12 9 9 14 8 4 10 10 19 28 24 20 22 20 15 17 19 18 16 18 18 19 21 23 24 24 26 27
55 52 52 55 50 50 52 56 45 44 39 37 35 36 30 18 17 18 9 14 9 9 9 14 11 11 17 20 17 17 17 17 18 18 18 20 21 23 24 23 24 25 27 29
51 52 51 51 54 54 57 55 49 50 45 45 45 44 44 35 22 19 14 14 12 12 9 13 9 7 5 7 12 15 18 21 22 23 23 23 27 28 27 25 26 26 27 32
44 53 49 51 56 54 58 56 57 49 45 41 35 33 31 35 24 18 16 19 15 11 8 12 15 2 3 1 7 15 19 23 24 26 28 28 30 31 32 30 29 27 28 32
39 46 47 51 52 52 59 53 52 48 40 36 33 33 31 26 21 17 21 16 12 12 12 12 14 12 7 8 11 11 16 18 21 26 29 30 32 33 33 33 32 30 31 30
31 42 48 48 52 53 56 49 41 31 33 35 31 29 28 31 28 21 19 20 21 23 21 15 8 9 12 10 17 20 23 26 26 25 27 29 30 31 32 35 34 32 33 32
31 31 45 52 48 51 52 44 36 31 34 36 33 30 27 27 32 31 27 23 21 17 15 15 18 17 12 14 22 21 25 28 33 33 32 32 36 34 34 37 33 37 36 34
38 34 28 45 48 52 45 43 35 35 30 31 27 29 29 30 31 29 23 22 19 14 18 17 21 27 26 27 24 21 29 34 36 36 36 35 38 35 33 39 45 41 42 34
38 36 24 34 45 53 47 42 40 36 33 27 26 28 23 24 27 28 31 27 23 24 22 32 36 34 30 28 28 30 33 35 34 36 38 38 34 31 36 35 37 45 46 38
39 38 34 34 45 52 55 40 42 41 39 36 38 28 28 31 35 30 29 29 28 26 28 30 36 38 38 36 35 31 36 35 34 39 40 43 48 33 44 38 40 48 51 44
38 36 35 33 44 51 50 37 37 36 43 41 44 38 35 34 28 29 22 26 29 31 29 33 37 40 43 46 44 35 39 39 44 47 44 42 31 39 40 49 49 46 50 45
42 38 37 34 41 43 49 41 34 33 33 50 48 39 41 25 33 27 30 34 35 35 36 39 42 44 47 46 39 43 42 42 37 39 44 41 43 42 44 47 48 51 54 54
44 42 36 39 38 40 47 48 37 37 41 49 57 41 29 28 31 29 32 38 40 38 39 41 45 45 47 40 38 41 48 41 41 43 45 44 42 41 42 43 46 52 65 58
42 44 35 42 43 44 41 32 32 37 41 44 39 29 33 34 35 33 35 41 43 43 44 48 51 51 47 46 36 34 38 42 46 48 45 45 43 42 41 44 52 54 58 55
47 44 32 37 49 48 45 46 49 45 44 39 39 43 42 41 33 32 38 40 46 46 53 54 51 48 53 46 32 34 37 39 44 46 46 44 39 39 43 43 37 44 40 19
48 49 37 44 43 47 50 42 37 37 36 39 44 46 46 46 44 42 45 46 49 44 48 50 54 43 42 41 39 38 41 45 46 46 46 43 42 41 39 38 34 38 43 56
54 39 40 39 40 45 43 43 48 49 50 51 51 46 43 45 46 50 48 44 49 49 39 41 46 40 41 47 47 48 51 49 45 42 42 42 41 42 39 37 50 50 49 42
52 50 42 46 52 39 48 46 44 42 39 41 41 41 42 45 51 51 46 51 43 40 52 40 43 44 49 41 50 46 50 49 35 37 38 38 39 50 37 45 55 53 54 57
39 39 40 38 41 46 52 55 45 47 49 53 52 48 53 50 35 46 46 40 35 34 31 26 32 41 39 44 49 39 43 48 44 46 45 46 40 51 51 48 57 55 56 51

GFSCGP_500_spd_012.txt.gz
Wind_Speed
31 33 25 24 22 22 18 15 18 15 17 13 7 3 3 6 4 4 2 3 4 3 2 4 6 6 5 7 8 8 7 6 5 3 2 1 2 4 5 6 7 8 8 9
34 27 31 34 31 24 18 21 24 17 13 11 9 6 2 2 2 8 1 1 3 2 3 6 5 5 6 7 8 9 9 9 7 5 5 4 5 6 7 9 10 11 12 13
32 27 39 40 35 28 21 18 26 18 15 13 12 12 4 3 2 3 6 6 3 5 7 10 9 7 9 10 10 9 9 9 8 7 8 7 8 10 11 13 14 15 17 16
38 38 45 42 40 34 26 14 23 24 21 19 16 14 10 6 6 2 3 5 4 2 3 4 11 12 12 12 12 11 11 11 11 10 10 12 14 15 17 19 20 19 21 21
43 42 47 44 39 34 25 18 23 26 27 27 25 24 13 14 12 5 2 7 10 8 6 8 9 16 17 15 14 15 16 16 15 15 16 17 21 23 25 24 22 22 24 25
52 49 53 48 41 39 29 33 31 34 36 38 25 24 16 17 7 8 5 7 8 12 13 16 14 13 18 18 17 19 20 21 17 18 21 22 24 27 23 20 20 22 25 26
59 55 54 55 51 48 41 41 44 43 44 43 30 29 12 11 10 4 4 9 10 11 13 12 10 12 17 17 18 19 22 26 24 22 20 18 19 19 20 19 20 21 24 25
63 62 57 57 58 53 46 42 45 48 45 42 38 34 15 10 9 6 7 10 13 7 12 8 7 11 21 25 23 23 22 11 12 14 15 15 16 16 17 18 19 24 26 28
61 62 62 60 57 56 53 50 46 49 48 46 45 42 32 19 16 15 13 15 13 13 18 10 10 11 14 17 18 14 10 11 14 17 17 18 19 19 21 23 23 22 24 27
55 56 62 64 61 62 59 53 52 55 54 52 50 44 34 24 19 22 20 17 19 16 18 11 5 10 10 12 6 6 10 15 19 20 22 21 22 25 26 28 27 25 25 25
50 57 57 59 64 61 66 65 60 58 57 54 51 47 37 30 30 27 20 21 19 18 15 8 10 7 7 9 4 3 5 10 15 17 19 22 29 26 28 30 30 31 28 27
48 49 58 58 56 61 63 67 61 62 60 58 54 47 39 28 25 22 27 28 22 18 15 10 10 13 9 7 4 7 13 15 17 22 23 26 28 31 28 31 31 31 30 31
47 55 53 55 55 58 65 67 65 64 61 62 57 48 35 28 25 27 30 28 24 18 14 12 11 5 5 11 9 12 15 14 19 26 28 30 32 32 31 33 34 31 35 35
41 51 54 61 57 56 63 67 69 65 64 60 58 45 34 25 28 32 30 25 23 19 18 14 13 15 5 8 15 11 15 21 23 28 31 32 35 37 39 35 37 36 36 40
37 41 43 48 47 50 56 60 64 61 60 62 47 45 31 23 25 23 19 24 23 23 20 20 15 14 14 16 13 13 17 23 26 27 33 37 41 42 46 47 46 31 36 42
41 40 37 42 44 46 54 57 62 63 63 58 46 35 23 18 19 23 21 24 25 23 18 17 15 16 18 22 18 17 23 27 29 28 33 38 42 44 47 41 49 41 31 33
41 39 37 38 34 44 55 55 57 56 55 49 41 28 22 21 24 27 26 26 22 23 21 15 15 18 25 28 28 28 31 34 33 33 34 39 43 43 45 48 56 40 36 27
39 37 32 33 31 40 49 51 54 52 50 45 43 33 26 25 30 28 28 27 21 21 21 21 22 24 27 31 33 33 35 38 39 39 39 43 41 47 42 42 51 42 43 40
39 37 32 38 38 33 41 50 56 54 44 42 41 39 32 36 38 36 36 30 23 24 24 22 27 33 34 35 38 39 39 43 44 46 48 38 40 43 44 39 45 47 45 44
44 39 34 33 37 36 39 47 57 53 43 37 39 40 41 40 41 37 35 30 30 30 33 34 37 38 40 40 42 44 45 48 51 56 51 50 44 42 40 42 44 48 49 41
46 33 32 32 37 33 34 42 51 46 50 37 27 32 36 41 48 42 39 34 31 31 37 41 41 43 46 45 46 48 46 50 52 48 44 44 44 42 43 43 46 48 39 37
37 43 30 32 35 35 32 34 35 37 55 37 34 38 39 40 42 46 49 35 39 36 42 42 44 49 51 51 51 52 44 45 43 47 48 50 49 46 44 47 49 48 43 35
59 33 34 31 38 34 34 33 32 35 37 38 40 41 36 31 33 33 36 36 34 36 41 45 47 43 52 51 52 49 45 49 48 52 50 51 50 45 40 40 41 46 35 37
25 40 25 25 28 35 37 40 38 34 36 38 40 40 42 35 35 35 35 36 35 35 39 47 52 54 46 49 52 45 51 49 53 54 50 48 47 43 35 39 39 32 44 49
29 30 35 35 27 35 34 39 41 45 42 39 36 37 37 39 38 36 37 37 38 40 41 48 57 55 53 44 41 50 56 53 50 51 45 41 49 37 38 44 42 42 53 48
28 29 35 38 40 35 41 44 33 39 42 43 40 39 38 39 39 39 41 42 43 45 52 46 35 49 48 40 38 38 38 39 44 47 46 45 46 44 45 45 48 51 51 49

GFSCGP_500_spd_015.txt.gz
Wind_Speed
30 29 20 17 16 21 17 20 19 18 17 17 15 14 12 10 9 1 2 4 5 4 3 2 1 4 7 9 9 10 10 9 7 6 5 4 4 4 4 5 6 7 8 8
36 27 27 29 27 25 23 23 25 23 22 18 18 16 13 10 7 6 0 0 3 4 2 2 3 4 7 10 10 10 9 9 9 8 7 6 6 6 7 8 9 10 11 11
39 31 35 36 31 27 25 22 30 24 25 21 18 17 13 12 10 7 3 1 2 4 6 7 7 8 8 10 11 11 11 11 11 11 10 9 9 10 11 12 13 15 15 15
45 38 41 39 37 29 21 19 30 30 28 22 21 17 15 12 11 9 6 5 3 6 8 7 11 12 13 13 13 13 13 14 14 13 12 13 14 14 16 18 21 21 18 16
49 42 45 46 39 34 25 23 24 29 31 30 28 26 21 19 17 13 8 3 1 6 8 8 10 12 15 17 17 16 16 17 16 16 16 17 18 20 21 20 18 17 16 16
53 50 50 47 46 41 37 32 29 32 36 41 33 31 24 17 13 16 12 8 6 7 8 10 14 17 15 19 20 20 20 19 19 19 19 21 21 18 17 17 17 17 17 17
57 55 56 52 55 54 47 43 40 38 42 44 32 32 15 13 13 16 17 13 12 13 12 9 9 13 16 18 22 24 23 21 19 22 24 18 14 15 16 18 17 18 19 21
57 60 56 63 57 55 53 48 48 44 42 36 33 33 15 13 17 19 17 18 21 15 12 11 13 12 11 19 23 23 23 20 21 13 12 13 15 16 16 17 19 21 22 24
60 61 62 65 61 57 58 57 46 45 43 40 40 37 29 18 22 21 16 15 15 13 11 14 17 18 9 10 15 22 22 13 11 11 12 16 17 20 21 21 25 28 26 22
56 58 67 66 67 64 62 55 54 54 53 53 50 44 37 22 23 23 20 20 16 15 17 20 17 14 9 9 9 9 8 7 3 5 8 10 13 15 22 19 27 28 29 26
53 59 61 75 75 70 68 68 64 59 57 54 53 50 36 28 21 19 22 24 20 18 20 19 15 13 9 8 4 4 3 2 4 6 10 15 20 23 25 28 27 28 30 30
48 51 59 65 76 78 72 70 66 64 60 59 57 51 43 33 29 22 23 25 24 20 22 20 17 14 14 9 5 4 2 5 6 10 15 18 21 23 25 22 34 37 27 36
44 51 54 60 65 76 79 77 71 71 66 67 62 56 49 39 34 23 22 22 23 24 25 20 19 15 12 9 7 8 8 9 12 12 16 19 22 27 24 35 41 32 39 36
44 50 55 57 63 63 72 77 80 78 75 73 69 60 51 41 38 26 26 26 22 28 30 19 16 17 18 13 10 12 9 12 14 17 20 23 26 30 35 38 49 41 53 49
43 49 48 51 53 59 63 66 70 74 73 74 66 59 46 42 43 38 33 29 29 30 28 22 23 24 20 20 15 12 12 13 16 18 24 26 30 33 36 40 47 48 52 45
43 46 46 46 42 50 56 61 61 66 67 71 62 58 49 44 39 33 33 25 28 30 29 24 25 25 24 23 22 14 14 17 19 21 25 28 32 35 39 44 44 44 50 60
48 45 46 44 36 37 50 56 58 62 63 64 63 53 48 43 29 30 27 20 23 22 23 25 25 23 20 18 20 20 22 22 25 27 28 31 34 38 42 48 44 42 46 38
51 50 46 42 42 45 40 49 56 59 59 60 59 53 48 33 31 33 28 20 27 26 25 21 25 26 23 27 27 24 26 29 32 32 34 37 39 43 46 48 48 48 44 44
56 54 51 44 41 41 40 44 46 57 60 58 56 51 48 34 33 33 30 26 31 29 27 30 30 33 36 33 29 26 32 36 38 39 40 41 41 44 47 49 47 44 45 48
57 57 51 47 35 34 41 32 28 42 52 52 48 45 43 39 39 37 34 30 32 34 33 36 38 38 36 35 36 37 39 40 44 48 48 47 47 48 37 44 47 51 48 45
53 56 53 44 37 32 38 28 23 33 45 46 42 40 41 37 41 37 36 35 37 37 36 40 40 39 35 38 41 44 45 48 50 53 51 50 50 45 43 40 46 53 51 46
39 43 44 39 40 33 32 30 27 25 36 38 40 42 37 34 38 41 39 40 41 42 42 37 41 37 37 44 44 45 49 52 57 62 53 57 52 46 45 43 48 52 48 44
34 32 31 35 39 34 34 30 26 27 30 34 43 45 38 33 33 31 34 35 36 33 35 39 38 38 41 45 46 49 53 57 57 54 56 53 54 52 49 49 54 34 33 35
33 29 33 36 16 38 37 33 31 32 32 38 41 37 44 42 43 38 38 39 40 41 39 37 40 42 49 52 52 57 57 56 54 56 46 47 53 54 51 50 42 40 37 40
27 27 25 24 41 17 31 33 34 34 35 38 42 37 39 42 51 39 40 42 41 40 43 43 41 43 42 49 49 52 55 49 43 41 49 55 55 49 45 44 44 44 41 44
27 26 23 19 35 23 34 34 35 36 38 42 42 42 42 41 37 38 41 43 42 42 45 43 41 42 45 43 47 46 48 43 47 48 47 50 50 47 46 49 47 45 45 46

GFSCGP_500_spd_018.txt.gz
Wind_Speed
32 32 29 26 32 27 21 20 19 22 21 19 18 15 13 12 10 9 8 9 9 9 8 7 7 8 10 11 11 11 10 9 9 7 7 7 5 5 4 3 4 7 8 10
37 31 32 35 30 28 27 25 22 22 25 23 20 18 16 14 11 11 9 6 6 7 8 7 6 7 9 10 11 11 11 11 12 11 10 8 7 7 7 7 7 9 11 13
38 33 37 39 35 34 32 29 27 26 26 26 25 25 21 18 16 13 12 10 7 7 7 6 7 8 9 10 11 12 13 14 14 13 11 11 11 10 10 11 12 14 17 19
43 42 41 38 37 34 35 29 29 27 31 30 28 19 21 20 17 14 12 10 8 9 10 9 11 13 13 13 13 13 14 14 14 12 12 13 14 14 15 16 18 20 19 16
44 44 41 43 39 37 33 34 35 32 35 28 31 29 22 26 21 16 13 13 10 10 10 11 11 11 12 14 14 15 16 17 15 14 15 16 17 18 19 21 19 16 15 14
43 46 48 45 44 41 36 37 40 36 33 38 33 31 25 23 17 19 19 17 12 10 9 11 12 15 17 16 17 18 19 19 17 17 19 21 21 21 21 17 16 14 14 14
40 47 49 50 51 50 46 43 37 37 39 37 34 39 33 25 20 19 20 20 18 18 17 13 10 8 8 19 21 21 22 22 20 21 21 22 21 18 17 18 16 16 16 17
38 46 49 53 55 52 49 47 40 39 34 34 36 38 33 27 27 24 26 25 23 22 18 11 11 10 8 12 13 18 18 21 20 20 21 16 15 16 17 18 19 19 20 22
39 43 46 56 57 59 55 57 43 33 34 34 30 37 34 28 27 26 26 28 26 25 14 11 11 10 13 14 14 15 19 23 23 22 14 15 14 13 14 16 19 20 21 23
39 41 48 53 59 61 64 53 54 46 43 40 35 33 28 29 25 27 28 25 20 17 17 16 15 15 14 12 14 13 11 11 14 10 10 7 7 9 11 17 14 19 26 19
34 38 37 52 60 61 65 70 63 47 46 41 37 34 30 27 29 25 24 25 24 22 21 19 19 20 16 13 9 10 11 11 10 9 7 8 10 10 12 14 18 28 26 33
35 35 41 46 54 60 59 70 68 65 58 48 45 37 27 30 29 27 28 21 24 28 25 22 22 22 20 14 11 9 11 9 10 10 9 8 10 13 16 20 24 25 30 35
33 38 32 40 37 57 63 57 62 62 58 54 50 45 35 36 33 25 22 20 21 26 32 27 25 21 23 20 17 16 15 12 13 11 12 13 15 20 25 27 30 31 33 40
42 36 40 34 38 39 56 67 70 56 61 58 58 40 37 38 46 37 29 24 21 19 31 32 24 21 23 19 17 17 18 16 16 15 17 16 19 22 27 30 31 34 38 41
44 43 42 40 37 31 37 44 65 76 75 65 55 53 50 47 45 37 34 31 26 20 25 25 26 25 23 20 22 23 21 22 23 24 20 18 20 23 27 29 34 35 39 43
45 44 40 40 37 38 38 38 43 55 69 78 78 73 51 53 55 46 35 35 32 26 28 28 27 28 27 28 26 26 27 27 29 25 22 24 24 27 30 32 37 41 42 44
49 45 45 41 28 33 39 42 44 47 58 63 70 70 67 69 58 45 38 36 31 28 32 35 31 32 30 32 29 31 32 32 25 25 26 27 29 31 34 37 41 42 48 46
52 50 49 40 33 34 34 32 35 38 42 54 60 58 60 58 53 52 42 38 32 32 31 37 36 36 31 32 31 33 33 23 28 28 27 30 35 37 39 39 43 47 45 42
52 51 47 42 39 31 35 35 39 38 42 44 51 53 54 50 51 50 41 37 36 36 33 35 35 31 31 34 36 38 32 27 29 32 31 35 37 42 45 47 47 46 45 48
54 53 52 43 40 39 37 39 36 34 40 38 41 46 49 50 53 42 41 42 38 38 37 35 33 33 35 39 40 39 39 37 36 37 37 41 45 49 50 46 45 50 47 47
56 54 54 44 39 40 44 41 34 33 30 33 37 38 42 48 46 43 42 46 41 40 40 38 37 34 34 39 41 42 44 39 41 43 43 47 49 56 62 57 54 48 46 45
52 49 49 46 44 44 41 36 31 29 30 27 27 32 37 41 40 38 45 46 41 41 40 38 35 36 38 40 44 45 45 37 41 44 48 51 56 54 55 57 54 45 46 45
46 45 38 46 43 50 46 41 38 33 33 27 26 25 29 33 32 33 47 43 41 42 42 38 39 41 40 42 44 53 42 41 45 50 53 56 62 72 54 45 49 51 50 46
47 43 44 35 38 37 41 37 36 33 36 32 30 29 31 38 31 33 39 39 41 43 42 41 42 44 46 47 42 36 40 46 47 51 57 58 60 64 57 51 54 53 45 42
47 38 35 37 30 31 36 35 42 38 39 33 35 37 37 40 38 38 39 41 40 41 41 40 41 43 46 45 44 44 47 49 46 51 50 53 54 53 56 54 53 50 50 48
36 34 29 32 25 25 31 35 43 43 38 35 35 41 44 42 40 39 43 51 49 39 44 46 44 45 45 46 48 46 44 48 50 51 48 49 49 52 51 49 53 51 50 50

GFSCGP_500_spd_021.txt.gz
Wind_Speed
31 34 31 31 32 27 20 18 18 19 26 24 21 18 16 13 11 11 11 10 10 10 9 9 9 10 10 10 11 10 9 9 9 8 7 7 5 4 4 4 5 7 7 7
37 35 32 35 35 34 26 24 21 17 26 21 20 18 19 17 14 14 13 11 10 9 9 9 9 11 12 12 11 11 11 11 10 9 9 9 8 8 7 8 8 9 11 13
34 31 33 38 39 39 32 27 23 22 25 27 22 20 22 23 19 17 16 14 12 12 10 9 9 10 11 12 12 12 11 12 11 11 10 10 10 11 12 12 13 14 16 18
30 35 38 39 43 41 35 31 26 25 37 25 27 21 28 25 21 19 17 15 13 12 13 13 12 12 12 13 12 11 12 12 11 11 12 12 13 14 15 16 18 19 20 17
25 33 38 42 37 43 36 29 30 27 29 23 28 26 22 23 22 23 17 15 14 15 16 16 16 16 14 14 14 14 13 14 14 13 14 14 16 17 19 21 22 20 17 16
27 29 38 42 42 43 37 32 32 31 32 38 30 33 25 28 23 24 21 20 20 19 19 19 17 16 16 16 15 15 16 17 16 15 16 17 19 22 24 24 19 16 16 15
26 29 32 42 44 43 44 38 38 36 39 39 29 40 26 26 27 23 19 20 25 22 23 22 20 16 13 13 19 19 18 20 20 18 18 20 21 23 22 18 17 17 18 17
32 33 32 36 43 46 49 47 44 43 35 33 31 37 36 30 25 17 19 18 21 30 26 21 14 14 11 7 8 11 17 19 19 20 20 20 22 19 16 17 19 19 17 16
36 35 32 33 39 47 47 54 42 36 32 32 31 32 34 31 31 34 33 24 25 32 28 22 14 12 11 10 11 13 16 18 21 20 21 20 17 17 18 15 13 14 15 14
37 29 32 33 38 45 52 42 48 48 45 41 36 33 30 35 40 31 31 28 27 26 28 24 18 15 13 12 12 12 17 17 18 22 19 16 13 12 12 12 13 11 16 16
41 38 29 32 40 40 51 57 47 45 47 45 39 35 32 30 29 26 32 26 22 21 25 20 19 19 16 16 13 11 16 18 13 14 14 13 14 13 14 10 11 16 17 20
42 41 38 35 34 35 42 49 50 50 50 49 44 39 30 30 30 23 22 19 20 21 22 27 24 24 21 17 16 13 15 17 16 17 15 15 15 14 14 14 17 23 21 22
40 45 35 35 30 39 44 46 49 51 43 51 50 46 33 25 26 27 29 29 31 22 29 27 32 28 25 19 19 18 18 17 17 17 17 18 17 18 19 22 22 21 24 29
45 38 46 39 37 28 33 38 45 46 58 52 51 42 38 39 31 33 37 29 29 31 31 33 34 35 31 23 19 23 22 26 24 22 22 19 19 21 23 23 21 24 29 28
49 48 40 43 32 28 32 35 37 48 51 53 48 46 46 39 39 36 34 31 32 32 31 25 25 35 31 27 25 22 23 29 26 25 21 22 23 22 19 22 24 27 31 36
50 49 45 40 32 34 33 33 35 36 47 50 48 49 44 44 38 34 41 47 33 32 27 27 27 29 35 29 28 25 24 25 28 25 25 25 21 23 23 24 28 31 36 39
52 47 48 49 36 31 37 41 38 37 36 38 50 57 48 47 47 47 51 47 44 34 32 32 30 28 32 30 31 30 28 27 28 27 25 26 25 25 24 27 31 35 39 41
46 53 44 39 32 39 40 29 34 37 38 37 39 38 42 53 61 55 49 50 51 43 35 35 35 31 36 34 33 32 33 31 30 26 26 25 25 27 29 32 36 39 43 49
51 45 42 39 37 30 34 27 34 35 38 36 37 37 40 39 39 46 57 55 56 48 40 37 43 34 39 41 38 36 35 36 35 28 29 24 26 31 33 36 41 44 47 53
59 52 43 37 40 38 33 42 34 34 41 38 36 34 35 35 40 50 45 44 46 50 40 43 47 39 38 42 43 38 37 37 36 35 33 36 36 38 39 41 44 47 51 53
59 59 56 42 36 40 42 43 41 43 33 36 34 34 35 38 40 34 29 35 47 45 38 46 48 44 40 42 45 37 37 37 38 38 41 40 40 42 43 47 50 54 56 57
57 59 56 46 42 36 41 42 41 37 39 34 26 26 27 27 32 32 43 47 40 38 41 46 48 46 42 43 41 37 33 37 40 44 47 45 46 40 47 45 49 54 56 57
52 55 46 35 38 45 49 44 39 36 34 27 26 28 27 32 37 46 47 41 35 38 45 49 50 46 45 43 42 40 37 39 43 48 51 55 43 42 46 46 49 51 54 56
42 40 42 44 48 52 47 52 30 36 36 37 30 30 33 34 36 34 33 34 36 39 45 48 47 46 44 48 41 40 43 47 50 51 55 50 45 44 46 49 53 53 54 55
48 51 44 56 51 51 49 36 37 32 34 36 32 37 35 35 32 33 36 35 34 34 41 46 46 43 43 45 44 46 48 50 50 51 47 47 47 46 51 54 55 54 53 53
53 47 49 29 56 51 42 37 33 32 34 32 32 34 31 35 36 32 38 36 36 38 38 41 44 46 48 45 46 50 50 49 49 47 48 48 52 53 54 57 58 58 57 59

GFSCGP_500_spd_024.txt.gz
Wind_Speed
29 31 28 30 32 26 18 18 14 18 28 18 20 23 17 5 7 11 10 10 10 10 11 10 9 9 9 8 7 7 6 6 6 4 4 4 4 4 3 3 4 6 6 7
33 34 25 27 33 32 26 25 24 22 25 18 19 22 24 10 13 14 14 12 11 10 9 9 8 8 9 8 8 8 8 9 7 7 6 6 6 7 7 7 8 8 10 12
22 26 29 31 33 34 33 32 24 23 15 22 17 18 16 26 22 19 17 15 15 14 13 12 10 10 8 8 10 10 9 9 8 8 7 7 8 8 8 10 11 13 15 16
17 23 33 35 34 31 32 30 27 22 22 31 24 25 24 23 24 15 18 17 16 15 14 13 12 12 13 12 11 11 11 11 10 9 10 9 9 10 12 13 15 17 19 18
16 20 28 37 35 32 29 31 30 26 26 30 35 31 25 29 32 28 17 18 17 17 16 15 15 16 16 16 15 14 14 13 12 12 12 11 11 13 15 17 19 19 18 15
21 21 24 29 36 37 33 32 33 31 29 38 30 32 24 32 27 25 31 17 19 18 16 17 19 20 20 20 18 17 17 17 15 15 14 15 16 15 18 21 21 18 12 12
22 23 23 27 36 37 40 38 36 38 38 38 26 35 30 29 32 28 35 31 16 20 22 17 18 20 20 20 20 19 19 19 19 18 18 18 17 18 19 20 14 12 12 11
31 31 27 27 30 38 42 41 47 41 39 34 32 38 41 31 29 37 11 7 19 21 20 24 17 18 15 13 12 13 15 21 20 19 19 20 20 19 19 16 14 12 9 8
35 34 29 28 29 37 36 46 41 39 34 35 32 32 28 38 28 42 16 30 29 24 26 28 20 18 16 11 13 13 13 14 15 20 22 20 20 19 15 13 8 9 8 10
36 33 32 32 32 35 39 33 44 46 46 45 38 34 36 30 36 30 30 25 20 18 27 32 22 16 17 12 11 13 12 13 16 16 21 23 20 18 13 7 9 7 8 10
42 39 31 31 43 37 41 44 46 40 50 49 44 41 28 29 33 31 38 44 25 34 36 35 26 20 20 18 13 12 12 15 15 15 15 18 18 14 9 7 9 10 13 15
46 45 45 38 33 34 38 40 46 52 49 51 46 44 26 33 29 37 37 35 31 38 28 29 29 23 20 17 16 13 13 14 15 16 15 15 15 11 11 11 11 18 19 13
40 49 45 45 39 36 44 42 41 52 49 47 52 53 36 38 34 25 24 22 21 23 23 27 30 33 20 20 17 14 16 16 16 14 12 12 10 11 13 14 16 15 14 18
41 44 53 55 51 37 39 43 43 40 50 55 51 47 48 37 41 33 28 27 30 37 21 25 28 30 28 20 20 21 18 19 18 19 15 14 14 13 13 16 15 14 13 18
53 56 50 49 38 33 34 38 39 42 47 50 55 45 41 50 36 31 33 24 39 44 36 35 34 32 38 38 27 27 25 21 19 18 17 14 16 15 14 15 16 16 18 21
57 60 54 44 44 42 34 38 36 40 42 52 50 50 42 39 50 39 32 40 35 33 42 48 44 38 33 38 34 26 28 25 22 19 21 20 19 17 16 18 18 18 20 25
55 59 57 58 45 38 42 43 36 37 35 36 47 56 49 53 49 49 46 43 28 35 43 46 47 43 33 37 34 30 31 30 28 23 20 20 19 16 18 19 18 21 25 28
45 47 59 52 38 45 48 41 38 35 34 31 30 33 53 53 59 55 55 47 51 40 44 48 47 38 37 36 37 31 33 32 29 27 24 21 19 17 19 20 19 24 29 32
45 48 55 48 45 51 45 38 34 35 45 41 37 33 30 29 39 69 58 61 58 59 41 47 50 44 37 34 40 36 37 36 33 30 28 24 22 22 25 25 27 29 33 37
42 43 42 49 43 47 42 33 34 46 44 36 44 46 48 43 43 42 52 70 65 58 56 60 61 49 50 45 42 45 39 38 36 33 32 30 27 28 29 31 33 36 39 41
54 48 51 45 53 42 34 39 45 41 43 42 44 46 47 50 52 50 41 38 53 68 69 69 66 57 44 48 44 44 42 38 37 36 33 32 29 30 32 35 37 44 35 36
60 56 51 42 38 35 42 43 49 46 48 46 40 43 40 44 46 48 51 47 44 46 53 66 67 52 45 52 41 43 41 39 40 38 34 31 32 34 38 40 46 53 32 42
62 61 50 45 44 44 42 52 50 50 45 40 41 41 40 39 40 38 43 51 55 46 44 51 54 53 48 50 45 45 42 40 40 38 37 38 37 40 41 48 55 36 39 43
56 53 55 45 46 49 43 45 46 52 37 46 47 44 40 38 43 47 45 48 49 50 52 50 51 46 54 49 46 46 43 44 43 41 38 39 43 45 47 50 51 44 45 47
49 49 42 42 41 49 51 57 53 43 44 41 42 38 37 38 45 46 41 38 41 41 56 52 46 44 47 48 46 47 45 44 42 41 45 48 51 50 51 47 49 46 51 52
47 47 45 48 55 57 59 55 54 50 48 45 36 32 36 44 36 41 40 36 35 39 38 43 48 45 44 44 47 43 42 45 49 47 48 53 52 50 50 52 49 48 52 56

GFSCGP_500_spd_027.txt.gz
Wind_Speed
30 31 23 20 20 20 23 24 17 10 20 24 22 16 15 11 14 10 9 4 5 6 8 10 10 10 9 8 7 7 7 6 4 4 4 4 5 5 3 1 2 3 5 6
22 24 24 23 23 24 27 24 19 17 27 24 20 19 18 16 18 17 9 6 6 7 8 9 9 9 9 7 7 7 7 6 6 6 5 5 6 5 4 3 4 6 8 10
15 12 26 28 29 26 27 25 22 25 31 24 27 19 14 17 16 19 9 5 7 10 10 11 11 11 10 9 9 7 7 7 7 7 7 7 7 6 6 5 5 8 11 13
18 19 25 30 32 29 27 24 23 30 21 29 22 20 24 21 14 12 12 6 7 9 10 9 9 9 9 9 8 9 9 10 8 9 9 9 9 8 6 8 9 10 12 13
12 21 21 24 29 33 18 31 30 33 26 33 24 35 33 26 29 20 18 18 9 9 11 9 10 11 10 11 12 12 12 12 12 11 12 11 13 12 10 10 12 14 12 10
22 22 23 20 26 33 25 31 38 37 31 35 29 32 25 35 25 26 21 27 21 12 10 10 8 12 14 15 17 17 18 17 16 16 16 16 16 16 14 12 12 11 5 7
25 29 25 26 27 29 35 36 41 45 46 46 35 36 25 23 22 26 26 24 23 16 9 14 13 10 17 18 17 17 20 20 18 16 17 19 19 18 16 13 10 6 4 5
33 34 28 24 27 29 31 42 45 52 52 45 40 45 30 17 17 23 27 27 24 24 22 12 9 8 11 15 16 14 16 18 23 23 22 22 20 20 17 13 6 2 2 1
36 36 29 32 27 32 32 38 37 45 45 50 46 42 26 22 26 25 30 35 27 41 43 18 11 11 14 17 16 15 12 12 14 17 22 22 21 20 15 9 3 1 2 4
39 40 34 33 33 35 37 32 33 45 49 53 44 46 31 22 28 32 36 36 31 26 42 23 11 11 13 20 20 16 10 12 11 12 14 17 21 19 12 5 4 3 1 6
41 43 40 40 44 40 38 40 43 37 46 49 47 50 33 33 28 28 34 27 32 30 27 30 17 25 24 23 24 14 10 12 11 9 9 12 15 13 9 5 4 6 4 7
42 42 48 48 45 40 41 41 42 47 44 50 52 46 34 30 23 28 26 29 31 32 28 20 22 28 20 22 18 14 12 12 13 11 9 7 6 6 7 6 7 5 8 4
37 50 48 51 50 50 48 42 44 44 45 48 48 42 37 37 38 41 38 38 29 24 20 27 31 33 22 23 20 18 15 13 16 13 10 5 5 5 6 7 8 9 7 8
52 52 57 61 57 50 50 46 44 43 48 48 50 42 36 44 41 39 34 37 27 12 30 36 41 34 31 24 24 22 20 16 18 16 13 8 7 7 7 8 10 9 9 10
62 59 61 59 50 54 52 44 43 46 47 48 43 50 42 47 49 46 37 30 28 29 31 36 40 40 37 30 24 21 17 20 23 21 15 11 14 12 10 9 13 11 8 11
71 67 57 56 56 50 59 48 44 44 41 43 42 46 50 43 40 40 45 41 28 31 32 38 39 46 35 34 36 33 30 24 26 25 19 16 17 17 13 14 15 13 13 13
72 67 57 61 55 50 49 64 52 41 39 38 45 40 41 54 50 33 30 42 44 42 39 36 38 42 40 40 42 44 38 28 29 28 24 22 17 19 19 17 17 12 14 15
68 69 63 64 61 60 64 55 54 48 39 38 38 36 34 48 54 50 47 45 51 48 45 44 42 39 39 46 46 46 45 35 28 31 29 28 22 18 19 19 19 17 16 17
63 58 60 52 69 65 60 59 53 48 44 45 41 33 30 35 54 59 57 54 51 54 43 38 47 37 39 45 47 52 43 38 33 32 33 31 25 20 21 20 22 24 23 23
61 55 56 47 62 67 64 54 51 46 45 46 44 42 42 43 45 64 65 64 59 56 50 59 51 45 47 40 43 45 41 39 37 35 34 35 31 27 22 23 26 23 24 26
57 48 49 50 58 63 63 54 46 45 56 56 54 51 49 48 48 45 55 71 68 66 61 57 53 60 55 46 52 50 43 39 36 40 39 40 37 33 27 27 27 25 28 31
65 58 38 38 50 56 58 54 52 52 55 51 50 51 54 55 54 52 49 43 52 73 74 73 67 59 59 63 63 62 54 46 43 44 43 43 43 39 32 31 29 31 30 38
63 55 47 35 45 59 48 53 53 65 59 58 51 48 48 50 45 46 47 44 47 49 56 71 77 77 68 64 64 71 70 64 52 45 44 43 45 42 34 33 36 32 34 44
61 44 52 46 57 59 57 53 64 60 56 54 53 48 47 50 40 40 42 45 46 50 55 56 55 53 53 70 68 66 71 68 50 47 47 46 45 40 36 40 36 36 41 46
65 44 47 47 50 50 58 53 58 52 50 51 49 46 41 46 46 45 44 44 49 47 45 45 52 53 51 47 52 64 68 65 51 45 47 47 44 41 42 39 42 41 46 49
53 61 51 45 52 40 42 56 53 55 64 42 39 42 45 46 47 46 47 51 46 45 46 45 53 54 55 53 48 49 59 58 52 50 47 46 50 45 42 41 46 46 52 50

GFSCGP_500_spd_030.txt.gz
Wind_Speed
26 28 25 20 19 21 22 20 21 20 22 17 18 24 13 15 14 6 3 4 3 6 7 10 12 14 15 13 12 9 8 8 7 8 7 6 8 6 5 2 2 1 4 5
17 15 22 25 23 21 28 24 23 22 17 24 27 19 18 13 7 2 1 5 7 6 5 8 10 11 12 13 11 10 7 6 5 3 4 5 6 5 5 4 2 2 4 6
16 11 21 26 27 24 28 28 26 24 26 22 20 26 24 16 11 4 1 3 9 7 8 9 10 13 12 11 11 10 10 7 5 5 6 6 7 7 7 7 6 6 7 8
18 18 21 24 30 29 26 24 28 34 30 28 32 34 26 21 15 6 8 2 9 9 8 5 6 8 9 10 8 8 8 8 7 7 7 8 8 8 8 8 7 8 10 11
13 20 22 22 21 30 19 31 33 35 33 32 35 34 28 29 19 12 8 8 7 8 8 5 4 3 5 5 7 7 6 6 8 10 10 10 10 10 11 10 8 10 13 10
22 25 23 21 24 25 25 32 38 39 36 45 38 37 26 33 20 13 9 10 12 8 10 10 10 9 7 7 9 12 13 13 12 11 13 14 14 13 13 13 11 12 10 7
28 28 26 25 26 27 29 36 43 47 53 50 40 41 25 24 21 13 11 7 11 11 11 13 10 11 9 9 13 17 19 18 17 15 15 17 17 16 15 14 13 12 8 6
34 34 29 25 25 27 31 38 45 53 53 49 46 50 32 20 17 17 9 11 10 7 12 16 15 15 14 15 14 17 18 17 17 19 18 20 19 19 17 16 13 12 7 6
36 38 30 33 29 30 30 40 38 46 49 49 49 52 38 30 22 18 13 16 16 8 10 19 25 21 12 11 10 12 16 13 12 14 17 21 23 21 17 15 13 12 8 8
39 42 36 35 37 39 38 31 38 45 49 56 49 50 41 35 25 18 19 21 23 17 14 22 16 24 9 3 7 12 14 14 12 11 14 16 18 18 17 14 15 11 12 5
42 46 40 42 49 42 41 42 42 41 40 45 45 42 42 35 30 23 25 24 24 22 17 18 19 28 21 9 10 13 13 12 10 11 11 9 13 14 16 16 16 14 10 4
56 50 53 51 46 46 46 46 43 45 44 42 37 31 31 38 37 34 23 21 20 18 21 18 18 15 21 12 10 13 15 14 12 13 10 9 9 9 18 20 17 13 7 6
63 63 60 56 55 56 59 50 47 44 43 45 43 34 22 37 43 39 31 27 26 34 32 21 30 19 20 12 13 15 16 13 15 15 12 11 7 10 16 20 16 15 12 11
70 68 68 65 59 55 57 55 54 51 52 47 45 41 23 35 47 43 38 25 27 33 33 31 32 26 25 20 16 19 20 19 18 15 12 10 11 11 13 16 16 16 16 14
74 74 77 73 67 55 57 56 55 55 52 53 39 44 33 28 49 48 43 29 28 37 33 38 34 27 29 28 23 22 24 26 21 17 19 13 15 16 18 16 17 18 17 18
76 79 79 80 73 66 59 59 58 57 52 53 49 45 38 33 44 53 45 34 31 26 32 39 35 30 30 31 30 26 22 24 18 20 22 23 19 21 19 17 20 19 19 20
76 79 80 79 75 67 51 68 66 62 56 53 52 43 38 37 39 54 58 46 28 36 39 44 34 32 32 34 33 33 27 32 28 28 29 26 26 22 20 23 23 23 22 23
81 79 80 81 74 68 73 63 67 64 59 57 55 42 39 37 36 45 53 48 37 31 28 35 35 41 39 33 36 38 36 37 35 29 31 29 29 26 24 24 25 25 26 26
81 73 69 77 72 68 73 67 60 67 62 49 53 53 41 34 27 40 52 58 43 41 44 44 38 45 40 44 42 37 43 38 38 32 31 32 31 31 28 25 24 26 28 31
82 72 65 58 70 63 66 64 60 58 62 53 53 52 46 33 36 43 41 56 61 57 58 51 46 45 46 41 49 45 41 41 42 40 34 33 32 34 33 30 27 28 33 34
88 74 63 44 63 68 65 59 50 50 61 63 54 50 46 39 39 39 41 45 58 63 61 61 60 57 49 45 46 42 44 45 46 33 33 35 36 37 36 36 36 33 35 37
75 79 67 61 56 55 61 69 58 52 52 61 58 56 49 47 48 45 40 38 39 56 64 63 58 54 51 51 52 56 48 48 47 46 43 40 37 42 44 43 42 41 41 45
58 76 77 60 45 58 51 44 52 53 52 58 59 61 56 52 47 45 44 42 40 39 46 66 64 63 63 54 53 54 58 59 57 58 55 51 48 48 47 50 50 49 49 50
48 66 73 48 52 42 72 50 36 49 58 55 59 59 55 52 52 52 51 52 48 46 42 42 47 52 58 66 73 70 67 66 66 57 58 59 61 65 61 51 57 57 58 58
38 53 71 53 46 54 66 59 49 54 62 60 61 59 62 58 56 52 51 53 52 46 46 45 46 47 49 53 57 58 58 63 64 66 69 68 60 56 58 56 60 60 70 57
35 28 67 46 31 58 41 51 54 54 58 60 63 63 59 59 61 58 53 47 44 43 43 45 42 42 44 47 52 58 60 65 57 55 59 59 69 60 56 61 62 66 62 26

GFSCGP_500_spd_033.txt.gz
Wind_Speed
19 25 25 24 21 22 21 22 18 24 23 15 14 14 0 8 6 3 5 5 5 9 8 13 14 15 15 13 12 10 9 9 10 9 9 9 10 10 7 5 5 3 2 1
15 10 16 28 27 24 26 22 20 25 25 22 20 13 8 8 7 6 3 2 4 7 10 11 14 12 12 14 12 10 10 9 9 9 8 9 9 8 7 6 4 3 3 5
16 12 17 22 27 27 26 26 21 26 30 31 23 22 12 9 11 9 11 5 4 5 8 10 11 13 15 12 10 10 10 10 9 9 10 9 8 8 7 6 5 5 5 8
20 20 20 20 24 27 28 22 29 33 35 36 30 27 21 13 13 13 18 14 7 4 7 7 8 8 11 14 14 11 9 8 8 9 9 9 8 8 8 7 7 6 8 11
15 21 21 22 13 23 20 30 33 37 41 40 38 37 30 23 15 14 13 14 12 6 6 11 12 10 11 11 13 13 11 7 6 7 7 8 9 8 8 8 9 9 12 14
25 27 26 22 22 21 21 32 36 42 43 50 37 38 26 19 15 20 8 8 8 6 4 9 14 15 14 14 13 12 11 10 10 9 8 10 11 11 10 10 11 13 15 14
28 28 29 26 25 25 29 39 43 50 54 48 37 42 22 20 18 19 14 11 10 10 7 9 8 13 14 13 13 12 10 11 13 14 13 13 13 13 13 12 13 15 15 12
37 34 31 29 26 26 27 37 46 49 52 44 41 40 19 22 22 25 16 17 13 10 9 12 9 9 14 15 16 15 15 12 12 15 17 16 15 14 14 15 16 17 16 15
41 37 32 34 32 34 30 39 34 45 48 49 46 35 33 30 29 26 22 19 15 11 9 7 11 10 17 15 14 7 8 7 8 11 17 19 20 19 18 19 18 18 16 14
48 45 37 36 41 43 40 31 38 46 49 50 44 34 26 28 30 28 25 27 21 17 12 8 11 14 14 19 14 7 7 8 10 10 10 13 17 19 20 20 21 19 17 15
56 55 46 44 50 43 42 44 42 42 46 46 42 29 27 27 29 32 24 23 21 20 14 12 9 13 14 20 13 10 9 9 10 9 9 10 12 14 17 20 22 18 18 18
61 59 56 54 48 45 48 47 48 49 41 37 36 37 29 30 30 32 33 32 29 21 17 18 14 16 19 26 19 17 13 11 12 12 10 11 12 12 14 20 22 20 21 20
67 65 60 59 56 57 59 55 51 46 44 46 42 36 22 20 29 38 36 33 31 28 26 25 24 26 23 25 21 21 18 16 16 14 12 12 12 13 13 19 24 23 23 20
74 72 68 65 62 59 60 59 57 53 55 45 43 37 21 22 27 33 39 38 32 36 32 30 28 29 25 22 23 21 19 22 19 16 13 10 10 13 12 17 23 24 24 23
80 78 76 72 69 67 64 63 59 58 56 54 40 42 32 24 28 31 36 45 46 43 42 39 29 25 29 28 26 22 21 22 22 21 18 9 12 13 17 16 19 20 23 21
85 84 82 79 75 71 72 69 64 60 56 55 49 49 37 28 33 37 37 45 50 50 48 45 39 28 28 29 33 30 26 23 25 25 19 15 14 15 17 19 24 25 26 27
88 89 86 85 80 77 76 71 67 66 60 56 55 46 41 37 36 39 39 40 47 50 50 45 41 36 28 21 25 34 31 29 28 23 25 21 19 20 20 21 24 25 25 28
89 89 89 90 83 84 73 67 68 71 67 61 58 52 49 42 39 37 43 42 45 51 54 49 47 39 37 31 28 31 33 29 28 27 31 30 26 24 26 27 25 24 30 30
87 88 89 90 87 86 81 77 68 67 69 67 63 57 55 43 44 43 43 45 49 58 57 53 51 48 47 39 30 33 38 36 35 34 37 34 32 30 27 32 31 28 27 33
98 86 86 87 90 88 85 79 76 69 72 64 65 61 56 53 54 47 40 41 47 51 56 51 52 46 49 41 33 37 41 44 37 43 38 37 36 34 34 31 38 36 34 32
83 91 92 90 90 92 84 80 76 71 75 60 62 60 47 59 57 43 45 43 45 49 48 45 45 47 47 41 40 40 45 46 40 46 43 42 38 39 35 34 37 43 41 40
68 68 94 90 82 85 74 65 64 61 67 69 59 62 54 50 49 46 42 40 39 40 47 52 48 46 46 47 48 46 46 47 44 38 36 44 44 40 40 38 39 43 48 46
56 55 68 78 84 71 60 54 57 43 49 56 60 58 58 51 46 43 37 33 33 34 32 37 57 56 54 55 55 55 52 49 48 53 50 44 46 46 48 48 56 49 51 53
38 53 54 47 60 70 52 50 56 46 40 46 48 50 46 55 51 45 42 42 40 39 38 36 35 44 60 64 62 62 60 54 46 47 48 47 51 55 59 54 56 57 60 55
33 38 44 46 56 61 56 50 57 62 57 54 51 53 47 47 56 58 52 45 44 43 44 40 39 39 41 44 51 55 55 50 50 56 58 58 60 65 63 64 67 66 66 67
28 32 34 39 58 67 50 62 55 57 62 64 61 53 56 55 55 58 59 59 54 52 49 48 47 48 46 51 48 52 54 55 57 57 63 69 68 65 66 67 70 73 72 74

GFSCGP_500_spd_036.txt.gz
Wind_Speed
14 16 13 20 19 18 22 25 25 19 20 13 13 14 15 14 9 9 9 5 4 5 9 12 16 18 18 15 11 10 11 12 12 13 13 11 10 10 9 7 6 4 2 1
14 4 11 21 24 21 24 23 25 24 23 20 18 20 16 11 14 10 4 5 7 7 10 11 13 12 13 16 13 10 10 10 12 12 11 11 8 7 7 6 4 4 3 5
17 12 16 19 22 25 22 18 22 25 30 29 24 22 20 13 15 16 14 11 13 11 10 13 12 14 15 12 11 11 10 10 10 11 9 9 10 10 9 7 6 5 5 7
21 20 21 18 17 22 24 19 27 28 33 35 31 29 22 18 17 18 16 16 16 15 13 12 12 12 13 13 13 10 9 10 9 9 10 10 9 10 9 10 9 7 6 8
19 20 20 20 12 18 18 26 26 33 35 36 39 32 23 24 20 17 21 20 20 18 15 14 16 16 16 12 11 12 12 12 11 11 11 11 12 13 12 12 9 9 8 11
30 27 29 23 23 21 21 31 33 37 41 46 37 34 24 27 16 19 20 17 15 20 19 15 15 16 15 14 14 12 12 12 11 12 12 13 14 12 13 13 11 10 9 12
30 30 29 28 27 25 27 35 41 43 47 40 34 39 15 19 15 24 22 19 13 13 17 17 13 12 13 13 13 14 13 12 13 14 15 16 17 15 15 13 12 10 11 13
38 38 33 31 26 25 26 34 42 38 37 34 39 29 13 18 24 26 23 22 24 24 17 13 10 7 5 6 6 8 12 14 15 17 18 20 19 17 16 13 13 12 12 14
45 43 38 37 34 33 33 34 30 41 40 39 40 28 28 23 25 29 25 25 28 24 20 14 17 11 4 8 12 8 9 10 13 15 17 17 20 19 18 17 16 16 15 15
50 47 42 36 41 41 38 32 38 43 43 38 35 28 20 19 22 26 25 26 26 23 23 21 19 17 11 10 15 14 11 10 13 13 12 13 18 21 22 22 20 20 19 18
54 52 49 48 49 40 40 42 43 42 42 37 34 24 21 16 19 27 25 30 30 30 26 23 19 20 14 13 20 19 13 12 10 13 12 12 13 16 19 20 23 24 24 21
60 60 56 54 49 45 43 45 46 47 37 34 33 26 20 14 17 26 31 33 29 28 28 26 26 22 27 19 20 20 16 15 13 15 13 11 12 13 13 16 21 24 24 24
65 65 62 58 57 57 57 50 50 46 45 45 41 25 23 14 14 22 31 35 31 28 27 30 30 30 33 26 27 28 22 20 19 19 15 15 13 13 15 15 18 23 26 24
71 69 66 64 61 62 62 58 55 52 55 46 45 31 21 21 20 21 31 40 42 40 37 34 35 31 32 26 24 29 26 26 23 22 19 15 12 12 14 16 16 18 26 26
77 74 72 70 66 64 63 62 61 60 55 53 43 38 28 23 20 24 26 33 41 42 40 38 37 36 32 30 25 23 26 28 29 27 22 14 13 11 10 13 15 16 20 26
82 80 78 75 73 70 66 63 62 62 60 58 50 48 38 29 25 29 29 30 32 42 41 40 37 38 35 32 33 23 29 29 26 25 19 17 18 15 12 12 17 18 18 23
87 87 83 81 78 76 74 66 64 64 64 59 54 47 40 33 31 32 34 36 33 32 40 44 43 41 40 34 36 29 32 32 27 24 24 23 23 21 15 16 17 19 21 26
91 91 90 87 83 82 76 71 70 68 66 62 58 51 47 41 37 36 37 39 39 35 38 42 47 44 40 34 33 29 22 21 25 26 31 29 27 25 22 21 21 22 24 26
92 94 93 93 90 86 84 80 72 70 69 64 62 58 51 48 45 43 40 41 40 42 39 39 46 46 44 40 33 31 29 25 28 27 32 33 32 32 34 34 23 23 32 31
94 90 96 97 97 93 90 83 78 77 73 67 66 63 57 53 54 45 41 41 42 42 44 41 44 46 45 43 41 40 35 34 25 33 33 35 34 39 39 35 28 28 31 36
84 96 97 97 101 99 95 91 85 82 74 68 65 65 61 56 55 52 41 43 39 41 44 43 41 46 50 51 50 48 48 45 30 29 36 40 39 41 41 42 42 37 39 40
64 83 99 100 102 107 97 91 89 86 79 72 70 61 60 57 52 53 52 43 41 38 38 39 41 42 45 46 49 47 41 31 31 33 39 40 39 39 45 39 43 41 48 41
49 65 79 96 110 96 97 90 87 86 85 79 72 63 59 54 53 46 47 45 39 37 38 37 38 44 44 45 46 44 43 41 40 42 42 41 45 43 41 42 44 48 46 50
32 44 61 72 99 104 100 90 82 80 75 75 71 66 62 56 56 41 44 42 34 37 37 38 39 42 46 52 49 51 50 50 51 50 51 52 49 47 48 51 50 51 52 60
25 33 38 50 66 88 99 94 69 62 62 56 46 54 62 58 54 55 44 45 39 36 38 34 36 37 39 38 41 47 53 56 57 57 55 53 50 50 52 53 55 52 58 62
30 32 38 39 40 55 72 83 81 57 38 36 38 39 40 42 44 45 51 49 43 39 41 42 38 41 41 43 42 43 43 42 44 46 46 46 50 54 56 58 61 62 65 66

GFSCGP_500_spd_039.txt.gz
Wind_Speed
12 10 7 18 21 20 20 27 24 25 23 17 14 24 24 17 13 15 14 13 9 11 13 17 21 22 20 19 15 13 13 13 14 15 16 16 15 14 12 10 7 5 3 1
14 4 10 17 21 24 25 24 29 29 26 20 18 25 23 17 14 14 15 14 12 13 16 18 18 19 19 19 17 14 13 14 14 14 14 14 15 14 12 10 7 5 3 3
18 17 18 19 21 26 26 22 29 31 33 27 22 31 27 18 18 19 17 19 19 16 16 19 21 20 21 19 17 15 14 14 14 14 13 13 13 14 12 9 7 4 3 4
23 22 21 18 15 22 27 25 31 31 37 35 26 27 33 28 22 18 19 19 20 18 17 17 20 21 21 21 20 17 14 12 12 13 12 11 11 10 9 8 6 4 4 6
21 21 20 19 12 17 18 29 28 32 34 38 37 31 31 34 28 22 20 20 21 21 20 18 19 18 19 18 18 20 19 16 15 15 16 13 11 9 8 8 8 7 6 9
34 31 31 23 25 22 25 33 33 34 38 47 34 33 32 34 23 23 24 24 25 24 22 21 21 20 19 18 16 15 16 18 16 16 16 15 15 13 12 11 11 11 10 11
37 36 31 30 28 29 29 36 41 41 44 34 32 39 20 30 28 24 20 21 26 26 26 23 19 14 14 15 16 17 17 16 17 17 16 17 17 15 15 15 14 14 13 12
40 41 32 29 28 27 26 33 35 32 29 35 38 29 15 26 31 31 25 24 28 27 24 24 22 19 15 13 14 14 13 14 15 17 19 20 19 19 18 17 17 17 16 14
48 48 41 36 32 32 33 34 24 35 36 34 28 17 18 22 26 27 28 30 28 28 28 25 24 22 20 18 16 15 16 18 17 20 23 24 24 21 19 21 21 20 19 17
49 52 48 42 42 42 39 33 36 37 37 33 24 18 9 14 22 28 29 29 26 23 23 24 23 23 23 21 18 19 17 16 14 14 19 21 22 23 22 22 21 22 23 20
52 53 51 50 51 47 44 44 41 39 38 33 25 16 10 11 19 30 32 28 26 26 26 27 25 25 22 18 17 17 19 19 16 14 17 17 17 18 21 24 25 26 27 25
57 56 52 52 51 46 45 44 44 45 36 31 29 24 16 14 20 30 32 33 29 30 29 28 27 26 27 22 19 17 21 19 17 17 19 18 18 15 14 17 20 25 27 27
62 62 57 55 56 54 54 53 49 44 44 44 37 25 18 13 19 26 35 37 32 36 36 33 31 28 29 25 23 21 18 23 21 20 19 18 16 14 14 15 15 16 19 22
67 65 61 59 59 58 57 56 51 49 50 42 38 32 22 19 16 22 30 34 36 37 38 38 37 34 30 28 28 27 25 28 26 24 22 21 18 16 18 18 15 15 16 19
71 70 67 65 64 63 62 60 59 57 51 50 36 35 29 25 22 25 30 37 41 44 43 43 40 38 34 32 31 28 25 24 25 22 24 22 21 19 19 13 13 14 12 15
77 76 74 72 70 68 66 64 63 61 56 54 46 41 32 28 27 29 31 36 42 45 47 46 43 41 39 36 34 29 28 23 25 27 20 21 21 21 19 16 12 11 10 11
81 79 78 75 74 71 70 66 64 63 60 56 52 44 38 31 30 27 30 31 33 38 46 48 49 47 44 41 40 35 28 26 27 30 27 23 24 24 22 19 17 14 16 19
84 83 81 79 78 78 70 69 69 67 63 61 55 48 43 38 34 34 34 34 34 33 34 36 43 43 40 39 40 36 34 30 30 30 34 28 22 24 23 27 25 20 21 21
86 86 85 84 82 80 79 74 71 71 67 63 58 53 48 43 40 38 41 39 40 38 35 33 34 36 39 38 36 32 35 31 30 26 22 21 23 25 28 28 31 28 27 27
87 89 90 88 86 86 80 76 75 73 70 65 62 59 53 48 46 40 38 42 41 42 40 37 35 33 35 35 32 33 32 29 26 25 23 27 37 41 39 33 34 35 39 38
83 91 92 91 91 89 86 81 79 76 71 67 65 63 59 55 48 43 38 42 42 47 46 42 39 35 34 35 33 31 33 33 28 33 30 31 34 36 41 45 47 51 46 42
65 81 95 96 97 95 88 84 82 79 72 69 67 61 62 58 51 48 45 40 44 45 45 45 39 37 33 33 37 36 33 38 42 42 42 35 34 33 36 42 51 57 58 49
49 63 78 93 102 96 94 90 84 84 80 75 70 61 62 58 51 49 43 46 42 43 42 41 40 37 33 32 36 38 39 40 43 43 39 33 36 37 38 48 54 62 54 46
36 44 65 79 93 97 99 96 93 90 84 80 76 72 66 58 51 52 45 40 42 41 37 41 42 41 37 33 35 37 41 42 42 42 40 38 41 41 44 45 54 54 50 47
19 27 40 59 74 82 94 96 98 92 89 84 79 76 68 65 59 51 46 44 43 42 39 35 36 38 37 38 38 42 43 45 46 48 46 46 47 50 54 54 52 55 56 58
20 22 27 28 46 72 78 88 97 95 91 81 80 81 68 53 48 56 57 47 43 40 44 42 37 39 37 35 41 39 41 48 53 53 53 54 56 57 58 58 54 54 53 55

GFSCGP_500_spd_042.txt.gz
Wind_Speed
15 17 14 21 24 22 23 27 26 32 33 27 27 25 19 18 19 16 15 17 18 19 18 20 23 24 21 21 18 16 14 15 16 17 17 17 17 16 16 14 12 9 7 4
18 8 18 25 30 26 24 22 27 31 36 29 26 31 26 24 22 21 18 18 20 18 18 19 22 24 23 21 19 16 16 16 17 15 15 16 16 14 13 12 11 8 6 4
19 20 22 25 30 33 31 27 31 31 34 33 28 28 32 29 26 24 19 19 21 22 20 21 23 23 26 23 20 18 18 19 18 16 15 15 16 16 16 12 11 8 5 2
29 28 25 23 25 29 32 30 32 40 38 34 34 27 31 29 25 24 21 18 18 20 21 22 24 26 24 23 23 21 20 18 17 16 16 16 17 16 14 12 11 10 7 4
25 24 23 24 16 24 27 35 36 35 42 39 37 36 35 38 34 24 21 19 20 21 25 24 24 25 27 27 23 22 22 21 19 17 17 16 14 14 14 15 14 12 9 5
35 34 35 26 30 27 30 38 38 38 38 48 35 34 40 39 36 28 23 21 23 23 25 26 27 27 25 22 22 21 20 20 20 21 20 17 16 15 15 15 14 12 10 9
38 40 37 36 36 34 34 39 43 45 44 40 33 36 31 44 37 36 28 26 24 25 27 27 27 25 21 20 19 18 18 18 17 18 18 18 19 16 17 16 15 14 13 11
43 42 41 38 36 33 35 35 40 43 39 39 39 29 20 26 35 37 35 32 28 30 29 29 27 26 25 23 24 23 21 21 20 20 20 21 20 18 18 17 18 17 16 14
51 46 43 42 38 37 32 38 27 37 38 35 30 23 26 24 32 40 37 31 29 29 30 29 27 27 26 25 22 21 21 21 20 21 23 23 23 22 21 21 21 19 18 18
57 53 51 47 42 43 39 30 38 39 40 33 27 23 16 14 30 36 38 31 25 30 30 31 28 27 26 24 23 24 23 22 22 23 21 22 25 26 26 24 22 21 22 21
57 55 56 54 51 45 44 43 40 37 35 31 25 19 12 16 27 33 33 35 29 30 31 28 25 23 23 23 24 22 21 20 20 18 16 18 20 22 24 24 23 23 24 23
58 58 59 57 53 52 48 44 40 43 36 31 23 17 19 19 25 37 34 31 29 30 25 24 24 25 27 28 27 24 22 23 20 20 19 16 17 16 16 18 20 22 22 25
64 60 59 60 58 59 56 51 50 47 41 37 34 29 23 14 24 33 38 38 35 31 28 30 31 30 29 27 25 20 18 17 23 24 21 17 16 16 16 18 19 17 17 18
63 63 61 57 48 53 56 56 56 50 47 43 37 32 23 17 20 30 39 42 40 38 36 35 34 28 32 31 29 24 22 21 20 24 25 17 14 16 19 19 17 14 17 16
69 66 65 64 65 61 58 58 56 53 48 47 40 35 31 24 22 29 36 43 45 46 43 41 39 38 36 34 30 29 25 24 23 20 24 20 19 17 20 23 15 14 13 13
74 73 71 67 64 63 62 61 58 54 50 49 42 39 33 30 29 31 31 40 45 46 45 42 44 41 38 38 36 32 29 28 25 20 15 23 22 18 18 22 18 15 10 9
77 76 73 70 67 66 68 62 60 59 55 51 45 43 33 31 26 27 25 35 44 46 45 44 44 45 44 44 42 37 33 31 27 22 21 21 23 20 22 25 24 19 16 15
81 78 75 75 75 73 66 65 64 60 55 52 50 49 43 41 37 32 33 34 40 44 45 43 44 46 49 48 45 42 39 38 32 29 25 23 21 23 25 27 25 25 24 21
82 80 79 77 78 71 75 72 70 68 64 61 58 57 51 46 42 37 33 35 36 38 39 45 49 47 47 47 47 47 43 43 38 34 27 23 19 22 26 27 25 27 28 28
82 83 82 80 80 78 69 75 76 73 68 65 64 59 53 47 46 41 37 37 40 41 41 41 39 41 38 36 36 36 38 35 39 39 31 24 23 23 27 31 33 33 34 36
82 83 84 83 84 82 83 82 78 74 71 68 67 63 60 54 51 45 42 39 39 41 44 44 40 37 34 31 31 32 34 29 27 31 29 29 28 28 32 34 35 38 40 44
80 86 86 87 87 89 84 82 81 76 77 72 71 67 63 59 56 50 45 43 41 40 43 46 43 40 36 34 35 32 30 33 35 34 33 31 34 35 35 37 39 40 44 43
56 77 89 91 92 87 89 86 85 81 80 75 72 69 68 62 58 55 49 46 43 40 40 42 43 42 40 36 37 36 32 34 35 35 35 35 36 38 39 38 38 42 43 42
43 55 72 87 91 90 91 86 85 83 78 78 74 70 64 59 58 56 51 48 46 44 44 41 40 40 38 38 36 34 35 35 35 35 37 38 40 41 40 38 38 43 45 45
27 38 53 71 81 86 93 91 88 85 86 80 77 73 71 66 58 52 51 50 45 44 43 39 39 39 37 38 36 35 34 34 34 37 38 40 42 44 44 44 41 42 47 49
16 19 34 47 55 74 82 90 91 89 87 82 80 76 70 69 64 58 52 50 44 45 46 43 37 34 34 34 34 35 36 37 36 36 39 42 45 47 48 49 49 48 51 56

GFSCGP_500_spd_045.txt.gz
Wind_Speed
21 23 28 30 25 27 27 24 27 24 23 28 23 20 18 19 18 15 18 14 15 20 20 21 20 23 24 22 20 18 20 21 20 20 20 19 17 14 12 11 10 9 8 6
24 15 20 28 32 31 32 29 26 27 26 30 27 25 23 23 23 23 19 16 17 20 19 21 22 24 24 22 20 19 19 21 22 22 20 18 16 15 13 12 11 9 8 5
23 20 23 30 36 38 35 32 29 26 27 31 30 29 29 25 26 27 23 20 20 19 20 20 22 25 26 24 22 21 21 22 23 20 18 17 16 16 16 14 11 9 8 5
30 28 32 29 33 36 37 32 31 29 30 30 36 30 30 28 28 30 26 24 20 19 19 20 22 23 25 26 25 24 24 23 22 19 18 19 20 18 15 10 10 11 9 6
32 33 32 30 23 28 32 36 38 37 32 32 30 34 25 26 28 28 26 21 21 21 20 20 23 26 28 27 25 24 24 23 22 22 21 20 18 17 15 14 14 13 9 6
39 34 35 30 29 28 30 38 40 41 40 45 40 34 30 29 25 24 29 21 22 23 21 20 24 28 28 26 24 22 22 22 23 24 22 21 20 19 18 18 17 15 12 10
44 40 36 39 39 37 34 40 45 46 47 47 42 41 36 28 27 30 31 27 23 21 23 24 24 25 26 23 19 19 21 22 22 21 20 20 19 18 18 17 15 15 14 13
49 49 46 42 41 38 38 38 41 43 44 35 34 39 35 31 29 34 28 30 29 25 25 26 25 26 26 25 24 22 21 21 21 21 19 19 18 16 16 15 16 16 15 14
52 48 43 44 40 41 39 41 30 33 23 26 25 24 24 30 34 36 37 36 33 29 26 26 27 27 26 25 24 24 25 24 23 21 20 19 17 16 18 19 19 18 16 15
52 38 52 46 47 47 45 33 40 39 31 26 27 24 24 18 24 34 36 40 36 33 24 28 28 29 29 27 26 24 23 21 20 21 20 18 17 19 21 23 22 22 21 19
62 46 39 53 55 48 46 47 40 36 37 27 21 16 21 25 16 31 34 38 38 32 24 27 28 29 30 29 27 24 23 23 21 20 20 19 18 18 19 20 22 24 25 22
63 69 56 52 52 50 47 47 42 40 36 33 18 15 29 22 22 31 35 38 38 33 27 24 27 30 29 28 27 26 25 24 21 19 19 17 16 13 11 11 15 19 21 22
66 71 67 48 42 53 56 51 46 41 35 33 34 20 26 18 19 30 37 35 37 36 32 26 27 31 26 28 27 25 23 19 19 20 21 21 16 12 10 12 14 15 16 18
70 68 67 57 52 46 56 56 51 47 46 35 33 27 35 24 19 28 36 38 38 39 34 31 28 28 26 26 24 22 22 21 20 16 11 13 19 14 12 14 14 13 14 14
70 67 66 60 32 41 45 53 57 55 46 42 25 30 25 31 19 31 36 40 44 43 41 36 33 31 27 26 28 28 27 25 22 17 12 9 13 19 16 15 16 16 16 16
72 70 65 66 49 58 57 57 56 56 54 47 40 27 27 29 28 28 39 38 41 40 35 37 36 37 35 32 32 31 30 27 25 17 13 14 13 18 18 17 19 18 15 14
77 70 69 70 71 70 67 62 59 55 50 50 49 41 27 37 37 30 32 39 39 41 41 41 39 36 35 34 34 33 33 30 22 18 17 18 18 15 15 20 22 22 18 18
76 76 75 73 70 72 65 58 58 56 55 51 47 47 51 49 31 26 30 30 32 45 47 45 45 43 39 38 40 38 37 32 29 27 23 21 22 18 16 18 22 24 24 21
72 73 74 71 69 61 65 64 61 62 56 52 52 47 45 41 39 33 28 30 31 36 42 51 48 47 44 44 45 46 42 35 33 33 31 27 29 28 26 19 23 26 29 26
71 72 74 75 69 55 41 52 70 67 63 61 57 53 53 52 48 42 37 39 38 39 41 40 43 47 45 42 39 39 36 38 38 36 36 37 35 30 25 24 24 27 28 30
63 70 73 73 74 65 49 43 68 70 60 63 62 60 59 57 54 51 45 38 36 37 40 39 38 37 35 36 35 30 32 37 40 46 44 40 37 36 31 28 26 25 25 29
54 70 72 73 75 76 54 70 62 58 71 67 68 65 65 62 56 50 49 44 42 41 43 43 42 41 37 33 31 30 32 31 42 48 46 42 37 34 31 32 31 29 28 30
55 58 67 74 76 79 75 71 71 82 72 71 71 68 66 63 58 54 50 47 44 42 43 46 45 43 40 37 35 35 34 34 31 33 34 36 36 34 34 34 34 34 33 35
47 68 76 83 87 88 87 85 85 87 81 78 67 72 70 67 61 56 52 51 48 44 42 45 45 42 42 41 39 36 36 36 34 34 35 34 36 38 37 37 35 37 41 43
47 58 71 83 85 89 91 93 88 87 82 81 75 71 67 67 64 59 57 52 48 48 46 45 41 43 43 42 40 40 38 37 37 36 38 39 38 39 41 42 41 42 44 46
24 39 54 67 73 86 92 90 92 87 82 79 77 76 75 69 64 59 56 54 52 50 47 47 49 45 41 43 43 40 40 38 37 36 37 40 43 43 43 43 44 45 45 44

GFSCGP_500_spd_048.txt.gz
Wind_Speed
29 30 27 33 34 31 28 28 28 23 25 26 19 24 24 25 27 9 23 16 9 14 13 15 17 20 23 22 20 20 20 20 18 18 17 16 15 12 9 8 7 6 5 3
35 24 21 27 36 34 32 27 24 22 20 27 25 29 29 24 17 21 16 11 12 14 10 15 17 19 23 23 20 19 20 20 20 19 18 16 13 12 10 10 9 7 4 3
28 20 26 28 33 40 36 34 28 23 23 30 24 32 27 25 25 25 28 18 14 11 11 15 17 19 23 22 21 20 21 22 22 21 18 15 14 13 14 12 9 7 6 5
32 32 29 29 32 38 40 33 33 29 25 29 28 28 27 31 24 25 21 29 18 13 12 15 16 17 21 23 23 23 23 25 24 21 19 18 18 16 12 9 9 10 9 5
34 34 34 35 30 35 36 35 37 37 33 30 33 33 31 30 26 21 31 30 25 11 14 16 16 19 23 24 23 22 24 24 24 23 22 21 17 15 12 11 12 10 7 5
38 36 39 32 31 26 28 34 34 39 32 41 38 31 29 33 25 20 24 18 20 14 16 16 18 21 22 24 23 21 21 23 24 24 22 19 17 15 14 14 13 10 8 6
46 43 38 36 35 34 35 38 39 41 49 47 38 38 34 20 26 28 15 22 21 26 15 19 18 19 22 22 21 19 20 21 23 23 21 19 17 15 14 13 11 10 8 8
49 49 45 44 42 39 40 38 45 48 45 39 35 37 34 30 25 24 18 26 24 30 26 16 19 19 21 23 21 20 19 21 22 21 20 18 15 14 12 11 11 10 10 10
54 50 43 46 44 45 42 44 32 33 25 26 29 25 25 33 39 34 30 29 31 34 30 15 19 19 21 21 21 21 21 20 20 21 21 17 15 13 14 15 14 14 14 13
57 35 46 41 46 45 45 34 40 38 34 28 19 24 17 22 34 42 39 30 30 31 32 17 18 21 20 21 23 23 23 21 21 20 17 15 13 12 13 14 15 17 18 18
62 49 38 34 49 53 48 44 41 35 35 27 18 19 18 24 23 23 34 41 40 33 34 24 16 21 21 23 23 24 23 21 18 17 17 15 15 14 13 14 15 17 18 17
61 63 50 38 45 43 52 48 44 43 40 35 22 18 26 20 26 24 28 35 32 34 34 32 18 18 25 24 23 22 22 21 20 20 19 17 15 12 9 9 9 8 8 10
60 71 57 44 38 44 50 53 50 39 35 36 35 21 24 27 23 19 26 37 36 33 37 35 28 17 22 23 22 23 23 23 23 22 17 14 14 12 9 9 9 6 6 10
70 72 70 62 56 41 52 50 49 42 41 36 33 24 28 27 30 29 27 35 38 33 35 34 32 25 20 22 23 24 24 23 21 16 15 13 12 14 12 10 10 7 8 8
71 70 72 58 44 30 44 50 50 50 38 40 26 32 30 34 26 24 29 30 35 30 31 33 29 29 24 25 25 26 24 22 20 17 14 10 9 10 12 11 9 8 9 10
76 67 72 72 54 44 45 44 43 46 44 29 31 22 35 38 31 27 30 30 37 39 45 43 40 39 32 33 27 27 26 25 24 20 16 15 12 9 11 13 12 8 11 10
72 70 75 73 61 52 42 50 40 41 40 38 38 29 23 32 36 26 32 37 38 40 41 40 38 37 30 23 24 27 25 26 25 22 17 13 12 11 11 11 10 11 14 13
69 73 72 66 62 49 51 55 49 36 38 38 37 37 24 22 27 36 33 35 40 40 36 34 32 32 31 27 26 25 26 28 27 21 20 17 14 12 14 15 14 15 17 16
70 71 72 68 65 62 55 58 57 51 48 42 40 42 42 40 45 47 35 35 35 38 41 37 31 35 35 35 35 33 32 31 30 24 21 21 18 17 19 22 21 21 21 21
65 66 69 70 59 64 46 32 48 55 54 54 51 55 54 57 53 52 33 38 40 36 35 30 29 35 37 35 38 37 36 32 32 29 27 27 26 25 27 27 26 25 24 23
56 66 64 62 75 39 47 38 42 54 56 62 65 65 63 64 66 56 39 37 38 38 35 30 30 32 35 34 31 29 21 22 20 30 33 33 31 31 33 35 32 28 28 26
42 50 59 62 64 45 31 46 50 50 53 65 70 70 66 59 57 53 48 46 40 36 33 35 34 33 31 30 30 34 28 22 23 35 36 37 37 36 38 39 34 31 31 31
20 41 48 54 68 54 35 47 58 61 56 65 64 69 67 61 60 57 51 45 42 38 37 37 36 33 33 33 30 27 25 26 27 29 31 37 40 42 42 40 35 35 33 32
34 24 40 54 63 74 46 48 56 61 68 76 76 71 69 62 57 52 44 45 47 46 41 43 41 39 39 34 34 31 30 30 30 29 30 30 29 33 36 35 36 36 36 34
56 55 53 64 63 68 80 74 70 73 74 72 74 73 71 66 63 60 56 53 51 50 46 45 45 43 41 41 38 34 35 36 35 34 33 34 34 34 37 39 37 38 38 38
54 63 72 76 79 81 83 83 83 85 84 79 74 69 61 62 65 61 57 55 51 50 49 48 45 45 44 43 41 40 38 35 35 37 38 38 38 37 38 40 41 41 41 42

GFSCGP_500_spd_051.txt.gz
Wind_Speed
32 36 28 26 31 31 32 33 30 26 24 30 14 27 27 24 21 26 26 12 3 8 2 6 9 14 20 21 20 18 19 19 17 18 19 17 15 13 9 7 6 4 5 4
39 30 23 27 30 35 36 33 30 21 27 28 32 24 26 26 26 34 17 7 2 7 6 3 7 14 17 21 19 19 20 20 20 20 19 17 14 12 10 9 7 5 3 3
36 19 32 32 32 35 37 35 29 22 23 23 14 28 29 32 29 33 24 22 9 2 3 3 5 12 16 20 19 20 21 22 22 21 19 16 14 13 12 11 8 6 4 2
35 33 37 36 34 33 35 36 30 27 30 26 31 39 34 27 31 32 21 16 3 11 4 5 7 12 16 21 21 20 21 23 23 21 19 18 17 15 12 10 9 8 5 3
38 36 37 37 31 32 30 36 36 33 36 33 31 35 31 25 35 25 20 18 12 6 2 5 9 12 16 21 21 20 21 22 21 21 21 19 16 12 11 11 10 7 6 5
44 38 39 35 33 35 27 36 39 37 42 47 42 36 34 31 29 23 23 16 12 4 6 6 10 14 15 20 20 18 19 20 21 20 20 17 14 13 12 12 9 8 7 5
53 46 44 40 40 36 33 36 39 48 51 48 44 44 40 32 32 30 23 23 13 1 7 5 9 14 18 19 19 18 15 18 19 19 19 17 14 13 12 10 8 6 6 5
55 53 51 46 46 39 33 31 39 50 48 45 44 48 38 30 22 21 22 27 15 16 9 6 10 12 18 20 19 18 17 17 18 19 19 16 12 11 10 9 7 7 7 7
59 55 45 44 44 42 40 45 37 37 44 48 45 37 34 31 29 26 21 21 23 20 16 12 12 13 16 19 19 17 17 19 19 19 18 15 13 11 10 8 7 7 8 9
60 52 48 42 42 45 44 35 38 42 44 41 36 28 16 28 35 35 30 29 30 26 22 17 14 14 17 18 20 20 18 19 21 22 19 16 14 12 11 10 12 14 14 13
61 57 54 34 46 48 47 44 40 39 39 35 26 15 11 8 6 33 32 28 25 32 20 12 13 12 14 18 20 21 20 19 18 15 16 15 14 15 12 12 14 17 17 16
59 64 57 56 48 45 43 49 42 42 37 34 23 22 14 21 20 17 23 32 32 33 29 20 16 11 13 16 20 20 20 18 19 20 19 18 15 12 11 11 9 6 6 5
63 69 60 61 54 49 41 48 46 41 37 39 33 29 15 23 18 19 19 19 41 38 41 31 20 14 12 15 17 20 19 20 20 20 19 17 14 12 13 7 7 5 5 4
76 75 71 65 61 52 47 39 47 47 44 38 38 24 15 14 17 21 17 24 31 46 45 41 29 21 17 14 19 20 21 21 21 22 20 17 15 12 14 11 8 7 8 6
74 77 76 67 63 55 45 46 39 52 46 39 38 32 23 16 18 19 20 22 30 37 32 40 32 25 22 17 23 23 22 20 20 19 17 16 15 14 14 15 10 5 7 6
74 75 80 71 61 47 40 43 39 40 49 40 34 36 26 27 28 27 26 27 28 31 40 38 33 30 28 23 27 27 23 21 21 20 17 16 13 12 11 13 13 8 5 4
71 72 78 70 61 52 47 44 40 33 40 45 38 35 25 28 33 35 33 29 31 37 43 40 43 35 28 20 26 28 28 26 25 23 19 15 15 13 9 8 10 9 9 8
76 74 78 75 62 61 46 43 48 36 28 41 40 31 29 20 25 30 33 29 32 36 40 43 39 35 29 21 19 18 28 28 26 23 21 19 16 13 12 8 5 7 11 11
70 74 72 66 65 63 48 47 41 44 36 49 43 31 25 32 32 34 38 37 35 37 36 36 34 28 26 25 25 31 28 24 25 24 22 24 22 18 14 10 10 13 15 16
66 68 69 72 66 63 53 55 49 48 48 56 50 43 44 42 40 41 41 47 42 36 36 36 31 26 23 27 27 26 30 26 21 21 22 25 24 22 17 15 16 17 17 18
66 60 65 74 56 62 62 63 58 54 53 62 57 49 48 51 50 50 47 40 41 36 31 31 32 32 31 31 31 29 28 29 24 24 25 28 26 24 24 22 21 25 24 24
46 57 63 58 69 62 62 56 65 63 63 65 64 56 61 55 57 55 49 39 39 36 33 29 28 28 29 35 33 33 31 26 23 22 19 19 24 28 30 29 26 27 31 32
27 43 68 60 52 67 63 65 73 71 73 68 67 65 69 65 64 60 54 45 34 30 39 37 34 32 31 30 31 30 25 25 32 33 30 32 32 33 35 34 32 32 32 32
29 42 57 72 58 56 50 61 70 82 74 73 70 73 80 76 73 67 59 50 41 39 37 38 38 37 35 33 29 24 24 23 26 35 38 37 36 37 37 36 34 32 32 34
32 44 58 63 66 66 58 50 60 69 76 74 76 78 77 78 75 68 62 55 45 34 39 43 41 40 39 36 33 29 27 28 28 29 32 32 33 33 33 32 29 29 30 32
45 40 48 67 59 70 68 43 47 62 61 71 74 74 75 73 68 63 58 55 45 43 45 49 48 43 40 38 37 33 32 33 32 33 33 32 32 33 34 34 34 34 33 34

GFSCGP_500_spd_054.txt.gz
Wind_Speed
37 37 31 24 29 32 35 35 32 30 28 26 21 16 17 15 11 8 6 16 20 11 16 13 14 16 19 23 21 19 19 20 20 18 18 16 15 12 10 9 11 9 7 8
44 36 24 29 29 31 38 37 31 30 30 26 26 26 17 16 13 14 11 12 5 13 13 15 15 16 20 24 24 21 21 20 20 20 20 17 14 12 10 8 9 8 6 6
41 30 32 34 33 34 35 38 30 28 31 30 27 34 32 24 16 12 6 7 2 4 11 16 16 19 21 21 22 22 22 21 19 19 18 16 14 12 10 8 8 7 6 4
46 37 40 39 37 33 35 31 33 33 35 41 37 40 37 22 14 16 9 5 7 3 8 13 16 18 20 22 24 23 22 22 20 18 17 18 17 13 10 9 8 5 5 4
47 40 43 43 33 35 27 33 38 37 37 42 42 39 37 30 32 18 7 5 7 7 5 11 17 20 19 21 23 22 21 21 20 19 18 18 16 13 11 11 8 6 5 3
52 48 48 42 37 39 34 37 42 43 42 53 46 44 41 34 21 14 14 9 6 2 8 13 18 21 19 22 22 19 18 20 21 20 18 17 14 12 12 11 9 6 5 4
61 58 53 48 43 45 42 44 47 54 57 57 46 48 41 29 23 17 15 15 9 10 9 11 15 17 18 20 19 16 13 17 20 20 19 16 15 14 12 10 7 7 5 4
67 64 58 53 51 47 44 47 47 55 57 45 42 51 35 31 26 20 14 14 11 12 13 5 13 15 16 18 19 18 15 15 18 20 19 18 17 14 11 10 8 8 9 7
71 67 59 55 49 47 43 47 37 45 51 47 48 46 39 35 26 26 24 26 25 15 18 11 6 16 18 18 20 19 18 17 20 21 21 19 17 15 14 12 11 10 9 9
74 75 67 58 48 48 48 40 41 45 47 56 52 46 36 35 31 26 27 25 20 20 20 11 12 17 18 18 19 21 20 19 22 22 20 19 19 17 14 13 12 11 11 12
76 77 70 52 62 54 54 52 45 41 44 49 50 38 27 28 29 33 36 28 24 25 14 11 16 17 19 16 18 20 19 19 21 23 22 21 19 17 15 14 12 13 13 15
75 79 74 68 55 54 49 53 47 46 45 41 35 20 29 28 32 39 46 40 29 20 14 19 17 16 16 16 17 18 19 17 19 22 23 21 20 19 17 14 13 11 11 12
63 78 69 68 63 59 55 53 49 43 38 37 33 40 46 40 32 29 37 36 34 28 22 19 19 18 11 14 19 19 19 20 22 24 24 23 22 20 17 13 9 7 7 7
65 77 72 74 66 60 59 56 54 49 45 38 35 35 34 29 28 23 22 24 26 21 24 21 22 19 13 13 20 20 20 21 22 23 24 25 23 20 16 15 12 12 10 8
60 68 72 76 73 66 65 58 55 55 47 44 32 39 28 21 24 19 16 16 26 29 29 25 27 24 19 18 18 23 23 22 22 22 22 23 23 19 18 19 16 14 11 9
59 63 72 73 70 65 64 61 53 48 47 39 33 39 26 26 23 26 23 22 29 27 33 33 31 29 28 23 17 22 25 25 23 22 23 23 21 18 17 15 14 15 12 9
60 67 71 72 67 64 62 53 51 45 41 38 38 40 32 28 29 31 26 24 21 21 20 26 32 30 26 26 21 22 24 28 26 25 24 22 18 15 14 13 13 14 12 8
59 67 68 60 67 66 63 50 51 44 34 33 41 36 35 35 35 37 34 28 27 26 26 28 33 32 30 30 28 22 26 30 30 29 26 23 18 17 16 11 12 11 8 8
54 68 69 58 68 67 60 47 49 49 41 35 46 40 40 37 39 40 39 37 37 33 30 27 28 29 29 33 34 29 29 31 32 33 27 23 20 18 18 15 15 14 13 11
51 68 73 59 64 66 64 55 59 55 49 41 44 47 36 41 33 42 44 42 41 36 31 28 23 21 20 19 19 24 26 29 29 27 23 25 28 27 23 21 18 17 15 12
55 64 67 72 66 63 68 65 58 53 58 52 48 56 46 46 44 46 48 46 41 40 34 32 28 25 21 22 25 19 25 30 30 32 34 35 33 32 29 26 25 22 21 20
59 59 71 75 67 56 71 58 60 59 62 57 56 60 56 58 52 48 46 43 39 40 37 36 31 27 25 24 23 26 30 32 32 32 29 27 29 33 35 34 32 29 27 25
49 62 63 72 72 60 71 60 56 67 65 60 61 65 61 61 59 53 50 46 41 39 42 41 35 33 33 32 29 29 30 34 40 38 35 34 33 32 31 34 36 35 35 32
41 52 63 66 77 70 63 64 53 66 72 65 60 75 73 66 61 58 56 53 48 41 41 39 38 40 41 38 34 34 35 33 32 35 35 36 38 38 41 43 45 45 44 41
14 34 57 67 69 76 53 67 58 64 74 74 72 79 75 70 65 62 59 56 52 47 45 43 40 42 37 35 33 33 31 29 29 30 32 39 39 44 48 48 46 44 41 39
17 26 53 62 68 73 62 37 52 57 70 72 75 77 78 73 71 66 63 60 56 52 47 46 47 45 45 43 41 38 33 31 31 30 29 32 42 46 47 43 37 33 32 33

GFSCGP_500_spd_057.txt.gz
Wind_Speed
38 40 36 23 27 30 34 36 35 34 33 33 28 26 25 22 19 10 4 13 9 12 6 5 14 18 21 23 23 22 22 21 22 22 20 18 18 15 13 12 10 11 8 7
44 39 28 33 34 31 35 36 34 35 35 34 32 24 26 26 20 19 15 4 8 5 7 5 13 18 22 24 27 23 23 23 24 23 22 21 19 17 15 12 11 11 8 7
48 34 37 37 36 34 35 35 33 30 37 36 37 34 30 23 24 20 13 6 6 4 7 5 10 18 23 24 26 26 24 24 24 24 22 20 17 15 14 13 12 9 8 6
54 43 44 42 41 38 36 26 32 35 42 42 40 39 29 30 20 19 19 15 8 2 2 6 12 15 20 25 28 27 27 25 24 23 23 23 22 18 13 11 10 7 7 5
53 48 51 47 39 38 28 31 35 37 45 46 45 46 33 35 32 23 19 19 13 4 2 6 13 16 23 27 27 27 27 26 24 25 26 24 20 16 13 12 10 8 6 6
58 57 55 46 40 43 35 38 39 42 48 59 53 52 44 34 24 22 20 21 18 9 5 4 15 19 22 25 27 25 26 25 23 25 25 22 18 15 13 13 11 8 8 7
68 61 60 57 51 49 44 46 45 51 59 62 48 56 47 27 30 25 23 18 15 11 8 4 12 18 21 22 24 22 23 25 23 24 24 21 17 16 14 12 10 9 9 8
76 70 65 62 59 52 51 49 53 56 58 56 47 58 40 24 28 31 33 23 19 15 11 9 7 18 22 26 26 22 20 23 25 24 23 20 19 17 15 12 11 10 10 9
78 77 71 69 61 53 54 58 48 50 53 52 50 54 36 31 33 33 38 30 22 19 18 16 11 14 23 24 27 24 21 23 25 25 23 21 20 17 16 15 14 12 11 10
81 81 70 70 64 58 54 50 50 54 56 58 52 52 44 34 28 30 30 36 29 26 27 20 18 15 22 25 28 29 25 24 25 26 23 21 19 18 16 14 13 14 12 9
73 85 71 66 71 61 59 58 55 48 54 54 46 49 43 35 30 23 23 31 31 22 29 27 20 17 23 27 28 28 25 23 24 26 24 22 20 18 14 14 13 11 9 10
62 82 76 70 63 63 61 59 57 55 55 54 48 41 42 39 35 29 26 30 26 23 27 25 24 19 22 27 30 29 25 23 23 25 25 25 23 19 16 16 13 9 10 11
55 69 79 59 56 68 65 61 56 53 49 48 45 31 39 43 46 39 31 32 33 27 32 28 29 23 20 28 30 29 26 22 22 25 27 26 23 20 20 18 13 9 8 6
62 52 70 65 64 70 70 62 59 54 52 50 43 30 34 44 38 41 40 43 41 40 35 35 33 26 22 29 28 28 27 25 23 25 27 26 25 24 24 20 14 11 10 9
65 51 59 73 69 66 69 62 61 62 55 50 39 30 39 43 38 37 37 39 37 43 41 34 30 31 25 28 30 29 29 27 24 23 25 26 28 29 26 20 18 16 13 12
64 56 61 71 67 64 68 64 62 61 58 49 38 38 46 42 38 32 36 27 26 43 39 35 30 34 28 25 29 29 29 27 25 25 25 28 30 27 23 24 22 17 14 12
64 46 65 65 69 61 58 67 65 58 55 49 41 46 45 38 38 37 35 27 19 25 29 28 28 32 26 24 23 25 27 28 27 28 29 28 26 26 25 24 20 17 16 14
61 46 65 57 68 56 62 62 62 59 59 53 47 49 46 41 38 40 38 29 26 27 23 20 22 24 19 22 21 20 22 26 27 29 29 28 27 25 24 20 18 19 17 15
37 49 54 56 67 60 58 61 61 61 58 55 49 46 47 43 39 45 35 35 30 26 32 32 27 30 32 27 23 23 21 23 27 32 30 27 26 25 22 20 19 21 19 17
30 45 54 57 68 58 48 58 58 61 58 57 54 46 47 48 47 51 45 36 35 36 32 28 22 26 32 32 29 24 24 23 27 33 30 30 28 27 25 25 24 25 23 20
38 46 54 58 71 53 46 59 60 57 60 56 54 52 53 51 52 52 52 48 44 37 32 29 24 29 29 31 30 31 28 20 21 35 38 37 34 31 30 31 29 28 26 24
41 55 57 59 75 48 45 59 59 58 60 55 57 58 59 60 55 52 49 48 46 42 37 32 26 27 28 29 29 29 31 26 25 28 38 38 37 35 34 33 31 31 29 26
41 56 54 58 71 48 49 59 55 57 62 57 57 61 61 65 60 54 51 45 42 38 37 31 28 27 27 29 31 34 33 32 27 30 33 40 33 32 35 35 36 36 34 31
40 43 59 52 58 57 62 58 56 58 61 61 60 64 63 65 63 60 55 49 44 43 39 32 31 30 28 29 32 31 30 29 30 37 39 38 39 40 43 44 44 43 40 39
27 33 63 58 48 65 58 58 55 57 62 64 58 66 68 65 61 63 59 55 47 44 40 37 33 32 32 31 31 35 36 38 39 39 42 47 47 43 41 43 46 47 49 48
8 15 38 62 70 47 51 56 69 47 65 63 64 62 70 68 64 63 61 59 54 50 45 42 38 37 38 39 39 37 35 34 36 42 43 48 50 49 49 51 52 55 55 53

GFSCGP_500_spd_060.txt.gz
Wind_Speed
41 39 31 23 27 29 34 35 34 34 33 31 26 23 24 24 24 21 14 12 15 9 5 6 14 17 22 24 23 22 22 23 23 23 19 19 18 16 15 15 13 11 9 8
47 41 27 34 35 34 37 36 37 36 39 38 34 27 30 28 28 26 21 20 14 13 10 11 13 14 17 25 27 25 23 23 26 25 24 22 20 18 14 13 12 10 9 10
45 39 40 37 38 39 38 36 34 33 41 42 38 39 39 28 33 31 24 21 15 14 14 14 14 18 21 25 26 26 24 25 26 27 24 21 18 16 13 12 11 9 8 9
52 44 48 44 41 41 40 28 33 38 42 45 41 42 37 31 28 32 24 22 18 15 15 15 15 18 21 25 29 28 27 26 28 26 24 24 24 20 16 14 13 10 10 9
56 49 49 50 42 42 31 35 34 38 44 46 47 47 37 36 33 27 28 23 19 18 10 13 16 21 24 27 31 29 29 27 28 26 26 26 24 18 16 16 14 13 11 10
60 56 53 53 50 44 38 40 39 41 48 58 50 51 41 36 31 27 29 23 21 18 13 13 16 21 22 28 32 31 30 28 26 27 28 27 24 22 20 19 16 13 12 11
63 59 61 60 56 52 48 48 47 48 58 60 50 55 38 34 31 31 29 28 22 18 14 13 17 18 18 23 29 29 28 28 26 27 29 28 25 23 21 19 16 13 13 11
61 65 65 63 60 57 54 54 55 58 58 55 52 60 35 32 33 32 32 32 32 28 22 19 17 19 22 25 27 28 26 27 27 26 28 29 25 23 22 20 18 16 14 12
59 66 69 68 66 62 59 61 54 56 56 53 57 55 33 35 35 42 33 34 34 29 24 21 20 21 22 25 28 30 26 25 28 27 29 28 24 22 21 20 19 19 17 15
58 64 68 69 66 66 62 61 57 59 60 59 58 54 39 34 33 41 39 39 35 28 26 27 24 23 25 26 29 32 32 29 29 31 30 28 26 24 22 20 19 18 18 15
54 63 63 69 71 64 64 68 62 56 58 58 57 53 40 35 31 40 41 40 38 32 27 27 25 24 27 28 30 30 29 32 34 34 33 29 27 24 20 19 19 17 15 12
57 59 65 67 67 66 69 65 67 65 62 60 57 52 38 36 33 37 40 38 36 31 31 28 26 24 27 27 30 30 29 26 31 33 34 32 29 25 21 19 19 17 15 12
60 65 64 61 64 68 70 71 67 67 64 64 57 50 41 38 39 41 40 39 35 33 33 31 30 30 28 29 29 32 31 29 28 32 33 33 30 26 23 22 20 16 11 10
57 67 69 62 63 70 68 75 69 71 68 63 60 44 42 38 43 45 42 40 41 39 35 35 34 27 30 29 30 33 33 32 30 30 32 33 30 27 24 23 20 16 14 9
50 64 74 60 58 67 65 72 72 72 69 64 54 42 37 41 44 47 47 45 45 41 38 38 38 30 30 32 32 35 35 34 30 31 33 33 32 31 29 25 21 18 14 12
41 46 66 62 50 61 68 68 71 71 68 65 53 41 35 37 47 50 50 48 48 48 46 44 40 37 31 29 32 35 36 35 31 29 30 34 34 34 31 27 24 21 17 14
35 26 51 54 49 60 66 64 75 71 70 62 50 39 40 40 45 49 55 54 50 55 50 45 37 40 36 29 30 34 36 36 34 32 32 32 33 34 32 29 26 23 19 15
25 19 42 48 47 61 64 66 72 72 70 60 50 40 39 43 47 54 51 44 37 29 37 42 43 36 36 30 24 26 35 36 35 35 34 33 31 31 30 28 28 24 20 18
22 31 38 54 37 55 64 68 67 72 68 58 52 43 46 49 50 44 43 37 28 29 35 40 45 34 39 35 27 21 30 33 34 34 33 32 31 30 30 28 27 26 23 21
36 37 41 52 41 51 63 68 60 70 65 57 52 47 49 54 51 46 42 39 37 28 32 47 41 28 30 28 26 22 24 24 30 31 31 32 32 32 30 30 30 30 28 27
37 40 39 46 45 39 66 63 60 55 60 56 51 50 54 58 53 45 46 46 39 34 33 30 31 30 28 30 30 28 26 23 25 28 31 34 33 33 35 35 33 30 30 29
30 42 36 38 49 38 55 64 59 55 54 57 53 55 55 60 55 50 50 51 41 36 36 36 36 32 29 36 34 33 33 29 25 26 31 35 37 37 37 35 31 29 28 27
28 38 37 32 48 45 54 57 48 51 53 55 55 55 55 62 58 54 54 55 51 42 38 37 39 38 36 37 36 36 34 31 25 22 26 33 38 39 35 32 31 30 27 28
21 34 22 47 45 43 51 57 40 47 44 51 56 55 55 63 61 57 54 55 56 53 44 43 42 38 35 41 39 35 34 31 27 27 26 35 37 42 40 39 35 33 31 34
20 17 33 48 46 41 47 58 59 59 54 51 55 54 59 62 62 60 58 55 56 54 50 48 43 36 34 40 38 36 36 33 36 33 31 33 34 45 45 41 38 38 39 41
32 36 23 53 49 45 47 47 57 57 64 51 52 55 54 61 67 64 61 60 57 56 54 52 48 38 34 39 40 40 41 43 45 42 41 39 34 42 47 46 47 47 46 47

GFSCGP_500_spd_066.txt.gz
Wind_Speed
35 33 29 27 28 32 34 32 31 33 33 30 26 27 25 23 20 18 18 17 17 17 17 18 19 22 23 22 21 23 23 23 26 26 20 19 18 16 16 13 11 10 11 13
41 36 30 37 37 35 35 34 32 35 38 36 32 35 32 29 24 25 24 21 20 15 13 14 15 19 23 24 24 23 24 24 27 28 25 22 20 18 17 14 12 12 13 14
45 42 43 39 40 38 37 36 34 37 41 40 37 41 40 36 32 28 28 25 22 18 16 15 16 19 22 24 26 24 26 27 28 29 27 25 22 19 18 16 13 13 14 13
53 49 47 46 42 43 41 38 38 40 42 42 42 43 46 40 37 31 34 28 25 18 20 19 15 16 21 26 30 29 29 30 30 28 26 26 25 23 22 19 15 12 12 12
56 54 52 51 49 46 44 42 43 43 45 45 49 50 44 44 43 36 35 29 25 20 23 21 23 22 23 28 33 32 32 33 31 30 27 26 26 25 21 19 18 15 14 13
52 58 59 58 56 52 47 48 47 47 49 55 50 51 50 45 45 39 38 34 28 24 25 24 25 25 23 28 34 35 33 34 32 32 30 28 26 23 21 21 20 18 15 15
37 50 56 63 62 59 54 54 52 53 55 56 49 54 53 49 45 41 40 36 31 27 26 26 25 27 30 29 32 37 36 33 32 32 31 30 27 23 22 22 21 19 17 14
33 38 49 59 64 63 59 59 57 57 54 53 52 57 57 52 52 50 47 41 39 35 32 28 27 26 28 31 34 37 37 36 33 32 31 31 29 24 23 23 21 19 17 15
40 35 47 54 60 61 62 65 55 54 46 53 44 53 56 52 50 46 48 48 44 38 34 29 27 22 24 30 34 36 39 38 35 33 34 33 30 26 23 21 23 20 17 17
46 42 42 48 51 56 58 56 60 60 56 59 47 48 54 53 43 45 49 50 43 44 39 35 29 24 19 24 32 38 41 40 37 36 36 34 31 29 27 25 22 21 18 18
47 48 47 43 47 45 56 61 62 56 61 61 49 39 55 48 42 43 45 48 45 44 42 37 31 30 26 26 32 38 41 42 40 39 38 37 35 32 32 26 25 24 21 19
52 52 51 48 49 49 54 59 61 51 65 64 40 31 36 53 41 40 46 50 49 47 44 40 37 34 30 27 32 36 40 41 40 40 38 36 36 36 34 28 26 26 22 22
53 53 52 50 48 48 45 54 57 57 57 56 57 60 50 54 43 39 45 50 53 51 49 48 43 35 31 28 30 33 38 40 40 41 40 37 36 35 34 31 29 27 25 23
52 54 54 49 35 47 53 53 62 64 73 70 71 46 55 50 44 42 41 54 59 60 53 51 43 37 34 28 29 33 36 38 41 40 41 38 36 34 35 32 31 29 28 25
45 51 54 55 53 51 58 56 63 66 73 77 64 58 59 60 49 46 46 58 60 57 54 50 43 39 35 33 30 32 35 39 40 39 39 37 36 37 37 35 33 30 29 26
35 40 46 51 51 56 57 55 59 68 72 77 78 73 68 60 53 44 48 56 59 60 55 51 50 44 38 33 28 31 33 35 39 37 35 38 39 38 37 35 33 31 29 29
27 32 38 44 47 52 61 52 51 61 71 74 80 74 63 59 52 49 47 54 63 64 60 56 53 46 38 33 29 29 30 33 37 38 36 37 39 39 38 35 35 31 30 31
28 30 33 37 41 51 56 55 53 57 64 70 76 77 66 59 57 50 49 50 62 66 64 58 55 49 42 36 35 31 30 33 35 38 38 36 36 38 40 39 36 34 34 32
29 30 32 36 38 44 54 55 62 59 62 63 80 76 68 61 55 54 49 51 56 63 68 63 57 51 45 40 39 34 31 31 36 38 38 37 35 37 40 39 37 37 35 34
25 29 33 32 37 41 48 51 58 57 57 75 70 70 68 61 62 50 51 48 53 62 66 64 58 54 47 43 40 35 34 29 34 37 35 37 37 36 37 39 39 39 37 36
17 29 32 31 35 37 40 47 50 56 57 62 61 68 66 62 60 58 50 50 49 62 65 63 59 56 50 45 41 37 32 26 28 35 39 38 38 36 35 39 43 42 38 36
4 13 21 28 31 32 34 36 45 55 59 50 47 60 65 63 57 57 45 46 48 57 64 66 63 61 56 49 43 41 35 35 34 31 36 38 37 39 37 36 39 40 38 36
5 10 9 6 7 23 10 47 47 49 53 46 40 58 64 60 56 55 46 45 45 49 63 66 62 61 60 53 49 43 46 46 40 35 32 35 38 38 38 37 36 35 37 37
11 14 10 6 11 3 8 36 40 35 40 38 38 52 58 56 56 53 45 43 44 46 53 60 61 55 54 55 55 55 49 47 44 39 32 32 35 37 37 37 36 35 36 34
13 11 6 7 7 7 7 30 43 35 39 39 42 49 50 51 52 50 47 44 47 43 43 47 52 55 53 53 57 53 52 53 51 42 34 31 31 35 36 36 36 36 35 34
8 7 5 8 13 15 14 28 48 42 53 37 39 45 47 45 47 49 44 48 45 46 48 49 51 49 52 49 52 56 55 53 48 45 38 34 32 34 35 36 37 37 37 35

GFSCGP_500_spd_069.txt.gz
Wind_Speed
28 29 23 23 26 26 27 26 26 24 29 29 26 24 32 11 21 18 17 15 16 18 21 22 23 22 20 18 20 19 21 22 24 19 19 17 16 15 14 12 11 10 10 11
34 32 29 28 31 33 34 34 28 30 25 33 31 28 30 22 25 23 20 16 17 16 15 16 19 21 21 21 22 21 22 23 26 24 21 18 16 16 15 13 11 12 11 10
40 36 38 36 35 35 38 35 32 31 33 39 36 31 33 25 32 29 25 22 19 15 16 12 16 19 22 23 22 23 23 25 26 27 21 20 19 18 17 15 12 13 12 12
47 45 44 44 42 40 39 37 37 38 39 33 41 37 35 39 29 35 30 26 22 21 18 12 15 17 21 24 25 26 25 27 27 28 25 22 21 20 19 17 14 14 12 12
49 51 50 51 48 47 42 42 42 42 43 44 36 42 30 37 37 38 34 30 26 24 20 14 16 16 19 23 26 28 27 29 29 28 27 24 23 22 20 17 15 15 13 11
50 54 55 58 56 54 50 48 48 48 47 51 47 41 42 39 36 35 40 36 30 28 22 19 19 22 21 20 23 28 29 30 30 29 27 26 25 23 20 19 17 15 13 12
40 50 56 58 63 60 57 53 52 51 51 53 46 49 43 37 31 33 37 39 36 32 28 27 21 19 20 21 20 25 30 30 31 31 29 27 26 23 20 21 18 15 14 12
31 28 44 50 60 58 63 59 55 51 45 52 47 52 52 43 36 35 32 43 40 37 34 31 25 23 21 22 25 26 29 31 31 32 31 29 28 25 22 21 20 18 16 14
35 38 28 46 49 52 46 53 58 36 30 38 37 43 46 42 51 49 39 43 40 41 41 33 29 26 23 23 23 27 31 35 34 32 32 32 30 27 22 22 21 20 18 17
47 46 38 43 44 52 52 36 51 48 42 39 37 34 36 44 50 51 53 43 44 38 43 36 34 30 24 22 21 26 31 36 37 36 33 33 32 28 25 24 22 22 19 18
47 52 49 51 47 42 46 54 46 42 47 40 33 34 30 30 40 50 47 51 44 34 41 38 36 32 28 26 23 23 30 35 39 37 35 34 34 31 29 27 23 22 21 19
47 50 50 50 43 48 48 33 48 42 43 47 36 30 26 28 27 39 43 47 47 44 41 37 39 37 34 31 24 22 27 32 36 38 37 35 36 36 32 30 26 23 22 22
46 52 49 48 48 49 54 50 52 47 43 42 45 42 22 31 31 29 35 41 42 47 47 42 41 44 40 35 28 23 25 28 34 38 39 37 37 37 33 31 29 24 24 24
49 51 49 43 29 37 40 46 44 44 48 46 43 40 33 38 29 34 39 40 39 45 48 44 41 47 44 38 32 26 25 27 33 37 40 38 37 35 34 33 33 28 26 26
44 49 48 52 47 48 53 45 52 55 51 52 49 39 47 34 34 34 42 39 42 49 56 55 53 48 46 39 36 30 28 27 30 34 38 36 36 36 35 36 35 32 29 27
35 41 44 53 53 55 56 60 62 60 59 67 68 61 57 51 44 45 44 48 52 57 60 61 55 52 50 41 37 34 28 26 29 32 35 36 38 38 35 36 36 34 31 29
26 31 31 38 43 54 59 59 57 57 58 59 66 68 62 62 47 51 57 53 52 51 56 55 57 55 50 42 41 33 28 30 30 31 35 37 37 37 37 36 38 35 32 31
30 28 31 31 29 41 54 53 52 52 60 58 60 69 66 62 53 59 59 51 47 47 54 57 57 56 50 45 43 36 30 29 29 31 33 37 37 35 37 37 37 35 33 31
31 33 34 36 33 33 33 32 53 68 64 63 66 65 72 73 65 65 64 57 49 48 50 57 60 57 54 47 42 37 34 30 29 29 30 35 35 32 33 36 36 36 35 33
18 29 38 35 37 33 22 39 49 61 63 58 57 56 63 70 75 69 60 57 55 51 49 58 60 60 54 47 45 43 37 33 26 26 28 32 35 34 31 33 37 38 38 35
15 20 24 34 43 39 32 46 46 55 59 59 61 50 50 64 70 78 72 59 53 53 50 58 63 62 54 50 48 43 40 34 27 28 29 32 35 35 33 33 36 37 38 38
6 11 17 24 31 41 48 38 43 48 56 56 59 58 58 54 68 77 68 57 54 51 53 55 61 62 60 55 51 46 41 39 35 33 28 31 32 34 36 35 33 36 38 38
5 4 8 9 16 27 36 38 41 46 49 52 54 56 51 57 71 73 72 63 51 53 54 54 60 60 65 61 55 50 46 43 37 35 29 27 30 35 35 36 36 33 35 37
11 7 1 7 5 8 9 26 34 35 41 44 50 56 45 54 64 69 70 63 54 51 52 53 59 62 64 63 59 58 47 47 44 43 34 31 27 30 34 36 37 34 32 33
5 4 2 4 8 1 4 9 29 33 35 36 40 48 44 41 56 65 64 57 54 53 51 51 58 61 63 63 63 57 52 47 46 37 37 37 34 29 30 33 35 35 35 33
6 3 4 4 4 8 10 12 12 39 37 31 32 41 40 44 52 59 59 55 50 47 45 47 54 59 62 64 64 61 58 55 48 43 47 44 38 28 28 32 34 36 36 35

GFSCGP_500_spd_072.txt.gz
Wind_Speed
26 24 20 18 20 22 23 22 20 25 23 22 24 24 27 27 28 15 18 9 10 11 12 15 16 16 15 13 14 16 17 17 17 16 15 12 12 12 11 8 10 11 11 10
31 27 25 24 24 25 27 27 27 20 24 23 26 24 29 27 31 28 16 12 11 11 6 11 12 15 16 16 16 17 18 19 21 17 16 15 14 14 12 9 9 9 11 9
34 31 33 31 30 28 29 31 27 26 22 24 25 26 32 32 21 22 16 17 17 12 7 10 7 13 16 17 18 19 19 21 21 21 17 16 15 14 12 10 9 9 10 9
39 39 39 38 36 34 33 32 32 32 32 32 28 30 31 31 28 23 31 25 20 15 10 9 6 6 15 17 21 22 21 23 23 24 19 17 18 16 13 11 9 9 9 9
39 43 45 44 42 43 39 37 36 38 39 39 34 30 33 33 41 37 44 25 23 19 17 13 11 9 11 14 19 23 23 23 23 25 24 19 18 18 15 12 10 10 9 8
41 45 47 50 50 47 46 45 44 41 43 47 43 39 32 33 35 35 29 32 30 26 21 20 18 14 11 11 13 18 23 22 23 24 25 23 20 19 18 15 13 11 9 7
39 41 44 47 52 54 51 50 48 48 47 49 43 46 46 30 30 33 30 34 28 31 24 24 24 17 15 13 13 13 19 23 23 25 24 24 23 21 20 19 16 13 11 9
29 25 35 43 51 50 55 53 51 49 48 49 42 48 42 37 33 30 38 31 31 29 31 27 27 21 20 16 13 13 16 22 23 25 25 25 24 22 20 20 18 16 13 11
36 33 21 16 34 45 49 40 53 42 30 44 31 32 40 39 38 34 32 34 47 38 31 30 31 26 23 20 16 16 18 22 27 27 27 27 25 23 21 20 20 18 16 13
40 42 36 31 28 30 34 46 34 44 40 39 33 30 30 34 42 45 43 37 37 34 38 32 35 31 26 24 21 20 21 23 28 32 30 29 29 26 24 22 20 20 18 15
45 44 42 42 29 33 36 41 44 36 39 43 36 29 19 30 29 33 43 49 55 51 39 27 33 33 31 27 26 18 18 25 28 31 31 30 28 29 27 24 22 20 19 17
48 48 48 51 48 28 36 34 38 44 42 44 46 27 26 26 32 37 40 43 50 41 35 37 41 34 35 29 25 20 15 19 25 29 34 32 31 31 29 26 24 22 21 21
50 49 47 51 53 52 46 49 44 37 45 39 39 40 24 20 19 29 35 39 46 50 54 49 48 53 28 30 27 23 18 15 22 27 32 35 34 31 29 28 26 25 22 23
52 55 47 48 33 38 36 32 31 37 45 44 44 38 26 23 31 32 28 19 39 52 59 50 53 31 31 30 31 27 22 18 21 26 28 33 34 31 30 31 30 28 24 24
50 54 49 51 46 40 50 46 44 47 48 51 43 45 40 45 44 43 37 28 35 46 42 44 48 46 44 30 34 32 28 23 20 23 26 27 33 34 33 31 31 30 28 27
39 46 45 48 51 57 53 59 56 52 51 51 60 52 57 47 46 47 48 49 41 48 47 45 47 46 52 53 30 37 32 26 21 20 24 29 33 35 33 32 30 32 31 30
27 23 28 35 42 55 59 58 57 57 55 59 66 66 63 47 47 51 50 53 53 47 56 55 55 52 48 38 33 36 31 30 26 20 24 27 30 34 33 33 32 30 30 32
25 27 27 28 29 38 52 58 55 60 62 59 62 71 64 65 55 52 47 50 58 56 54 49 51 57 54 54 27 34 31 33 27 23 23 27 27 30 34 34 32 31 29 30
15 20 32 31 29 29 31 35 51 50 62 59 64 73 79 68 64 56 51 40 54 51 58 50 50 51 47 48 47 42 36 33 30 21 18 23 27 28 31 31 31 32 31 31
16 17 22 33 33 33 26 33 42 51 59 62 67 62 70 80 69 77 60 62 70 60 54 50 47 48 50 53 52 50 37 33 30 23 18 22 27 28 29 29 30 31 32 31
15 15 26 21 36 37 34 33 38 46 54 61 67 66 66 75 78 67 74 59 64 59 51 50 50 49 52 53 52 48 39 36 31 28 25 25 26 27 29 30 30 30 32 33
5 8 10 20 27 38 44 44 39 51 62 60 64 67 66 68 74 87 79 81 53 57 54 50 51 50 49 52 53 50 43 39 39 33 30 28 25 28 29 31 30 28 29 32
8 8 9 14 18 29 36 44 50 47 49 47 51 60 64 66 70 73 82 85 78 51 50 55 46 47 49 52 53 52 51 47 42 38 34 30 28 25 29 30 30 31 29 28
13 13 8 12 17 18 20 29 39 51 59 54 54 52 61 57 58 61 70 82 83 73 54 56 55 54 52 56 55 53 53 47 43 40 36 33 30 25 28 30 30 31 32 30
15 14 13 13 14 17 20 19 26 32 47 56 48 52 54 56 50 51 55 63 68 85 79 60 55 53 53 58 59 56 55 50 46 43 41 37 35 31 26 28 30 32 34 33
19 19 17 16 16 12 14 16 20 20 18 42 46 47 48 54 56 51 49 43 59 69 66 68 58 54 54 56 59 58 59 54 51 46 43 40 42 37 33 27 27 30 31 34

GFSCGP_500_spd_075.txt.gz
Wind_Speed
24 23 18 19 20 21 21 26 26 26 18 24 22 23 20 24 20 22 14 11 12 11 13 9 9 8 8 9 9 10 11 11 11 9 8 9 8 7 7 7 7 8 12 11
30 25 23 22 21 23 26 24 24 25 23 15 18 22 24 22 19 20 20 10 16 12 10 9 9 9 8 10 13 13 14 14 15 12 11 10 10 8 8 7 7 7 10 10
32 31 30 29 27 25 26 27 23 23 27 23 21 22 29 26 23 23 19 20 17 16 10 9 8 9 8 10 13 16 17 17 17 15 12 12 12 10 9 9 8 7 9 9
36 34 34 34 33 31 29 27 26 25 30 32 29 30 30 32 30 23 22 24 22 20 12 11 10 10 7 11 11 18 19 19 19 19 15 15 15 15 11 8 8 8 7 8
37 39 40 38 37 37 34 34 32 33 33 34 37 38 35 33 32 26 31 37 31 23 18 10 12 11 10 8 8 16 22 19 20 20 19 17 16 15 13 10 9 11 8 6
36 41 43 43 42 41 42 40 38 37 39 43 32 40 36 35 27 30 33 25 38 23 20 18 16 12 12 8 5 8 18 21 20 21 22 19 18 17 15 12 10 9 8 7
36 34 34 39 46 47 46 44 45 43 43 38 33 42 36 33 31 25 26 30 20 23 22 21 16 12 10 11 12 10 13 21 20 20 23 23 20 19 17 15 11 10 9 7
37 38 32 28 36 39 46 49 47 48 44 39 38 41 30 29 30 31 30 29 26 22 28 26 19 16 14 11 14 14 14 19 22 21 23 24 23 21 21 19 16 13 11 9
36 38 37 39 40 45 42 47 45 49 49 50 46 35 34 30 29 34 31 33 30 28 23 30 28 23 20 14 13 16 18 17 22 24 25 25 25 23 22 21 19 17 14 13
42 42 34 35 37 42 38 43 44 46 49 54 52 45 38 19 12 24 37 35 32 29 33 36 38 28 27 21 19 16 17 18 20 26 25 26 25 24 24 23 21 20 18 16
38 41 33 34 37 36 32 33 41 45 48 50 51 53 40 20 16 21 32 36 39 36 36 40 33 30 36 27 24 20 15 18 18 20 26 26 27 26 24 22 22 22 20 18
39 38 40 40 44 46 46 44 34 43 47 50 53 61 27 22 28 25 14 24 29 36 39 44 43 43 48 32 27 19 15 15 20 25 25 29 30 30 27 24 23 22 22 21
43 46 45 41 45 47 50 50 42 36 49 53 51 59 35 25 19 23 30 38 30 38 49 51 49 34 39 36 31 24 16 15 17 21 27 30 32 29 27 28 27 25 23 22
32 34 46 52 44 55 53 56 51 43 46 54 49 47 40 32 21 19 33 37 38 33 40 49 47 42 56 28 27 32 23 20 17 18 23 27 31 31 30 29 29 28 25 22
30 38 43 45 56 47 63 58 60 56 50 47 53 37 49 47 38 31 37 46 43 36 31 35 30 34 44 37 27 35 31 25 20 14 15 21 29 34 35 31 29 30 27 25
32 34 41 47 47 51 50 64 65 66 58 51 49 49 57 63 49 45 41 46 42 42 47 42 45 36 56 30 29 28 30 29 25 18 14 20 25 31 34 34 31 30 29 28
30 27 33 32 33 41 60 56 62 67 65 57 55 60 51 69 61 52 53 50 48 49 45 39 35 50 49 38 41 41 44 36 29 23 16 15 21 27 31 34 33 30 29 31
23 18 25 29 27 27 39 63 60 66 68 64 60 67 76 73 66 60 57 53 55 59 62 61 49 51 41 49 47 41 41 45 30 25 18 16 15 21 29 32 32 32 30 30
21 22 22 23 29 26 26 47 59 63 69 69 71 72 70 78 72 50 66 63 66 60 59 59 53 45 42 41 45 50 37 51 31 25 16 15 16 19 24 29 32 32 32 30
20 21 22 21 21 27 23 31 55 61 67 67 72 69 66 77 78 69 56 68 65 69 65 64 59 56 53 47 47 38 31 19 24 21 18 18 17 17 20 26 31 33 32 32
16 14 18 21 24 25 30 34 36 55 67 64 70 69 67 68 81 81 67 69 53 68 70 68 64 55 55 57 55 48 37 42 28 23 24 24 20 17 20 23 30 32 30 31
16 11 14 14 18 26 31 38 40 40 54 63 67 69 66 68 73 77 80 71 71 51 61 63 58 54 56 56 58 58 47 34 31 30 30 28 23 20 21 23 26 30 30 29
18 18 12 15 15 22 27 37 40 44 43 46 62 74 75 72 70 76 76 84 80 63 47 45 53 48 46 52 53 53 49 40 37 35 34 33 29 24 24 24 27 28 29 28
17 16 17 17 16 20 24 29 39 46 48 50 56 64 73 75 75 75 78 78 85 78 68 51 60 55 48 50 52 51 51 47 42 40 38 36 32 27 25 24 28 29 29 28
22 19 15 15 19 23 21 20 28 33 37 43 58 59 69 72 71 78 80 79 87 83 73 68 52 53 52 52 52 51 50 49 46 43 42 41 38 31 28 27 27 28 30 31
21 23 23 20 17 16 22 20 20 27 26 29 28 41 68 69 68 70 80 79 81 84 84 75 79 50 51 50 53 52 48 48 48 46 45 47 42 38 33 31 30 28 32 33

GFSCGP_500_spd_078.txt.gz
Wind_Speed
26 24 21 22 23 22 22 24 20 25 24 22 18 18 17 15 6 8 14 14 13 17 13 17 14 16 11 10 11 10 11 11 12 11 10 11 10 10 9 10 9 10 9 10
29 25 22 24 25 26 26 24 20 23 28 24 22 16 15 14 9 6 3 9 13 12 10 14 16 16 14 13 12 14 13 13 14 12 9 9 9 8 9 8 9 10 9 10
33 30 31 28 27 27 28 27 23 26 31 23 25 22 18 14 15 14 7 12 12 11 9 14 16 13 13 12 14 13 14 15 15 12 11 10 9 7 8 8 7 8 8 9
35 36 34 32 30 28 27 25 26 26 31 29 29 28 24 20 19 17 12 21 15 13 11 11 15 13 14 15 16 16 15 15 16 15 13 13 13 11 8 7 8 9 8 7
37 36 35 35 34 33 32 30 27 28 33 35 32 31 29 25 22 16 15 11 16 23 18 14 14 16 17 14 16 19 18 16 16 18 15 14 13 12 10 8 6 8 8 6
38 38 39 38 37 39 37 37 35 33 35 34 32 33 30 26 23 18 12 10 13 24 22 18 17 14 13 12 13 16 19 18 18 18 19 16 16 14 12 11 10 10 8 6
39 41 40 41 42 41 40 40 39 36 36 32 33 38 27 24 29 22 18 11 11 13 23 19 16 14 14 13 13 13 17 20 19 19 19 20 18 18 16 15 12 10 10 8
38 37 40 43 43 43 43 43 43 40 36 36 37 40 23 28 29 26 23 17 15 10 25 21 19 17 19 15 12 12 16 21 22 22 22 24 21 19 18 17 14 12 11 8
37 36 40 41 42 46 42 44 41 44 43 44 43 35 24 33 39 31 27 25 20 20 20 27 28 23 25 22 15 14 15 18 24 25 26 24 25 22 20 19 18 16 13 11
34 31 35 36 38 44 45 43 42 45 44 47 46 38 30 26 35 32 39 37 32 30 25 25 25 33 28 29 25 19 16 14 20 27 26 26 25 26 24 21 20 20 17 15
29 28 29 30 34 36 40 41 47 49 49 47 47 44 27 30 32 31 36 40 35 34 25 20 21 27 31 28 27 25 20 17 16 18 27 27 27 26 25 24 23 22 21 19
25 29 26 30 35 36 36 38 39 44 47 51 49 45 34 37 38 37 34 32 33 32 17 18 20 26 27 38 30 25 24 20 19 21 23 28 28 29 27 26 25 24 22 22
27 32 30 29 39 43 44 42 43 42 41 43 51 50 29 44 41 40 40 30 27 30 25 27 22 27 23 31 34 33 29 24 22 20 23 27 28 29 29 28 27 27 24 23
20 26 28 31 37 44 48 47 47 48 47 48 47 50 40 48 47 44 33 31 34 32 32 32 36 31 32 25 26 35 32 30 26 24 21 24 28 30 30 31 31 29 28 26
26 29 33 33 32 39 50 56 52 52 52 54 49 49 51 48 48 49 33 31 40 43 40 37 35 36 36 29 24 36 39 32 30 28 22 20 26 31 34 33 32 32 29 28
27 30 32 37 40 43 43 53 61 58 56 61 58 52 54 52 57 54 39 33 36 44 45 45 46 40 35 36 30 39 39 35 35 31 26 21 23 26 31 34 33 33 32 30
29 32 32 35 39 44 48 48 59 67 62 62 62 57 52 57 60 55 50 39 38 43 50 49 43 41 42 40 33 36 36 44 41 35 29 25 23 24 26 33 36 34 31 32
25 30 34 38 45 47 47 46 52 67 71 66 68 65 58 56 62 63 58 53 42 41 49 54 45 39 36 29 41 50 33 43 43 39 34 28 21 22 25 30 36 37 35 32
22 26 31 37 39 34 33 35 38 63 75 70 68 71 67 61 63 73 65 62 57 43 43 47 48 49 49 43 36 32 42 47 40 41 36 31 26 25 23 26 32 37 38 36
22 25 27 26 32 25 26 26 35 41 61 72 70 75 74 69 64 71 76 70 64 51 48 47 36 42 46 39 33 34 43 41 42 40 35 36 31 26 25 26 31 36 39 38
20 19 21 22 23 23 22 26 33 35 47 48 70 76 76 73 70 72 79 77 67 64 52 57 56 57 55 51 45 36 31 35 42 36 35 37 28 24 27 29 31 33 37 39
17 16 20 19 25 26 21 27 35 34 34 51 63 73 77 75 72 74 76 85 76 73 69 59 62 60 63 58 52 47 40 35 36 44 42 41 30 26 24 27 29 31 33 36
9 12 17 20 20 23 23 22 30 35 40 41 55 62 79 77 72 71 75 73 82 76 76 67 67 61 60 63 57 59 42 42 44 39 43 42 39 33 30 25 25 27 29 32
14 16 15 15 19 21 23 22 25 32 37 42 53 67 68 76 77 76 75 79 78 75 77 75 59 61 66 67 63 62 56 47 47 49 48 39 37 35 36 30 26 25 27 28
14 14 14 16 18 20 23 19 24 27 33 44 50 57 72 76 73 80 77 76 82 78 74 83 76 68 63 67 67 64 59 57 51 49 52 53 46 46 43 33 28 26 25 28
20 20 17 17 17 22 19 20 17 24 24 29 36 50 58 60 72 80 77 79 82 80 78 74 88 79 68 67 71 71 69 66 58 49 50 52 50 46 42 37 34 29 28 28

GFSCGP_500_spd_081.txt.gz
Wind_Speed
27 27 25 24 22 22 23 23 27 27 26 25 25 19 15 12 12 10 6 5 10 13 12 8 17 17 15 13 14 13 15 17 15 14 13 14 12 11 9 8 8 11 13 14
30 25 24 26 26 26 26 24 24 27 30 30 26 18 20 17 17 14 8 6 8 8 9 11 15 15 17 18 19 17 16 19 19 16 14 14 14 11 11 9 9 8 11 13
31 26 28 29 28 29 28 22 25 27 29 29 30 25 20 17 17 13 9 7 6 4 10 13 12 17 17 18 17 19 20 21 21 19 15 14 15 13 12 11 9 8 9 12
35 34 31 30 27 27 28 25 27 28 28 32 32 30 23 20 19 14 9 13 10 4 10 11 12 13 17 17 19 19 18 20 20 19 18 17 17 16 12 11 7 8 7 10
35 36 35 34 32 29 27 29 32 34 32 33 32 29 26 19 16 13 14 17 9 5 12 12 14 15 19 17 17 21 20 19 21 21 19 16 13 14 13 10 8 8 7 6
36 37 38 36 36 34 34 31 31 36 36 36 32 30 26 16 18 17 15 21 12 6 15 14 16 16 13 15 18 18 22 21 21 22 20 19 15 13 14 13 11 9 7 7
39 40 39 37 37 37 36 35 34 33 33 34 34 33 20 17 20 18 16 11 15 15 20 18 19 15 12 9 17 18 20 22 21 21 22 21 19 17 15 15 14 12 8 7
37 40 40 39 40 39 38 38 39 36 35 36 36 39 27 23 25 23 18 17 15 17 23 22 22 18 16 14 14 18 21 25 23 22 23 23 21 20 18 16 15 13 11 7
33 35 37 40 40 41 41 41 40 39 38 42 38 35 34 33 30 29 26 25 23 20 17 28 28 25 21 19 17 17 18 24 27 25 25 25 23 22 20 19 17 15 14 11
30 30 32 36 37 40 40 42 42 43 42 42 37 34 39 37 38 33 34 31 29 29 28 34 32 26 23 23 20 19 20 19 26 28 26 26 27 26 25 22 20 18 17 14
22 23 26 29 32 35 38 40 43 43 43 45 42 39 39 42 41 39 37 36 33 30 29 30 32 30 31 29 23 21 21 23 21 26 27 27 27 29 27 24 23 21 18 16
26 28 28 33 34 37 37 38 39 41 45 45 42 39 44 42 43 43 40 35 32 31 30 28 24 22 25 30 29 24 23 23 22 23 30 30 29 29 29 29 26 24 21 20
23 25 28 33 37 39 39 39 39 39 40 41 42 44 45 45 47 44 41 39 34 31 30 31 33 30 31 30 27 32 29 27 25 25 25 31 31 31 29 31 30 27 26 24
21 25 26 32 36 39 42 42 42 43 42 40 40 41 47 44 48 47 45 42 38 36 32 34 38 36 35 36 36 36 37 33 30 27 27 27 31 32 34 34 34 32 30 28
21 22 20 22 26 32 37 41 45 47 49 47 47 44 46 48 44 47 45 45 43 41 39 37 41 40 41 41 36 42 43 42 37 33 29 29 30 33 37 38 37 35 33 31
18 19 19 23 25 27 30 35 44 52 53 53 52 49 49 51 47 44 47 50 47 45 43 43 45 46 43 41 38 43 40 43 42 38 32 30 32 32 35 39 39 39 36 34
25 26 25 22 23 30 36 40 42 43 48 59 58 56 56 56 54 49 45 51 51 47 46 51 50 52 44 44 45 42 45 44 43 40 39 36 34 32 35 40 42 41 40 39
33 28 27 26 27 31 35 38 44 48 52 52 55 63 60 64 62 56 48 52 51 50 51 57 55 54 48 45 46 43 45 44 49 50 44 43 39 33 34 40 42 43 43 41
22 23 25 24 25 30 35 40 48 55 56 60 63 57 68 69 71 66 58 51 57 60 57 57 55 52 52 49 46 48 48 49 55 57 49 46 43 38 35 37 39 43 46 44
20 22 23 22 23 26 35 42 48 49 49 47 59 68 64 72 76 74 67 58 58 61 61 59 56 55 55 54 56 43 35 41 57 55 51 48 46 41 40 40 40 43 46 47
17 20 22 26 34 37 37 39 40 46 44 42 44 52 65 73 75 77 76 65 61 64 67 60 59 59 57 53 54 54 39 41 46 43 45 49 45 42 37 37 39 40 42 47
11 14 19 28 32 32 31 32 38 40 42 44 45 44 48 65 75 76 80 76 68 64 70 72 60 61 62 53 54 57 51 48 58 53 53 55 52 46 41 37 33 36 39 42
8 9 12 16 19 20 21 25 32 35 38 39 49 48 46 49 72 77 80 81 75 70 72 79 67 55 65 50 52 58 60 43 50 44 43 39 43 49 47 38 34 35 36 38
7 10 14 18 17 16 16 20 23 27 33 36 43 47 50 48 72 71 80 81 81 77 72 78 79 79 58 51 53 53 55 45 42 35 31 43 44 47 45 43 37 36 35 34
5 9 13 18 21 23 21 22 23 23 25 34 37 44 46 48 50 75 70 83 82 79 77 75 81 83 65 65 74 59 68 58 56 53 41 41 51 55 58 53 44 39 37 35
15 16 14 16 19 22 21 21 24 26 25 22 30 33 40 44 46 54 73 73 77 79 79 78 78 80 86 87 70 55 59 72 60 57 51 40 44 55 59 57 53 48 40 34

GFSCGP_500_spd_084.txt.gz
Wind_Speed
25 26 23 23 25 27 24 27 28 25 26 23 17 18 21 19 21 19 19 15 13 11 14 14 14 15 15 16 16 17 17 14 13 15 12 12 13 12 13 14 12 14 15 15
26 24 27 29 27 26 28 30 29 29 29 26 21 20 21 20 18 18 14 15 21 16 13 14 15 15 15 19 18 19 19 16 13 12 12 13 13 13 12 13 12 14 15 17
26 25 27 26 28 28 27 29 29 31 29 24 20 19 19 20 16 16 15 18 22 19 18 16 18 18 16 15 16 19 19 16 14 12 12 14 15 13 13 11 14 14 14 17
30 29 29 28 28 28 27 27 30 30 29 27 23 21 20 17 15 16 16 20 19 17 17 19 19 18 18 17 16 17 18 19 16 15 14 15 16 15 13 11 12 14 14 15
33 32 31 28 26 25 27 31 32 33 32 30 27 21 19 16 15 16 17 20 19 16 18 22 24 24 21 17 18 21 22 20 20 19 18 16 14 15 14 11 11 14 15 12
35 35 34 34 32 30 29 29 31 31 31 30 27 22 19 18 20 19 20 18 21 16 17 17 22 25 21 18 16 20 21 24 24 23 20 19 17 17 17 15 13 14 14 13
36 36 36 36 36 34 32 31 32 33 31 29 29 23 21 22 22 20 20 24 25 22 21 19 16 20 17 15 16 17 22 21 24 25 23 21 20 19 17 15 13 12 13 13
38 37 37 37 37 35 35 34 34 33 32 30 30 28 25 24 23 21 20 20 22 21 22 25 22 21 19 18 17 19 21 25 24 25 25 22 21 20 18 17 14 12 11 11
35 38 38 37 38 38 37 36 36 37 39 38 35 33 28 30 27 25 24 23 21 19 21 26 27 25 23 20 19 17 16 25 28 27 28 25 22 22 20 18 16 14 12 11
31 32 36 38 39 39 39 39 39 39 40 41 38 35 37 32 33 31 30 28 25 23 21 19 27 28 28 25 24 21 16 18 28 30 30 29 26 24 23 20 19 18 15 14
25 28 32 34 36 38 38 40 41 41 42 43 40 40 39 36 35 35 35 33 31 29 27 22 27 32 31 30 25 22 19 16 18 27 29 29 29 28 25 23 21 20 19 16
22 25 28 33 33 34 35 36 37 40 42 43 43 43 42 40 39 38 37 36 35 33 30 28 30 32 34 33 30 24 23 20 21 23 28 30 31 31 29 26 25 23 21 20
26 28 29 31 34 35 36 37 36 38 39 41 42 45 44 45 42 41 38 37 36 33 32 32 32 35 33 34 35 33 29 27 26 25 25 30 32 31 31 31 29 27 26 24
27 29 31 34 36 37 37 36 37 36 37 39 41 43 45 44 44 42 44 41 38 36 35 32 32 37 35 33 39 41 35 30 30 28 27 27 31 34 33 34 35 33 31 29
28 29 30 33 35 35 37 38 38 38 38 38 38 42 45 46 46 44 40 40 42 44 41 39 34 33 41 38 38 39 40 37 36 33 32 30 30 33 37 36 37 37 35 33
20 20 21 25 28 31 34 36 37 37 38 39 39 42 45 45 46 44 44 41 43 44 46 44 41 37 42 43 43 42 41 43 42 39 35 34 35 33 34 38 38 38 37 37
21 21 19 20 23 28 30 30 32 34 36 39 41 42 45 47 47 48 47 45 44 49 48 48 45 42 42 45 43 43 45 46 44 44 44 39 38 34 33 35 40 38 38 39
26 28 28 26 25 26 26 27 29 33 36 37 38 40 45 51 52 52 50 50 46 49 54 53 51 49 46 49 48 46 42 42 46 46 47 46 43 38 35 37 36 39 41 41
26 28 32 35 33 32 31 32 33 34 36 37 36 41 45 50 56 58 58 56 54 49 54 59 59 54 52 52 53 52 52 49 51 49 49 53 48 44 40 38 38 38 42 43
22 22 24 27 30 31 31 29 28 27 29 34 40 46 49 47 62 67 66 64 62 57 52 58 63 60 58 59 59 56 54 54 59 50 49 52 53 48 46 41 38 38 40 44
16 19 22 26 27 26 26 26 28 34 37 42 44 47 49 48 53 68 76 73 68 67 59 58 64 65 60 62 65 63 59 57 57 46 46 51 54 56 50 48 43 41 39 42
12 12 13 15 17 20 23 27 33 37 38 39 40 44 47 48 49 60 70 79 78 73 66 66 64 70 66 64 67 69 63 60 58 55 40 51 61 62 57 52 49 43 40 42
6 8 9 10 10 12 16 20 25 32 38 40 39 42 44 47 46 51 55 67 77 80 76 65 68 70 72 67 67 68 63 62 65 57 60 46 56 68 61 58 53 45 42 40
7 5 4 4 3 7 11 15 18 23 27 33 37 41 41 45 44 49 53 48 55 76 79 81 71 69 75 74 73 69 62 60 64 60 53 49 52 59 65 58 50 49 46 39
12 10 10 11 13 16 16 18 17 20 23 24 25 32 37 38 41 42 52 53 50 50 73 81 82 71 74 80 76 75 74 68 58 59 57 57 55 59 61 58 58 56 50 45
17 20 20 20 21 23 21 22 21 22 22 24 26 28 33 35 35 37 45 51 51 51 62 68 79 82 75 81 80 79 76 74 68 70 64 66 62 61 58 63 66 63 56 50

GFSCGP_500_spd_087.txt.gz
Wind_Speed
29 28 24 26 28 32 30 28 26 24 21 21 20 17 17 17 16 18 17 15 16 14 15 17 16 16 17 16 17 16 15 13 17 16 16 15 12 10 10 14 14 14 13 14
27 26 30 32 32 32 32 32 31 30 26 25 21 18 17 18 23 14 15 16 15 11 12 15 17 16 21 21 21 19 17 14 15 13 15 17 14 12 8 12 14 13 13 13
27 27 30 32 31 31 31 31 33 33 30 30 25 21 21 23 18 17 16 16 16 18 18 18 21 21 19 21 23 22 20 15 13 13 16 18 17 15 12 10 12 13 13 13
30 32 30 28 30 31 30 32 33 34 30 30 26 25 21 21 18 18 18 16 21 24 21 20 19 24 22 24 24 23 22 19 15 14 17 18 16 15 12 10 9 12 15 14
31 30 30 30 29 31 31 32 34 35 33 27 25 24 24 20 23 24 23 25 23 24 22 21 21 25 25 25 25 25 25 23 20 17 17 16 15 15 15 13 11 10 12 13
33 34 33 32 32 31 35 36 34 33 32 28 25 22 26 28 27 27 23 25 26 23 24 22 25 27 24 22 25 25 23 24 23 20 17 16 15 15 15 13 13 11 9 9
35 35 36 35 35 35 33 34 35 34 33 31 25 23 27 28 27 27 28 25 28 27 27 24 25 23 21 20 18 21 23 22 23 23 19 17 16 17 16 14 14 13 10 7
37 36 37 39 38 36 35 34 32 34 32 29 26 28 28 27 26 27 28 28 27 28 28 29 29 27 25 25 24 22 22 25 25 24 23 20 20 20 19 17 15 14 12 9
38 38 39 39 40 39 38 38 36 33 31 29 31 32 29 29 27 26 28 29 28 28 23 23 27 27 28 27 26 27 27 29 29 28 26 24 22 23 22 21 18 16 15 12
35 36 38 39 40 40 41 39 40 38 35 35 33 32 32 30 29 28 28 27 28 29 24 24 24 27 27 27 28 28 30 31 33 31 29 28 26 25 24 22 21 20 17 14
28 32 36 38 39 39 41 41 41 40 39 39 36 34 31 29 30 31 30 29 28 28 25 26 25 27 29 30 26 26 27 30 31 32 31 30 30 28 26 23 22 22 20 18
26 29 31 33 37 38 39 41 42 41 41 41 39 38 35 33 32 32 33 32 29 26 26 25 22 24 28 32 30 26 24 23 26 33 34 32 32 31 29 27 26 24 21 21
25 28 29 31 33 35 39 40 41 40 41 42 41 40 39 37 37 36 34 35 35 32 29 29 26 29 31 32 31 29 29 27 27 27 30 33 32 32 32 31 30 28 26 24
27 27 29 31 32 33 34 35 37 40 42 43 44 42 42 42 41 40 39 40 39 37 34 34 34 33 32 34 35 35 33 33 31 28 28 30 32 34 34 35 35 33 31 29
30 33 34 34 34 35 36 36 36 37 38 41 43 43 44 44 44 43 44 43 43 43 41 39 37 37 38 36 38 35 37 36 36 35 33 29 30 34 37 36 36 37 36 34
30 29 32 32 32 32 33 34 34 34 35 36 38 39 40 43 44 45 46 46 46 47 47 45 44 42 40 44 41 40 39 40 41 41 35 33 33 31 32 37 38 38 38 38
27 30 29 30 31 33 34 35 35 35 35 36 38 38 40 42 43 43 44 45 46 48 49 50 49 47 46 41 46 45 44 40 42 45 44 40 37 35 33 33 34 39 38 39
24 24 24 26 28 31 32 31 32 35 36 37 38 38 39 42 43 43 44 47 48 47 51 52 53 53 51 47 43 50 50 47 45 44 47 47 41 39 37 35 32 34 40 40
27 29 30 30 30 29 27 26 29 30 31 31 33 34 36 39 42 45 48 49 51 52 51 54 56 56 55 54 50 48 56 55 48 47 46 47 49 46 45 41 37 36 37 38
21 22 23 26 30 35 35 34 32 31 32 34 35 36 39 41 43 46 47 51 53 56 56 54 57 60 60 59 57 53 54 58 55 50 47 49 46 45 47 48 44 42 39 38
20 21 23 25 26 28 33 36 37 36 36 36 36 36 37 42 45 47 51 53 57 60 62 62 58 61 64 64 63 60 58 59 60 58 56 53 52 52 50 47 52 49 45 43
21 21 22 24 25 28 28 30 32 34 34 34 34 34 40 44 47 50 55 60 62 62 66 68 66 64 67 68 68 68 67 64 65 63 62 61 58 58 57 56 52 53 51 47
12 15 17 18 17 18 18 20 23 27 30 33 38 41 43 45 48 49 48 53 61 65 63 69 75 73 70 71 73 74 74 72 68 68 68 68 63 62 58 58 50 50 54 52
10 10 10 11 12 13 13 12 13 11 10 13 18 25 30 36 43 48 50 50 51 58 61 65 72 80 79 76 77 76 78 76 75 72 71 70 67 61 54 46 49 57 57 57
13 13 13 13 11 12 13 14 13 14 17 19 23 26 27 29 31 36 46 50 51 53 57 58 59 73 85 85 81 81 79 81 79 75 69 67 69 65 61 57 54 54 64 61
21 21 20 21 21 22 22 22 23 25 26 26 25 29 33 36 39 37 34 41 45 45 49 51 54 64 73 86 87 83 84 83 83 80 77 65 65 69 66 62 58 61 55 60

GFSCGP_500_spd_090.txt.gz
Wind_Speed
33 31 30 30 31 40 36 29 25 25 22 24 22 19 14 10 13 20 21 19 19 18 17 17 15 17 18 18 16 16 15 12 12 11 13 13 11 11 10 13 12 13 12 11
32 32 32 34 36 33 30 30 30 26 26 24 22 18 14 16 16 15 18 21 20 15 13 15 15 17 20 22 20 18 18 14 14 11 12 13 12 12 10 12 12 12 11 10
30 33 35 34 35 34 33 33 34 29 29 25 22 21 19 22 21 20 20 21 19 14 17 18 17 19 20 21 21 21 19 15 15 13 14 15 13 10 11 10 13 12 11 9
34 34 35 35 34 35 34 35 38 34 29 26 26 15 23 22 22 17 15 13 16 20 18 19 22 20 20 22 22 22 20 17 16 15 16 16 14 11 9 9 11 12 11 9
36 37 35 34 34 33 35 36 35 35 32 33 30 24 25 25 28 24 19 19 18 19 25 24 21 23 24 22 23 24 23 19 18 16 17 16 15 14 11 10 10 12 12 10
40 38 38 34 35 37 37 35 35 33 30 29 28 28 27 33 28 28 24 21 18 19 24 27 26 27 25 21 21 23 23 22 19 18 17 16 16 15 13 10 9 11 11 11
39 41 38 39 39 39 39 37 34 32 33 23 26 30 36 34 32 30 28 26 23 22 21 23 26 26 27 24 21 22 24 24 23 20 19 18 18 17 15 13 11 10 9 9
41 41 43 41 40 39 38 37 28 30 28 25 31 32 37 36 33 32 32 31 28 24 23 22 23 25 29 28 25 24 25 26 27 24 21 20 20 19 17 16 13 11 9 8
40 44 42 42 40 40 40 40 31 25 27 22 31 38 32 34 35 34 33 34 31 28 24 25 24 23 25 26 27 27 28 28 27 28 25 23 21 21 20 18 16 14 12 11
41 42 42 43 43 43 42 39 39 35 28 25 27 33 37 35 35 35 34 31 33 31 27 21 22 25 22 25 28 29 30 30 29 30 30 27 25 24 22 20 19 17 16 14
36 37 40 40 44 46 45 43 41 31 29 25 26 33 38 32 32 33 33 32 30 29 28 27 24 22 28 27 28 29 31 31 31 31 30 30 27 26 25 24 23 23 20 18
30 32 34 42 39 41 43 47 45 42 39 34 27 37 32 33 34 33 31 30 29 28 29 29 25 24 26 30 30 29 30 31 33 34 34 33 33 31 28 27 26 25 24 23
26 31 32 34 36 36 42 45 44 46 43 32 29 35 34 34 33 32 33 32 32 30 29 29 27 28 24 27 31 30 29 27 30 33 35 34 34 33 32 31 29 28 26 26
27 27 30 24 30 36 40 41 44 45 44 32 37 45 43 38 38 38 35 34 35 35 34 31 31 30 27 31 34 35 33 31 29 27 29 32 34 33 35 36 35 32 31 29
30 29 29 33 36 39 37 40 42 45 48 43 38 50 46 41 41 40 40 40 40 39 41 40 37 36 35 34 35 29 36 34 33 30 28 27 30 34 36 36 36 36 34 31
28 30 34 31 31 33 38 39 40 44 45 47 51 49 46 46 46 45 45 44 43 43 44 45 44 43 41 40 38 37 38 40 38 36 34 32 31 30 31 35 37 36 35 35
30 31 29 31 31 31 32 34 37 40 41 46 46 51 47 48 49 48 48 47 48 48 48 47 47 47 47 45 45 44 41 39 46 46 42 39 37 33 34 32 33 36 37 36
29 30 31 32 31 33 38 35 35 37 40 41 42 43 42 45 46 48 48 50 50 51 52 52 52 51 50 50 49 48 50 48 46 41 43 44 41 40 40 36 34 33 33 34
24 29 29 30 30 34 33 32 34 37 40 41 42 43 44 45 46 48 49 50 52 53 53 54 55 55 55 54 53 52 51 51 54 52 47 45 43 47 47 43 41 38 36 34
25 26 28 29 30 32 35 31 33 34 38 38 40 41 43 44 45 52 46 49 50 54 55 55 57 59 59 58 57 57 56 54 55 57 55 52 49 48 46 46 47 44 43 40
23 26 29 32 33 35 34 36 36 36 38 36 37 38 39 40 42 45 45 46 48 51 54 55 56 58 62 62 62 60 59 60 57 59 61 58 55 52 49 47 48 49 48 45
21 23 25 28 29 32 32 34 37 40 41 40 39 39 40 41 42 43 44 46 48 50 53 56 58 59 60 63 65 65 64 63 64 62 62 64 63 58 54 51 51 49 47 42
16 20 23 25 28 28 30 31 33 34 36 38 40 42 43 44 45 43 41 42 48 53 55 57 59 61 64 66 66 67 70 67 67 67 67 66 67 67 63 59 55 56 56 56
10 12 14 18 20 22 23 26 28 30 30 31 33 34 36 39 43 45 45 47 49 53 58 59 60 64 66 69 71 71 70 73 72 72 72 72 70 71 70 67 63 60 58 57
13 13 14 13 14 16 19 21 20 20 22 23 23 22 22 22 28 36 35 31 33 45 57 62 63 63 63 66 71 74 75 75 77 76 77 77 77 76 73 73 69 66 64 62
23 21 20 19 18 20 19 20 21 23 24 24 25 25 28 29 30 32 35 39 39 39 37 50 62 65 64 61 64 67 72 76 78 79 81 81 81 83 81 78 76 74 68 66

GFSCGP_500_spd_096.txt.gz
Wind_Speed
34 38 38 32 32 25 23 20 16 23 22 20 18 18 12 16 12 14 23 22 18 17 15 14 13 14 13 11 11 11 8 7 6 7 7 6 5 5 11 10 12 11 10 10
37 35 32 32 30 28 29 19 30 29 15 22 22 16 19 12 11 16 20 21 19 19 17 15 13 14 15 13 11 12 9 9 8 8 8 6 4 4 7 8 8 11 11 9
33 29 30 33 32 31 33 28 28 27 23 22 21 11 2 5 16 18 21 18 26 23 20 17 15 16 16 15 14 13 9 8 9 8 8 6 5 2 5 8 9 10 10 11
31 32 33 33 35 37 32 29 17 34 16 20 11 12 18 16 14 17 22 18 24 24 27 20 19 17 17 18 15 13 11 9 10 8 8 9 9 5 5 7 7 6 7 9
33 36 32 37 35 33 31 31 22 28 32 16 19 22 20 23 21 18 10 5 17 23 23 20 19 18 18 17 17 16 14 12 11 11 8 11 10 5 5 5 14 4 5 7
33 33 27 34 36 31 30 38 21 18 19 19 20 13 29 24 24 12 18 19 16 22 28 21 19 18 17 16 16 16 16 15 12 12 11 10 6 5 8 9 5 3 3 4
34 22 31 38 36 33 39 31 29 24 21 23 17 19 31 28 24 14 19 14 18 19 24 22 17 16 16 16 16 17 18 18 15 12 12 12 11 10 8 7 6 3 1 2
35 28 33 35 33 29 38 27 29 32 25 19 20 29 36 41 15 21 19 19 19 19 22 18 19 18 21 21 18 19 21 21 20 16 13 14 13 12 10 8 4 4 5 3
22 21 27 34 38 26 31 37 26 14 16 16 31 37 45 43 42 37 32 26 32 20 19 25 22 22 23 18 15 20 22 23 22 21 17 15 16 16 13 9 10 11 8 4
31 29 30 37 41 44 30 32 36 33 29 24 30 38 42 41 46 47 40 26 27 19 29 31 25 24 25 25 20 22 22 21 23 23 23 20 18 17 16 14 13 15 11 8
35 15 22 40 39 45 38 35 43 28 19 25 27 33 40 45 43 42 37 36 31 30 27 26 20 27 34 27 26 25 24 20 21 23 23 22 21 20 18 16 15 17 14 10
36 20 20 24 39 39 46 35 37 36 36 25 30 45 34 45 45 37 37 33 34 33 35 31 27 22 22 27 32 26 21 23 22 21 21 22 23 22 20 20 19 18 19 13
47 35 12 19 35 40 48 46 35 38 27 31 31 27 37 35 26 24 27 33 35 37 38 36 30 27 23 19 22 22 17 21 29 24 23 21 22 24 24 24 22 20 19 18
48 45 30 27 23 24 38 43 44 41 30 28 38 38 43 38 32 29 26 32 35 36 38 37 36 33 32 27 23 22 22 19 22 26 27 23 22 21 26 28 25 23 22 20
45 41 32 33 27 24 22 42 40 49 44 32 21 19 23 30 36 22 22 30 36 37 38 39 38 37 36 34 30 30 28 28 30 25 23 15 31 20 21 24 29 28 25 23
37 42 44 38 30 39 31 19 29 41 51 27 41 30 44 42 34 32 27 27 36 39 40 40 41 41 39 38 37 35 34 35 32 25 26 29 27 20 20 21 20 28 29 26
37 37 39 48 28 39 40 41 41 48 45 32 44 43 28 39 38 41 36 35 31 39 41 41 42 42 42 41 40 39 39 38 35 35 30 29 33 30 21 19 18 23 26 28
26 31 39 29 36 41 41 44 45 33 30 34 46 57 41 45 40 39 42 44 44 36 41 44 45 45 45 45 45 44 42 42 39 38 39 39 37 37 33 27 24 26 23 23
25 25 29 33 26 35 43 49 41 33 32 41 55 53 58 60 59 49 40 42 44 47 43 42 45 47 47 47 47 48 47 46 45 43 43 43 43 41 42 38 36 33 30 28
27 26 29 30 29 27 27 32 48 39 40 43 40 52 60 62 60 60 52 54 52 48 45 49 50 49 48 49 49 50 49 49 48 48 46 45 45 42 42 43 41 41 38 37
26 27 28 29 31 33 32 30 30 35 43 50 39 45 53 54 54 60 55 53 56 56 54 52 53 53 53 52 52 53 52 51 51 50 50 50 49 48 48 47 44 44 43 41
23 26 28 27 29 27 40 43 39 35 34 39 45 49 43 41 43 51 56 53 50 52 52 52 53 53 54 55 55 55 54 53 53 54 53 53 53 52 51 51 50 48 47 44
25 28 30 32 36 38 42 40 39 36 33 35 36 38 41 41 41 44 47 49 49 47 49 52 52 52 54 53 54 56 56 55 55 55 55 56 55 55 55 55 55 53 51 51
23 28 26 28 34 35 38 36 32 36 37 38 40 41 43 41 41 48 49 45 45 45 45 48 51 53 53 53 53 55 56 58 58 58 58 58 58 59 59 58 59 58 59 57
25 27 24 28 34 35 36 37 38 37 37 37 39 41 41 41 41 43 45 45 43 43 43 44 46 47 48 51 52 53 54 54 56 58 59 60 62 62 62 64 64 62 61 62
30 30 29 28 30 30 32 34 32 34 37 39 39 40 40 41 41 42 44 46 48 48 48 48 48 48 49 50 52 54 55 57 57 58 59 60 63 65 67 67 66 66 67 66

GFSCGP_500_spd_099.txt.gz
Wind_Speed
38 37 37 33 28 24 22 16 13 26 19 22 16 10 6 10 13 11 14 13 11 10 10 8 8 10 10 7 7 7 5 5 5 6 11 13 11 12 14 14 13 14 16 15
37 38 34 35 31 28 28 27 18 24 26 23 17 11 12 16 16 13 11 14 15 11 11 10 7 10 11 10 8 8 6 5 4 6 7 10 11 11 9 11 13 14 16 18
37 31 32 34 34 32 32 30 26 24 38 15 24 13 10 11 25 15 9 12 19 15 13 12 11 10 11 12 10 9 9 6 4 6 6 7 9 9 9 9 11 14 16 17
33 33 37 32 36 33 34 30 17 14 25 25 26 3 15 7 12 14 12 12 18 17 18 16 14 13 13 14 13 11 10 9 7 7 7 4 9 8 6 7 9 11 12 16
31 34 38 39 33 35 36 32 21 23 21 31 20 10 10 13 14 8 10 8 17 16 18 22 21 16 15 15 16 15 12 10 9 9 9 6 6 8 6 6 5 6 11 12
31 33 35 41 33 36 37 30 17 23 17 22 20 19 19 14 12 15 18 18 9 11 17 18 20 18 15 15 16 15 14 12 10 11 10 10 7 6 6 6 4 2 7 9
35 39 36 41 37 35 40 39 30 21 22 15 16 18 25 14 15 24 17 17 16 17 17 20 20 18 15 15 16 17 17 15 13 10 11 11 11 9 9 7 5 4 5 6
34 36 38 40 40 38 43 47 33 22 15 11 15 28 29 25 22 23 18 9 20 26 17 19 26 23 17 18 19 17 18 17 16 14 11 11 14 13 9 7 6 5 4 8
16 30 28 34 31 28 44 41 33 21 19 19 24 30 28 28 33 22 24 24 29 11 19 15 28 25 28 26 24 21 20 19 19 19 15 11 12 13 13 11 9 5 3 6
30 30 32 25 29 30 42 39 35 26 19 21 23 24 31 34 31 29 32 34 23 20 22 24 25 33 30 29 25 25 26 21 22 21 19 16 14 14 12 11 9 9 8 6
37 28 30 29 30 38 42 44 42 36 35 30 23 28 32 37 39 31 28 29 27 27 27 22 30 24 31 21 27 25 24 25 23 23 22 20 18 16 15 14 13 12 10 9
41 35 40 35 24 31 37 33 44 43 35 34 36 30 32 33 31 35 32 31 32 32 32 29 27 23 26 30 29 35 30 25 23 24 23 22 20 18 16 13 11 10 10 9
38 33 33 26 31 37 36 37 36 47 40 37 35 25 31 37 33 28 33 33 35 35 32 26 29 26 26 17 12 36 32 26 23 24 23 22 22 21 20 17 16 14 13 13
41 40 35 29 29 29 38 43 36 48 45 32 34 31 33 39 41 25 26 30 27 29 30 26 27 27 21 16 15 16 20 24 35 30 27 25 26 24 23 21 20 19 18 18
41 36 37 29 30 33 36 37 43 43 48 33 35 31 32 38 38 30 23 23 23 25 28 28 27 28 27 25 23 24 22 23 18 16 32 26 21 26 26 25 25 24 22 21
42 47 42 39 33 30 33 32 42 50 47 41 48 37 26 31 30 26 23 24 29 26 27 29 27 28 30 28 29 27 27 24 23 21 27 11 24 25 23 26 23 23 23 23
43 49 43 45 38 29 31 33 36 47 42 57 60 57 50 29 23 23 23 25 24 22 27 29 32 32 33 33 33 34 33 31 30 30 24 22 22 16 13 18 19 25 19 22
40 50 56 43 51 43 35 37 40 37 36 54 56 64 65 60 54 29 27 30 30 27 23 30 34 37 37 37 37 38 38 38 37 34 33 30 27 22 16 16 22 18 19 19
41 39 45 45 47 50 44 43 41 24 35 48 55 59 60 58 50 36 32 29 37 38 33 31 31 36 40 41 41 41 41 41 40 38 37 35 33 28 23 22 23 24 23 20
20 27 36 38 43 38 47 50 39 35 36 36 51 56 63 58 54 54 54 42 35 28 32 36 39 41 40 43 46 46 45 44 45 44 43 41 40 36 31 30 27 30 30 30
24 24 26 27 33 36 41 38 40 35 41 41 41 45 58 64 65 64 56 55 49 47 45 47 47 45 43 45 48 48 48 47 47 47 46 44 43 43 40 36 34 34 35 36
20 23 29 32 33 38 35 36 38 33 32 36 46 52 49 50 59 67 69 64 59 57 57 56 57 56 55 54 52 51 52 51 50 50 49 47 47 46 45 44 41 39 39 40
25 23 24 30 35 36 37 39 40 41 36 32 34 33 38 47 53 52 57 57 53 52 52 54 57 59 58 57 56 54 53 52 52 52 53 52 50 50 49 48 48 47 45 43
23 25 26 27 31 34 36 36 36 38 41 42 41 42 42 40 38 49 59 47 46 45 47 49 50 53 55 55 56 55 55 54 54 53 53 53 53 53 52 52 51 50 51 51
27 28 24 26 30 32 36 37 35 34 34 36 39 43 45 43 41 38 37 43 47 50 47 45 45 46 49 51 52 52 52 53 53 53 53 53 54 54 54 54 54 54 54 55
24 30 31 27 30 32 34 38 32 37 36 36 37 38 40 41 39 38 39 42 43 43 43 44 45 47 47 49 50 50 49 50 51 51 52 53 54 54 56 57 56 56 56 57

GFSCGP_500_spd_102.txt.gz
Wind_Speed
43 41 35 28 22 22 21 23 24 20 16 11 14 5 2 12 13 6 9 10 8 8 7 8 10 7 7 5 8 8 8 12 11 11 13 14 15 12 13 13 12 10 11 13
41 38 32 31 31 29 26 29 28 25 18 16 7 10 9 8 6 7 9 11 9 8 7 4 6 7 7 6 5 7 6 9 11 9 11 14 13 13 14 12 11 10 9 11
36 29 36 35 34 33 31 31 29 26 24 24 17 14 15 17 8 13 7 9 15 11 9 6 5 6 8 9 7 7 7 7 9 11 9 11 13 14 14 11 12 10 8 10
31 37 36 38 36 35 35 30 31 31 24 27 8 14 23 19 20 16 10 11 8 13 10 10 8 8 9 11 9 8 9 7 8 9 10 9 11 12 14 13 10 11 11 9
29 36 36 35 38 36 32 32 31 23 16 18 14 11 11 19 19 13 12 14 14 17 16 15 13 12 11 11 12 10 9 9 7 7 10 11 12 11 11 14 12 11 12 11
35 31 34 32 35 36 37 38 33 29 26 26 16 14 15 18 13 13 6 7 8 21 17 20 20 15 13 12 13 12 12 11 9 9 9 9 10 10 10 12 13 10 12 12
36 38 37 38 35 38 46 42 35 31 24 15 18 19 21 10 7 5 9 14 13 8 18 22 16 15 14 15 15 16 16 15 13 10 10 10 9 11 11 9 10 11 10 12
35 38 37 37 40 41 50 45 37 33 23 13 17 17 17 17 15 14 10 14 17 16 17 21 23 21 21 20 20 18 19 19 18 15 13 12 14 12 11 8 8 9 10 10
35 36 32 34 33 36 50 45 37 31 24 25 20 20 21 20 16 14 12 8 16 10 18 15 18 23 23 22 21 22 23 22 22 21 17 16 15 14 14 13 10 8 7 9
32 35 34 30 28 27 43 47 36 33 28 24 24 20 24 26 24 21 20 15 9 14 21 10 9 14 25 27 24 26 25 25 27 27 24 20 16 16 17 16 14 11 10 8
34 33 35 31 31 30 41 51 45 37 34 24 29 30 27 27 25 25 22 17 13 17 14 18 19 18 25 30 30 30 28 25 25 26 26 25 23 21 20 18 17 14 12 11
36 31 35 32 30 35 43 46 48 40 36 33 26 34 30 28 26 22 23 21 20 23 20 20 20 13 30 39 32 34 30 28 26 27 26 25 25 23 23 24 21 20 18 16
37 34 33 33 30 32 35 41 48 44 40 40 36 37 33 27 22 26 28 24 24 25 25 23 21 20 21 31 19 33 30 31 24 31 29 28 27 27 26 25 26 25 22 20
34 38 37 37 35 37 38 41 52 47 45 47 43 40 37 32 25 19 36 29 26 27 26 23 22 20 19 18 23 10 20 35 35 26 34 32 30 30 31 30 28 28 27 24
33 36 37 35 40 38 38 35 48 49 49 48 47 45 42 41 33 31 41 23 20 28 28 25 21 23 22 17 12 18 13 13 21 33 35 25 35 34 37 32 30 30 28 27
35 34 34 38 37 37 36 34 43 44 48 56 52 51 45 37 28 24 30 25 21 16 20 22 22 24 25 20 20 20 20 14 21 30 16 34 37 33 29 29 33 31 29 29
33 36 36 40 42 33 35 33 35 45 48 44 49 56 50 45 31 25 23 27 26 20 23 23 23 24 26 25 21 22 20 19 21 23 23 18 18 12 26 31 33 33 32 32
27 33 41 42 50 40 32 31 31 40 51 51 47 49 59 54 40 19 18 23 21 21 22 19 21 24 25 25 25 26 26 26 25 24 23 21 22 18 14 13 11 14 31 32
32 32 39 44 43 40 50 34 37 38 42 45 50 54 55 56 52 47 43 28 25 28 27 27 24 24 25 25 26 28 29 30 29 28 27 27 25 22 20 18 17 16 18 26
34 35 38 39 45 49 43 35 38 41 43 40 41 45 55 54 56 52 40 39 37 35 31 30 28 30 30 27 26 30 32 32 34 35 33 31 30 29 26 25 24 24 23 25
24 18 32 39 39 43 51 50 42 37 45 49 46 45 45 52 57 54 35 38 31 36 34 31 32 33 34 35 34 33 34 34 34 37 39 38 36 34 32 31 29 29 31 31
19 20 23 32 42 45 45 42 44 44 44 43 44 39 47 52 53 53 51 44 45 38 44 43 44 44 43 43 43 43 41 40 38 39 43 44 41 40 39 37 34 34 33 35
22 22 24 29 31 32 35 34 33 40 48 44 51 48 43 43 45 47 49 47 46 53 50 44 44 47 47 48 49 50 51 51 50 48 47 46 46 47 44 43 42 41 39 38
24 22 21 26 29 33 34 33 33 35 36 40 42 41 40 43 45 49 52 51 50 51 55 54 50 54 61 63 64 64 58 55 53 51 50 49 48 48 48 47 46 46 46 45
26 26 27 26 27 32 32 32 34 34 36 39 40 43 46 44 43 42 39 38 45 49 55 57 51 46 49 52 52 53 53 52 53 51 49 49 49 49 49 49 49 48 48 47
22 25 28 30 31 29 31 33 33 35 35 37 40 42 42 44 45 45 44 44 44 43 42 43 49 54 54 46 43 44 46 47 48 49 48 48 48 48 49 48 47 48 48 49

GFSCGP_500_spd_105.txt.gz
Wind_Speed
44 40 32 24 22 24 21 23 23 24 18 22 14 9 11 12 16 15 12 13 12 13 13 14 16 14 12 12 13 13 7 10 12 13 16 14 14 14 12 13 14 15 15 15
43 41 33 31 28 27 24 26 26 23 17 17 17 15 15 20 19 18 17 16 14 14 12 10 14 13 12 12 11 12 9 7 11 12 15 14 15 13 12 12 13 14 13 15
38 34 38 37 35 32 29 27 25 24 26 21 12 14 16 18 19 18 15 18 18 19 17 13 11 11 12 14 14 13 12 7 8 11 12 13 15 15 13 12 12 10 12 14
34 38 40 40 38 36 33 28 28 27 27 18 19 11 13 13 22 20 17 14 19 17 17 16 15 14 11 12 15 15 13 9 7 8 11 12 12 15 13 13 12 12 10 11
34 39 39 40 37 37 31 34 32 31 29 26 27 14 9 11 20 27 21 18 18 21 19 17 16 15 13 11 12 14 13 12 10 8 7 9 11 14 13 13 12 12 9 9
35 39 40 35 34 35 36 39 38 35 35 31 17 17 14 11 6 16 21 16 17 22 23 21 16 15 13 10 11 13 14 13 13 12 9 9 10 14 13 14 13 11 10 9
39 40 37 40 42 41 46 43 39 36 38 22 22 19 15 14 4 5 17 15 11 22 23 19 20 16 14 15 15 16 17 16 15 15 14 11 9 11 14 12 13 13 11 10
38 37 37 39 41 40 44 46 43 42 32 23 23 20 22 17 12 10 9 7 6 10 22 22 16 24 17 17 19 19 20 20 19 19 17 16 14 13 12 12 12 13 13 12
36 36 36 36 38 39 43 48 43 39 32 27 28 22 26 28 21 14 12 8 7 14 17 25 26 23 24 18 18 20 21 22 24 22 21 20 19 17 15 14 13 13 13 13
34 36 36 36 39 40 42 44 45 42 38 33 28 25 24 24 24 18 14 11 10 14 14 18 22 26 20 21 20 20 21 23 24 24 23 22 22 22 20 18 16 14 13 13
33 36 37 36 35 35 39 43 46 43 43 35 35 32 29 29 26 19 18 16 14 12 12 14 8 7 8 20 21 22 24 25 24 25 26 25 23 25 25 24 20 19 17 16
33 35 37 38 36 36 42 45 49 46 44 40 39 36 28 29 27 25 23 23 19 18 19 13 11 9 10 15 22 33 33 30 29 27 28 28 25 25 26 26 26 25 22 18
33 33 38 37 34 35 43 46 50 50 47 43 43 37 35 31 25 24 23 21 23 23 23 19 16 15 15 19 22 25 29 32 30 34 33 32 30 28 27 28 28 26 25 24
35 33 36 39 39 39 41 45 51 51 51 49 47 45 41 32 31 23 25 28 25 25 24 22 22 22 18 17 21 26 22 30 34 32 32 34 34 35 33 31 31 30 27 24
33 33 34 37 39 37 38 39 43 48 50 51 50 50 45 40 35 34 27 26 40 30 28 26 25 26 20 19 20 16 16 20 37 38 34 36 38 36 38 37 34 33 32 30
31 31 36 35 40 38 36 35 39 44 48 51 50 51 46 37 35 36 30 36 33 22 16 28 24 18 20 21 18 15 15 22 21 20 37 34 35 38 44 40 38 38 38 35
24 33 36 36 41 42 41 38 38 40 47 52 51 48 44 40 39 37 33 34 28 26 21 20 17 16 17 18 18 20 18 16 17 20 21 19 41 26 33 44 43 46 44 42
23 24 33 33 34 37 36 32 39 38 43 50 52 52 49 47 46 45 38 34 25 25 23 23 21 18 19 20 20 20 21 18 19 19 21 21 11 15 13 14 21 43 45 50
19 21 26 32 35 37 40 43 35 33 33 44 49 48 47 47 50 48 47 42 25 22 19 22 24 23 21 20 23 23 24 25 25 25 21 22 18 17 15 11 12 9 20 27
27 26 28 28 27 39 38 49 46 44 41 38 39 43 45 47 46 43 38 39 43 44 40 28 27 25 25 23 24 25 27 27 27 26 25 22 22 20 21 17 14 14 15 17
19 22 28 34 37 36 45 46 42 48 45 50 47 39 38 41 46 50 47 43 46 42 44 42 42 40 33 30 30 31 31 27 25 25 26 25 24 23 24 23 22 22 23 25
20 21 24 25 29 38 40 39 36 39 41 44 44 42 42 42 41 44 42 37 32 32 35 41 44 46 39 41 40 40 37 33 28 31 33 31 30 28 27 27 27 27 27 29
21 20 20 25 25 27 33 42 40 36 45 43 41 46 40 46 51 48 41 45 40 38 45 41 39 44 42 46 41 37 35 36 39 39 39 40 39 39 39 36 35 34 34 34
21 21 22 25 25 26 28 31 37 38 40 40 42 46 47 44 40 40 40 39 38 42 44 49 45 41 39 44 45 44 44 45 48 49 46 44 46 46 45 44 43 41 40 40
21 23 25 26 27 27 29 30 33 33 34 36 36 37 42 49 48 45 47 46 47 49 49 48 52 56 55 55 51 51 57 60 61 58 56 52 49 49 49 47 46 48 46 45
23 23 25 27 30 30 29 30 30 31 34 37 38 40 40 38 40 41 43 43 43 44 44 47 50 55 56 56 54 55 53 51 45 47 47 47 48 49 48 48 49 51 50 50

GFSCGP_500_spd_108.txt.gz
Wind_Speed
41 39 27 23 26 26 23 19 15 16 14 19 15 11 14 30 31 25 21 19 19 18 17 17 15 14 14 15 12 14 13 15 12 12 16 15 16 14 12 12 13 13 14 14
41 37 32 31 29 28 25 21 18 19 19 17 16 13 21 29 25 26 22 21 19 16 16 16 16 15 15 14 13 13 13 13 13 12 13 15 14 14 14 13 12 13 14 14
34 35 38 36 33 31 28 22 21 21 19 14 15 19 22 31 22 26 26 24 24 22 20 19 17 16 17 16 14 12 14 12 12 12 9 11 13 14 15 13 13 13 12 11
37 39 41 40 37 35 29 26 25 23 21 20 26 16 17 24 25 26 28 26 24 24 23 23 18 18 16 15 15 13 13 14 12 13 12 10 11 14 13 13 13 13 13 12
38 41 42 42 38 35 31 31 27 28 27 24 13 10 14 22 19 26 28 27 25 24 22 21 21 18 18 16 14 14 12 14 15 13 11 12 11 12 14 13 13 13 13 12
36 40 43 41 39 37 38 37 33 31 29 26 22 21 17 10 8 30 26 23 24 24 25 23 21 19 20 19 15 15 15 14 16 15 13 12 13 13 13 13 12 12 12 13
37 40 40 41 42 43 45 43 38 35 36 26 24 24 18 12 14 11 19 21 19 26 26 22 20 18 19 20 20 18 19 17 16 17 16 14 12 13 14 14 12 11 11 10
37 41 40 42 43 43 45 44 42 40 34 27 27 23 15 16 16 9 16 17 19 15 22 22 25 20 19 17 21 21 20 21 20 19 19 18 15 15 13 14 14 12 11 11
37 38 36 38 40 41 44 46 40 39 35 31 33 27 26 21 16 9 18 13 13 14 21 27 21 26 23 23 24 22 22 21 21 19 18 20 18 19 19 17 15 14 12 12
36 34 36 38 41 40 42 42 44 43 38 39 33 24 26 23 21 17 16 18 15 16 16 20 27 23 24 30 25 22 22 22 22 21 20 20 20 18 19 18 18 16 16 15
34 34 36 38 41 41 43 45 45 41 40 37 35 31 23 21 22 21 20 18 13 15 17 20 14 28 25 26 21 21 24 22 24 25 24 22 22 22 21 20 20 19 19 19
33 34 38 39 39 39 40 41 43 42 39 40 37 34 30 27 24 23 26 21 16 19 20 17 15 13 17 28 26 22 23 24 25 26 26 27 25 24 25 25 22 20 20 18
30 32 38 40 39 38 40 42 42 41 41 39 38 36 34 31 28 28 27 24 21 21 20 18 16 11 12 19 17 23 27 28 28 28 29 30 31 29 28 29 27 24 23 21
30 30 37 39 41 39 40 43 44 43 42 41 40 36 34 33 29 32 31 28 26 23 23 23 24 19 16 18 22 22 30 29 25 28 34 35 37 35 32 31 31 30 28 28
33 31 31 38 41 40 39 41 43 44 43 42 41 37 32 33 32 29 26 23 25 27 26 28 32 28 23 22 22 23 19 17 26 32 35 41 40 40 38 36 34 33 33 32
35 33 31 33 38 38 39 39 41 42 43 46 42 43 42 37 38 36 33 29 28 30 30 34 34 34 25 24 20 18 17 19 17 14 28 34 33 40 37 39 40 38 37 36
35 24 23 34 34 36 37 40 40 39 38 40 46 44 45 43 41 39 34 34 35 33 27 30 31 28 25 22 19 22 21 16 14 16 16 38 35 35 38 40 39 40 42 39
21 38 34 33 35 38 37 40 39 37 36 36 37 43 46 45 43 39 38 35 35 32 25 29 34 21 18 20 19 22 20 18 18 16 17 15 18 12 29 36 43 45 46 46
15 12 14 30 37 36 39 36 41 40 38 36 35 38 41 40 41 39 39 39 36 34 33 30 22 23 23 22 24 21 22 22 24 21 20 16 17 14 14 13 15 17 21 57
19 20 19 18 21 35 32 34 30 36 35 32 36 39 38 39 38 37 37 39 41 40 39 34 33 28 28 28 25 25 25 26 26 27 24 22 18 16 14 12 17 16 17 12
26 24 26 28 25 24 27 33 33 32 35 37 36 35 35 38 35 39 40 38 36 33 33 31 35 35 29 30 27 23 21 22 19 20 20 19 15 16 17 15 16 16 16 20
17 21 25 29 35 35 30 31 36 36 35 38 43 43 39 32 33 35 37 42 42 40 35 38 39 39 35 40 40 39 34 32 31 27 30 28 24 18 17 17 18 17 18 20
15 16 18 19 23 29 31 34 39 36 39 39 40 48 44 39 37 34 37 41 44 42 35 34 34 38 37 38 39 39 39 39 34 35 36 35 31 28 27 27 27 26 26 25
17 18 20 21 23 24 27 29 31 36 42 38 35 40 45 42 39 41 36 34 36 34 39 37 33 38 39 41 43 44 42 37 36 46 45 41 33 32 37 38 37 36 35 34
16 17 20 23 25 27 28 28 28 31 33 36 41 40 42 48 45 43 45 42 44 46 45 40 38 42 43 49 46 46 48 48 46 49 47 44 44 48 50 48 49 49 46 43
16 19 23 24 25 27 30 30 29 30 31 32 34 38 45 45 41 41 37 49 53 48 43 42 41 42 47 48 50 51 53 53 47 46 50 54 58 56 57 50 49 50 49 49

GFSCGP_500_spd_111.txt.gz
Wind_Speed
35 34 25 24 24 23 22 20 16 15 11 14 10 7 15 28 27 24 23 21 21 20 21 19 17 15 13 12 12 13 13 15 15 13 13 14 17 17 16 15 15 15 15 14
36 33 29 30 28 25 24 23 22 18 14 13 16 17 15 23 29 26 25 24 22 19 21 20 18 17 15 14 14 13 13 14 15 14 12 14 15 16 16 15 15 15 14 13
34 35 38 33 31 27 25 23 21 19 17 13 9 10 10 37 35 27 26 26 25 22 22 21 20 18 17 15 15 14 14 13 12 12 12 10 14 14 15 15 15 14 14 13
36 40 40 37 33 30 26 25 23 22 21 15 13 18 17 30 36 31 28 27 26 26 26 25 21 21 19 16 15 16 14 14 13 12 12 11 11 12 13 15 15 14 14 14
39 41 42 41 37 33 30 27 28 28 24 20 15 21 24 28 31 29 29 28 26 28 26 22 22 21 21 20 16 16 16 15 15 12 11 12 10 11 12 14 15 14 13 14
39 40 42 41 40 39 35 34 31 30 30 24 21 16 15 11 25 29 31 28 26 24 26 26 25 24 24 22 21 19 17 17 16 15 13 11 12 11 10 13 14 13 12 14
39 42 42 41 43 43 41 39 36 34 31 24 22 15 14 17 13 6 18 32 29 28 27 24 21 24 25 24 23 22 20 19 18 16 16 15 14 15 14 12 13 12 12 12
39 41 43 42 42 43 42 41 41 38 30 24 24 19 15 16 11 10 8 32 33 29 25 23 23 25 26 26 24 23 22 20 20 18 17 16 15 16 15 14 14 14 13 12
38 38 39 39 39 41 42 44 41 39 31 28 28 21 17 11 9 7 5 14 26 22 24 26 24 25 26 25 24 23 23 23 22 21 20 18 16 16 15 14 13 13 12 13
36 37 37 35 39 40 40 37 42 42 37 35 32 26 23 17 13 13 11 14 19 21 23 25 26 28 25 27 24 25 24 24 24 21 21 21 19 16 16 15 13 13 13 12
36 38 37 35 38 39 41 42 44 42 38 35 33 29 20 15 17 20 22 18 21 21 21 25 31 33 26 31 29 23 26 25 27 25 23 22 22 20 18 16 15 14 14 13
36 36 35 37 36 37 38 38 40 43 42 39 33 29 24 19 18 25 22 23 18 19 17 23 22 25 18 29 28 34 31 29 27 28 27 25 24 24 23 21 20 18 16 15
31 33 33 36 37 36 38 38 38 42 43 39 34 32 26 21 21 19 20 23 23 24 28 29 29 22 13 14 30 31 25 28 28 27 28 29 28 28 28 26 24 23 22 19
29 31 34 32 37 37 39 38 37 38 41 40 38 33 31 27 25 25 22 25 27 27 25 25 24 19 18 16 22 34 27 29 30 30 29 29 31 31 32 31 29 28 27 26
30 31 33 35 35 36 34 36 37 38 39 38 36 35 30 31 29 30 27 30 31 24 26 24 17 20 22 20 21 27 32 31 32 33 24 24 29 27 34 36 34 32 31 30
34 31 32 36 35 36 36 35 36 37 39 39 37 35 33 30 32 31 29 32 28 25 25 25 24 23 24 23 20 29 25 25 22 21 26 26 29 37 39 40 39 36 33 33
33 35 30 32 38 38 37 39 37 36 37 37 39 38 35 32 33 31 32 33 29 27 27 25 26 23 31 32 34 28 25 20 20 20 22 22 26 26 38 39 41 40 38 36
19 29 34 31 38 39 38 38 41 37 35 37 34 34 38 37 35 39 39 38 37 34 33 30 30 29 27 24 26 32 23 18 20 22 19 18 16 20 29 32 39 39 40 41
13 15 33 41 33 37 38 45 43 36 38 38 34 31 32 37 43 41 39 40 37 35 32 31 31 23 21 22 27 22 16 19 22 25 19 16 13 20 28 14 34 46 52 46
19 14 16 24 25 28 34 35 37 36 40 40 38 34 31 33 35 32 33 36 36 38 36 38 35 31 27 20 25 27 25 24 26 28 23 21 17 15 14 16 11 19 7 10
21 22 20 20 17 18 26 39 39 36 35 35 37 37 30 31 32 31 35 36 38 36 36 35 36 33 32 32 29 31 30 27 26 27 26 25 21 16 14 15 14 14 13 17
18 25 25 26 25 25 22 23 35 36 34 32 33 37 34 30 31 34 37 38 39 36 32 32 30 28 31 32 34 36 34 31 30 27 25 19 19 16 18 18 18 18 16 18
15 18 22 25 28 27 28 32 30 31 32 33 34 37 33 35 34 35 35 39 42 41 34 34 34 33 34 38 39 36 35 32 29 26 29 30 28 27 28 24 21 21 22 21
10 13 16 19 22 25 26 28 33 37 36 35 35 35 40 37 36 39 41 40 40 38 37 39 39 42 43 43 44 43 36 38 39 37 38 38 38 34 36 34 32 30 26 27
11 13 16 19 22 25 26 27 26 30 33 34 39 39 39 43 41 44 38 40 35 35 38 40 44 42 40 38 39 41 35 37 40 39 40 41 41 40 42 42 43 39 35 34
8 12 17 23 26 26 26 28 30 29 30 31 34 37 43 43 44 48 49 45 44 44 42 41 40 41 42 41 40 41 43 41 42 44 44 46 47 47 48 53 51 53 48 43

GFSCGP_500_spd_114.txt.gz
Wind_Speed
32 32 27 23 24 21 19 18 17 10 11 6 8 8 12 14 19 23 24 23 23 20 18 18 16 12 11 9 9 11 12 12 12 11 13 15 14 14 16 17 17 17 17 17
35 32 31 30 26 22 22 20 20 13 13 16 9 13 2 19 22 25 25 25 24 22 19 19 17 15 13 12 10 10 13 12 11 13 13 16 15 14 15 17 15 15 14 14
36 36 37 31 29 24 24 21 22 16 16 14 8 10 8 11 20 23 27 29 26 24 22 21 20 19 17 14 12 12 12 13 12 12 13 14 15 15 16 16 16 15 14 12
39 41 37 36 31 28 26 27 24 21 16 13 10 11 12 11 27 26 27 26 25 26 26 25 23 22 20 17 16 13 14 12 12 12 12 14 14 15 16 15 15 14 14 13
39 40 41 40 36 32 33 28 27 24 21 17 13 12 12 18 20 33 28 27 27 27 27 26 25 24 23 20 17 15 13 14 14 13 11 12 13 13 15 16 14 13 13 12
42 39 42 41 42 38 32 30 29 26 22 18 16 14 20 15 29 36 31 29 29 28 28 29 28 26 24 21 21 19 16 14 15 14 13 11 10 12 13 15 14 14 13 12
38 38 41 43 42 42 38 32 29 28 25 14 20 18 13 19 11 15 33 35 28 29 28 28 29 26 24 24 22 20 18 17 16 15 14 11 11 10 10 11 13 14 13 14
38 39 42 43 43 43 41 38 32 28 18 18 21 19 14 10 9 9 6 18 33 32 31 28 25 26 27 25 24 22 20 19 17 16 14 13 11 9 10 10 10 11 12 11
37 33 39 41 42 44 43 42 32 26 25 20 21 22 17 14 11 11 12 12 30 37 33 28 25 25 27 26 25 24 23 20 19 17 15 14 12 11 10 10 9 8 9 10
35 34 38 36 41 42 41 41 40 35 22 21 23 23 18 15 11 8 13 11 27 38 33 29 27 26 27 27 26 25 24 24 21 20 19 17 14 14 13 12 11 9 8 8
34 32 32 36 41 42 45 42 43 27 28 21 23 18 24 17 14 11 13 11 19 18 22 25 30 29 29 29 27 27 26 27 26 24 21 20 19 19 16 16 14 12 11 10
31 29 20 35 35 39 41 39 40 39 30 33 25 23 24 18 16 15 20 21 16 15 20 26 30 33 34 33 30 31 28 29 29 28 25 24 22 22 21 19 18 17 15 14
30 28 23 22 34 36 38 41 32 32 27 23 26 23 20 24 20 18 28 27 26 20 18 24 28 33 36 29 29 23 30 35 30 30 28 27 26 25 26 24 23 22 20 19
27 27 29 21 23 27 37 41 40 29 27 25 26 24 28 25 25 20 24 25 22 23 23 21 23 29 31 35 25 18 36 35 35 33 29 28 28 29 28 27 27 26 24 23
28 29 31 32 26 31 29 33 36 37 27 24 23 31 30 30 29 24 23 24 27 28 26 26 32 34 25 23 29 27 22 32 32 35 32 31 29 30 31 31 31 30 29 28
28 30 28 34 32 31 32 31 31 34 35 33 30 26 31 32 34 34 28 23 27 30 27 26 27 20 14 21 17 24 20 24 32 37 34 31 25 28 30 32 35 36 34 32
29 34 33 25 32 30 30 33 34 35 36 33 26 34 33 30 33 36 35 33 32 29 26 25 21 20 20 23 25 23 26 27 23 34 37 29 36 29 29 31 33 39 40 38
29 26 34 33 32 29 31 31 36 36 34 34 35 34 33 33 31 33 37 39 37 32 29 26 23 22 22 22 24 24 25 27 28 26 20 22 23 29 27 22 29 35 38 42
20 21 28 39 33 35 38 39 36 36 38 36 34 32 30 32 34 38 37 38 37 37 35 35 32 31 30 22 24 28 24 23 22 26 19 21 21 24 23 27 26 27 35 41
16 13 14 35 38 34 37 38 39 39 39 38 37 35 31 29 33 38 36 36 35 39 39 38 36 34 32 32 26 21 23 23 20 17 22 23 20 22 20 33 42 30 34 40
22 19 17 12 22 37 38 36 39 37 38 38 39 37 36 34 36 34 35 37 41 42 39 39 38 36 35 32 30 30 25 24 29 25 28 28 27 24 22 20 22 22 17 16
21 21 25 24 21 20 20 29 37 43 41 35 36 37 35 36 37 37 38 39 39 38 39 40 35 36 37 34 34 32 32 26 28 30 32 34 29 24 24 21 18 20 19 17
16 20 24 26 27 23 25 25 22 25 33 37 37 36 37 38 41 38 37 39 37 37 38 39 38 38 38 34 32 32 31 32 32 36 36 35 30 26 25 26 26 27 26 25
10 11 15 19 25 28 30 31 29 30 29 29 33 36 37 40 41 43 42 39 37 40 41 39 40 41 38 34 36 34 37 36 35 38 38 36 33 27 29 30 29 30 30 30
11 12 13 16 19 22 26 28 28 29 31 35 37 35 36 39 40 43 43 39 39 40 38 41 45 44 46 42 39 36 41 40 39 40 37 39 38 37 36 36 38 35 37 37
8 10 12 17 20 26 27 29 31 31 30 31 37 39 39 41 41 43 44 47 40 38 41 40 43 42 45 46 46 43 48 46 46 47 45 44 45 45 43 43 42 41 39 40

GFSCGP_500_spd_117.txt.gz
Wind_Speed
36 32 26 21 21 21 21 11 17 15 12 11 14 23 27 23 26 26 25 23 21 18 16 14 12 12 11 10 10 6 6 8 8 10 11 11 11 14 15 15 14 15 15 14
36 34 30 28 27 25 23 18 21 14 19 19 18 11 12 20 17 24 26 24 22 19 16 16 14 13 13 11 10 8 7 8 8 8 11 11 10 12 13 14 14 13 13 12
36 32 33 33 29 24 21 18 22 19 15 14 16 5 7 6 17 27 29 25 24 21 19 18 16 14 14 14 11 9 9 8 8 8 10 11 11 12 13 14 12 11 10 9
38 32 39 35 31 26 19 24 26 17 24 11 10 4 4 7 8 28 30 26 26 24 22 21 19 16 15 15 14 12 10 9 9 10 10 11 11 11 12 13 14 13 11 9
37 44 42 36 31 30 27 25 34 16 17 10 9 5 6 9 13 19 26 27 27 27 26 23 21 19 17 16 15 13 13 11 9 9 9 9 11 11 12 12 13 13 11 10
27 44 41 35 35 34 37 28 23 20 15 16 16 9 13 10 7 17 18 25 27 28 28 27 25 22 19 18 17 16 13 12 11 9 9 9 8 10 10 11 11 11 12 10
41 41 40 41 38 38 36 30 23 21 15 12 12 6 19 13 10 10 22 27 26 27 30 30 28 25 21 19 18 17 16 13 12 10 9 8 8 7 8 10 10 10 10 10
33 34 37 43 43 36 36 33 26 15 12 15 21 15 20 11 9 10 6 32 33 29 29 29 29 27 31 22 21 18 16 15 13 11 9 8 8 7 7 8 9 8 9 10
18 21 32 39 42 38 38 38 31 17 22 18 15 16 25 15 10 8 16 16 17 31 31 30 28 27 29 25 24 22 19 17 15 13 13 11 10 9 8 7 8 9 9 11
12 21 24 37 41 42 34 32 29 27 19 15 17 18 16 20 13 12 14 13 14 25 36 34 30 28 28 26 25 23 22 21 18 16 16 14 13 12 10 9 7 8 10 9
16 27 22 31 42 40 42 35 35 26 23 16 22 24 27 21 17 17 16 16 13 14 42 42 32 28 21 26 26 25 23 23 22 21 18 18 16 15 13 12 11 10 10 9
41 10 17 23 26 37 27 32 27 33 29 24 20 24 20 14 18 19 19 18 21 23 17 42 35 34 36 33 28 24 22 25 25 25 23 21 20 20 19 16 16 14 13 12
23 31 21 18 23 27 34 27 32 26 25 22 24 26 29 23 20 21 21 20 20 19 12 26 37 31 32 30 28 27 25 26 26 24 28 26 26 23 23 22 20 18 17 15
31 24 20 26 26 23 31 31 28 26 27 25 17 29 28 24 20 23 22 24 25 23 14 17 17 20 27 28 31 32 30 23 26 33 32 29 29 30 27 26 25 23 22 20
29 27 24 27 27 19 26 30 25 29 26 25 27 30 32 37 31 28 26 26 25 25 19 18 18 15 18 23 29 34 35 29 31 32 34 33 30 33 32 30 29 27 26 25
22 27 27 28 31 21 23 22 28 24 28 21 28 31 17 43 35 36 32 27 25 22 19 16 18 20 32 24 40 35 41 39 34 34 34 37 36 36 34 32 31 30 29 29
29 17 32 22 20 20 27 24 22 23 25 28 25 28 47 41 30 36 33 31 25 22 20 23 24 23 24 15 16 23 23 29 24 28 35 38 38 38 35 35 33 31 31 32
27 31 31 30 28 29 30 30 37 31 36 44 31 47 30 20 27 36 36 36 32 28 24 25 24 25 24 19 19 20 24 27 22 18 18 19 34 38 43 31 29 29 31 32
31 33 36 29 29 37 41 49 35 33 38 35 50 48 51 40 35 31 35 37 38 33 29 26 26 27 24 25 24 26 25 25 23 24 25 18 22 28 28 31 35 27 28 27
10 10 21 36 29 14 30 37 34 31 39 14 41 41 40 39 36 35 35 38 39 38 38 35 32 31 29 27 22 25 26 27 25 21 21 28 21 26 20 25 29 33 34 34
14 14 10 18 20 33 28 40 47 33 40 36 33 35 38 36 33 33 36 39 40 38 40 41 41 41 37 33 32 31 27 30 30 25 23 22 24 25 26 24 29 32 39 38
10 18 15 19 15 25 28 33 30 37 40 39 37 37 33 34 36 39 37 39 39 40 43 43 41 41 42 41 39 36 35 33 32 27 29 30 31 30 30 29 28 30 29 26
16 22 24 26 28 30 25 19 26 30 30 37 39 38 37 37 36 40 38 39 40 40 39 40 42 44 43 42 41 40 39 37 36 34 33 32 36 34 34 37 33 27 27 24
13 15 20 21 26 30 27 25 25 24 25 29 35 40 42 39 39 40 38 38 40 40 41 43 43 41 40 40 42 43 41 38 38 35 34 35 35 36 35 32 30 29 30 30
12 12 14 16 16 18 25 27 29 31 31 30 30 31 36 39 41 41 40 40 40 42 41 42 42 42 41 42 42 44 44 43 41 38 37 38 40 38 38 37 31 28 30 32
12 13 14 19 14 19 20 20 24 27 32 35 35 36 38 37 36 40 43 43 43 44 43 45 43 42 42 45 44 43 43 44 44 45 44 44 40 38 39 38 40 38 37 37

GFSCGP_500_spd_123.txt.gz
Wind_Speed
36 33 30 24 19 21 13 9 14 23 13 8 12 34 26 30 28 26 23 19 16 13 12 10 8 8 10 11 10 10 11 10 7 10 12 11 11 14 13 17 17 14 14 11
38 34 29 27 23 20 21 12 15 15 8 12 12 34 27 29 30 28 27 23 19 16 13 11 11 9 10 10 11 10 12 11 6 7 11 12 9 12 13 15 18 15 13 13
32 33 27 27 25 27 27 19 9 18 25 9 11 30 24 32 33 29 29 26 24 18 16 13 12 11 10 10 10 10 12 12 6 10 11 12 11 10 12 12 12 12 11 10
32 34 34 28 26 28 27 20 23 14 17 17 7 17 32 35 29 27 29 26 26 20 18 18 16 12 9 9 10 10 11 11 7 9 12 9 11 8 9 11 11 10 8 9
30 31 36 33 28 27 30 21 9 22 17 21 16 7 17 23 24 25 29 27 28 23 21 20 17 16 14 11 10 11 10 9 7 10 9 8 9 9 8 9 9 8 6 5
32 33 32 37 29 24 34 15 8 20 12 13 16 6 7 16 9 11 22 29 33 31 25 22 18 20 17 13 10 10 11 9 9 7 9 7 8 7 8 8 7 7 6 5
31 34 32 34 36 28 34 18 9 8 11 12 21 8 7 7 10 3 3 17 23 27 24 19 20 16 16 15 14 10 10 8 8 9 8 9 8 6 8 8 7 8 6 5
20 27 35 38 40 35 34 15 20 16 8 6 7 3 7 12 16 4 5 13 33 28 26 21 17 19 16 17 15 14 12 11 9 7 8 7 8 8 7 7 7 8 9 7
11 13 7 19 30 32 34 34 15 14 22 12 9 10 20 9 9 7 5 8 18 27 26 24 26 27 19 18 18 15 14 14 12 12 10 9 8 8 9 8 9 8 8 9
18 15 21 15 18 30 33 29 27 26 20 10 8 12 18 13 16 15 11 12 16 21 25 26 28 27 22 21 19 19 16 14 14 13 12 11 10 10 10 10 8 8 7 10
26 20 25 21 23 23 35 33 34 28 26 15 26 19 20 12 18 21 24 22 17 22 22 25 22 27 24 23 18 19 19 18 18 18 17 14 12 11 11 10 10 11 10 9
33 24 28 25 19 17 22 35 33 27 27 26 25 22 21 19 19 29 21 17 20 20 14 14 21 24 26 20 21 23 23 21 22 22 19 18 18 16 15 14 14 13 12 12
34 29 28 27 24 19 14 31 40 37 29 32 20 18 26 20 19 2 11 9 13 18 26 17 12 14 28 31 21 24 24 22 24 26 23 21 20 19 20 18 17 17 15 14
31 36 29 29 28 25 22 19 24 39 41 33 24 19 22 28 15 7 10 17 9 12 20 18 13 11 12 23 24 24 25 29 32 28 24 25 23 21 20 19 21 20 20 19
33 36 35 26 22 23 24 18 11 28 34 32 25 20 27 26 21 14 16 17 19 20 19 21 15 15 22 23 31 31 33 39 37 31 28 27 24 25 22 23 25 26 25 23
24 32 43 39 29 28 29 26 25 30 28 28 25 24 27 27 24 25 26 34 31 29 24 23 19 18 16 27 34 40 38 34 32 33 29 30 25 24 32 25 27 35 30 27
26 36 32 43 40 24 32 29 29 31 30 30 30 28 29 32 33 34 33 11 28 24 23 19 18 22 18 20 23 26 19 16 17 21 24 31 31 30 27 26 23 29 32 31
17 26 35 37 38 44 35 31 30 28 29 31 41 42 45 42 41 45 44 34 15 18 21 18 18 22 24 23 25 35 24 15 12 20 27 26 26 27 29 27 26 23 24 28
16 20 21 36 40 32 36 35 25 34 31 36 37 48 44 44 50 49 37 30 19 17 20 19 21 26 19 21 21 27 32 25 16 17 16 15 15 19 20 20 29 33 28 27
23 18 23 34 44 38 30 40 33 41 38 36 37 43 49 47 42 41 36 24 28 30 32 34 26 30 25 16 17 20 28 22 30 22 21 17 15 14 17 10 12 16 16 31
20 25 21 30 35 45 33 28 49 42 42 41 41 43 47 35 32 29 23 21 20 30 38 33 36 31 29 25 22 20 27 20 18 23 22 14 14 14 16 18 20 17 17 23
15 24 7 20 27 30 28 24 21 23 36 38 41 45 43 39 28 29 17 15 35 22 22 24 26 29 32 31 30 29 29 30 26 30 28 24 20 19 22 21 23 23 25 21
5 9 15 14 18 25 27 10 18 20 16 24 37 48 37 38 45 40 45 40 26 33 30 29 30 33 35 36 37 37 35 32 34 35 37 37 30 25 27 29 27 27 30 30
2 6 9 23 12 3 11 11 12 11 17 19 21 29 45 44 45 42 39 27 26 30 32 35 38 38 37 38 37 37 39 41 40 38 36 32 32 33 34 34 33 31 32 32
3 4 7 11 11 9 8 13 17 21 23 23 27 25 26 28 29 29 31 30 27 29 33 32 34 38 40 41 40 40 39 40 42 42 41 41 41 40 38 38 39 39 38 37
10 8 8 6 7 7 8 11 13 15 24 27 26 29 31 26 25 25 27 27 28 30 31 35 39 38 37 40 41 43 43 42 42 42 43 41 41 40 42 43 43 43 42 40

GFSCGP_500_spd_126.txt.gz
Wind_Speed
34 35 28 22 16 18 16 20 10 10 10 16 13 19 23 31 35 23 19 16 14 12 10 9 8 9 9 9 10 14 13 10 11 14 15 13 14 15 16 18 19 20 17 16
32 32 27 26 22 18 21 17 11 11 11 12 14 17 26 29 24 23 21 18 16 13 11 10 10 10 9 10 8 11 12 14 12 12 16 16 15 15 13 16 17 18 14 16
29 34 31 29 26 22 21 23 20 10 12 15 13 15 33 29 29 25 22 22 19 14 13 13 12 11 13 11 12 11 12 13 13 11 12 15 15 15 12 12 15 15 12 14
26 36 34 30 27 26 26 28 26 12 4 12 19 12 36 34 33 30 27 23 20 15 14 14 11 14 13 13 13 10 11 11 12 11 12 13 13 15 14 11 12 13 10 8
29 33 36 31 27 23 24 27 24 15 8 8 15 15 30 33 31 22 22 23 21 17 15 15 15 13 14 14 14 12 12 14 13 12 11 11 12 13 12 11 11 10 10 7
34 32 37 34 30 27 26 28 18 13 14 6 11 9 13 33 21 22 25 24 24 20 19 19 17 15 14 13 12 15 14 12 14 13 14 12 11 10 12 12 11 12 11 8
31 34 33 38 38 33 31 34 9 8 4 4 5 21 8 20 31 25 27 21 22 25 25 22 19 16 15 15 15 14 15 14 13 12 13 13 12 13 11 12 11 12 13 11
25 30 33 36 40 37 33 21 19 4 5 6 8 11 11 20 21 18 20 22 23 26 30 25 24 19 19 17 16 15 14 13 14 13 11 13 12 12 13 13 11 10 10 11
18 26 31 30 31 36 29 21 22 14 19 15 10 12 15 22 16 15 18 15 28 27 26 30 25 22 22 21 20 16 15 16 15 14 11 11 11 10 11 13 13 13 11 11
25 29 29 30 33 33 29 22 27 22 18 16 13 6 8 13 20 18 16 17 24 30 29 27 25 25 22 21 19 20 21 19 17 16 15 13 12 11 12 11 11 12 12 12
27 25 25 26 32 27 32 30 29 29 28 20 24 15 10 11 6 20 18 19 20 29 28 30 30 31 26 25 22 21 20 21 19 16 15 14 14 13 11 12 11 10 12 14
31 27 27 28 26 28 22 30 31 32 31 23 25 29 17 12 8 5 16 17 21 22 31 33 27 19 23 26 25 21 22 20 20 18 16 15 15 13 14 14 13 14 13 12
31 29 26 30 25 22 21 28 36 33 32 25 26 27 22 10 6 9 7 21 17 26 25 25 30 30 26 20 26 21 23 20 20 20 20 19 18 18 17 16 16 17 16 15
33 28 27 34 31 31 26 25 37 37 36 31 28 27 28 16 9 4 4 23 21 20 21 21 13 22 15 29 30 26 21 26 28 26 23 23 22 22 21 21 20 19 19 19
28 30 34 37 36 34 32 31 34 41 40 35 32 29 27 25 24 17 13 16 19 20 17 17 17 17 20 21 20 18 21 26 31 30 24 27 26 28 27 25 24 25 24 24
23 22 30 30 37 37 33 30 32 33 37 40 39 38 36 37 34 27 27 22 22 23 22 22 29 27 28 22 25 20 29 30 31 27 25 30 34 29 30 28 30 28 27 27
27 27 29 38 39 27 37 32 29 31 33 39 38 37 39 39 37 28 25 30 25 23 33 34 28 22 24 18 23 22 28 30 34 39 35 41 36 37 37 27 35 38 30 30
26 30 27 38 46 40 27 32 31 32 31 35 39 40 37 37 39 40 35 31 32 27 41 36 35 24 27 25 24 26 28 27 26 32 33 36 46 38 34 35 31 27 27 24
16 22 25 34 37 41 40 29 25 31 29 36 38 40 41 40 39 42 41 36 33 29 28 13 21 26 22 24 26 26 27 28 23 27 23 25 31 29 30 31 27 26 24 21
22 15 20 33 36 36 38 39 37 34 31 28 37 39 36 41 38 40 39 38 33 34 23 12 23 26 25 25 31 24 26 30 29 36 28 31 24 23 24 23 23 32 32 29
19 20 18 22 30 37 40 39 32 43 38 29 33 37 35 38 39 31 33 34 21 19 24 24 31 30 37 34 27 23 25 22 23 22 16 23 28 29 24 22 21 22 15 14
15 22 19 22 28 29 39 43 42 29 35 30 34 38 39 25 28 31 23 16 12 12 16 26 28 31 32 35 31 33 39 39 26 23 21 18 20 22 18 17 16 16 14 18
3 7 13 22 17 24 26 32 25 25 32 34 39 41 42 38 37 33 30 24 24 16 14 26 26 25 27 25 28 28 30 30 26 28 30 25 21 20 21 26 22 20 21 24
8 6 7 3 17 10 23 20 25 14 20 24 15 35 41 39 39 43 37 37 38 38 39 28 30 32 32 33 32 31 32 34 33 32 33 33 35 34 31 31 26 26 28 29
7 4 5 5 4 1 5 9 17 29 18 7 13 19 15 16 14 11 33 28 28 30 34 28 26 32 37 39 39 37 35 35 36 37 38 38 37 36 35 35 35 35 34 34
6 7 7 8 7 11 12 9 12 13 14 15 17 16 16 19 19 15 13 13 16 21 27 29 28 31 35 38 41 43 44 43 40 39 39 40 41 41 41 39 39 38 41 42